[[{"header":{"parameterUnit":"m.s-1","parameterCategory":1,"la1":30.6,"la2":29.2853,"lo1":-89.7004,"lo2":-87.6739,"dy":0.0162,"dx":0.0183,"nx":112,"ny":82,"refTime":"2023-11-10T18:00:00:Z","depth":0,"parameterNumber":2,"parameterNumberName":"U-component_of_WINDS"},"data":[0.0,0.0,0.0,0.0,0.0,0.0,0.0,0.0,0.0,0.0,0.0,0.0,0.0,0.0,0.0,0.0,0.0,0.0,0.0,0.0,0.0,0.0,0.0,0.0,0.0,0.0,0.0,0.0,0.0,0.0,0.0,0.0,0.0,0.0,0.0,0.0,0.0,0.0,0.0,0.0,0.0,0.0,0.0,0.0,0.0,0.0,0.0,0.0,0.0,0.0,0.0,0.0,0.0,0.0,0.0,0.0,0.0,0.0,0.0,0.0,0.0,0.0,0.0,0.0,0.0,0.0,0.0,0.0,0.0,0.0,0.0,0.0,0.0,0.0,0.0,0.0,0.0,0.0,0.0,0.0,0.0,0.0,0.0,0.0,0.0,0.0,0.0,0.0,0.0,0.0,1.5052,1.5167,1.5201,1.5215,1.5215,1.5242,1.5444,1.601,0.0,0.0,0.0,0.0,0.0,0.0,0.0,0.0,0.0,0.0,0.0,0.0,0.0,0.0,0.0,0.0,0.0,0.0,0.0,0.0,0.0,0.0,0.0,0.0,0.0,0.0,0.0,0.0,0.0,0.0,0.0,0.0,0.0,0.0,0.0,0.0,0.0,0.0,0.0,0.0,0.0,0.0,0.0,0.0,0.0,0.0,0.0,0.0,0.0,0.0,0.0,0.0,0.0,0.0,0.0,0.0,0.0,0.0,0.0,0.0,0.0,0.0,0.0,0.0,0.0,0.0,0.0,0.0,0.0,0.0,0.0,0.0,0.0,0.0,0.0,0.0,0.0,0.0,0.0,0.0,0.0,0.0,0.0,0.0,0.0,0.0,0.0,0.0,0.0,0.0,0.0,0.0,0.0,0.0,0.0,0.0,0.0,0.0,0.0,0.0,0.0,0.0,0.0,0.0,1.516,1.5181,1.5296,1.5377,1.5377,1.5493,1.576,1.633,0.0,0.0,0.0,0.0,0.0,0.0,0.0,0.0,0.0,0.0,0.0,0.0,0.0,0.0,0.0,0.0,0.0,0.0,0.0,0.0,0.0,0.0,0.0,0.0,0.0,0.0,0.0,0.0,0.0,0.0,0.0,0.0,0.0,0.0,0.0,0.0,0.0,0.0,0.0,0.0,0.0,0.0,0.0,0.0,0.0,0.0,0.0,0.0,0.0,0.0,0.0,0.0,0.0,0.0,0.0,0.0,0.0,0.0,0.0,0.0,0.0,0.0,0.0,0.0,0.0,0.0,0.0,0.0,0.0,0.0,0.0,0.0,0.0,0.0,0.0,0.0,0.0,0.0,0.0,0.0,0.0,0.0,0.0,0.0,0.0,0.0,0.0,0.0,0.0,0.0,0.0,0.0,0.0,0.0,0.0,0.0,0.0,0.0,0.0,0.0,0.0,0.0,0.0,1.5337,1.5432,1.5432,1.5677,1.5911,1.5911,1.6173,1.6794,1.7173,1.7031,0.0,0.0,0.0,0.0,0.0,0.0,0.0,0.0,0.0,0.0,0.0,0.0,0.0,0.0,0.0,0.0,0.0,0.0,0.0,0.0,0.0,0.0,0.0,0.0,0.0,0.0,0.0,0.0,0.0,0.0,0.0,0.0,0.0,0.0,0.0,0.0,0.0,0.0,0.0,0.0,0.0,0.0,0.0,0.0,0.0,0.0,0.0,0.0,0.0,0.0,0.0,0.0,0.0,0.0,0.0,0.0,0.0,0.0,0.0,0.0,0.0,0.0,0.0,0.0,0.0,0.0,0.0,0.0,0.0,0.0,0.0,0.0,0.0,0.0,0.0,0.0,0.0,0.0,0.0,0.0,0.0,0.0,0.0,0.0,0.0,0.0,0.0,0.0,0.0,0.0,0.0,0.0,0.0,0.0,0.0,0.0,0.0,0.0,0.0,0.0,0.0,0.0,1.5567,1.5642,1.5642,1.605,1.6264,1.6458,1.6882,1.7486,1.8068,1.8029,0.0,0.0,0.0,0.0,0.0,0.0,0.0,0.0,0.0,0.0,0.0,0.0,0.0,0.0,0.0,0.0,0.0,0.0,0.0,0.0,0.0,0.0,0.0,0.0,0.0,0.0,0.0,0.0,0.0,0.0,0.0,0.0,0.0,0.0,0.0,0.0,0.0,0.0,0.0,0.0,0.0,0.0,0.0,0.0,0.0,0.0,0.0,0.0,0.0,0.0,0.0,0.0,0.0,0.0,0.0,0.0,0.0,0.0,0.0,0.0,0.0,0.0,0.0,0.0,0.0,0.0,0.0,0.0,0.0,0.0,0.0,0.0,0.0,0.0,0.0,0.0,0.0,0.0,0.0,0.0,0.0,0.0,0.0,0.0,0.0,0.0,0.0,0.0,0.0,0.0,0.0,0.0,0.0,0.0,0.0,0.0,0.0,0.0,0.0,0.0,0.0,0.0,1.5635,1.5642,1.5642,1.5757,1.6035,1.6622,1.6757,1.743,1.8418,1.8278,0.0,0.0,0.0,0.0,0.0,0.0,0.0,0.0,0.0,0.0,0.0,0.0,0.0,0.0,0.0,0.0,0.0,0.0,0.0,0.0,0.0,0.0,0.0,0.0,0.0,0.0,0.0,0.0,0.0,0.0,0.0,0.0,0.0,0.0,0.0,0.0,0.0,0.0,0.0,0.0,0.0,0.0,0.0,0.0,0.0,0.0,0.0,0.0,0.0,0.0,0.0,0.0,0.0,0.0,0.0,0.0,0.0,0.0,0.0,0.0,0.0,0.0,0.0,0.0,0.0,0.0,0.0,0.0,0.0,0.0,0.0,0.0,0.0,0.0,0.0,0.0,0.0,0.0,0.0,0.0,0.0,0.0,0.0,0.0,0.0,0.0,0.0,0.0,0.0,0.0,0.0,0.0,0.0,0.0,0.0,0.0,0.0,0.0,0.0,0.0,0.0,0.0,1.6244,1.6496,1.6496,1.7137,1.7568,1.7772,1.8221,1.8663,1.9058,0.0,0.0,0.0,0.0,0.0,0.0,0.0,0.0,0.0,0.0,0.0,0.0,0.0,0.0,0.0,0.0,0.0,0.0,0.0,0.0,0.0,0.0,0.0,0.0,0.0,0.0,0.0,0.0,0.0,0.0,0.0,0.0,0.0,0.0,0.0,0.0,0.0,0.0,0.0,0.0,0.0,0.0,0.0,0.0,0.0,0.0,0.0,0.0,0.0,0.0,0.0,0.0,0.0,0.0,0.0,0.0,0.0,0.0,0.0,0.0,0.0,0.0,0.0,0.0,0.0,0.0,0.0,0.0,0.0,0.0,0.0,0.0,0.0,0.0,0.0,0.0,0.0,0.0,0.0,0.0,0.0,0.0,0.0,0.0,0.0,0.0,0.0,0.0,0.0,0.0,0.0,0.0,0.0,0.0,0.0,0.0,0.0,0.0,0.0,0.0,0.0,0.0,1.6714,1.6609,1.6672,1.6864,1.7466,1.8061,1.8457,1.8853,1.9058,1.9256,0.0,0.0,0.0,0.0,0.0,0.0,0.0,0.0,0.0,0.0,0.0,0.0,0.0,0.0,0.0,0.0,0.0,0.0,0.0,0.0,0.0,0.0,0.0,0.0,0.0,0.0,0.0,0.0,0.0,0.0,0.0,0.0,0.0,0.0,0.0,0.0,0.0,0.0,0.0,0.0,0.0,0.0,0.0,0.0,0.0,0.0,0.0,0.0,0.0,0.0,0.0,0.0,0.0,0.0,0.0,0.0,0.0,0.0,0.0,0.0,0.0,0.0,0.0,0.0,0.0,0.0,0.0,0.0,0.0,0.0,0.0,0.0,0.0,0.0,0.0,0.0,0.0,0.0,0.0,0.0,0.0,0.0,0.0,0.0,0.0,0.0,0.0,0.0,0.0,0.0,0.0,0.0,0.0,0.0,0.0,0.0,0.0,0.0,0.0,0.0,0.0,0.0,1.6871,1.6481,1.6282,1.6871,1.6871,1.7268,1.8457,1.8465,1.8663,0.0,0.0,0.0,0.0,0.0,0.0,0.0,0.0,0.0,0.0,0.0,0.0,0.0,0.0,0.0,0.0,0.0,0.0,0.0,0.0,0.0,0.0,0.0,0.0,0.0,0.0,0.0,0.0,0.0,0.0,0.0,0.0,0.0,0.0,0.0,0.0,0.0,0.0,0.0,0.0,0.0,0.0,0.0,0.0,0.0,0.0,0.0,0.0,0.0,0.0,0.0,0.0,0.0,0.0,0.0,0.0,0.0,0.0,0.0,0.0,0.0,0.0,0.0,0.0,0.0,0.0,0.0,0.0,0.0,0.0,0.0,0.0,0.0,0.0,0.0,0.0,0.0,0.0,0.0,0.0,0.0,0.0,0.0,0.0,0.0,0.0,0.0,0.0,0.0,0.0,0.0,0.0,0.0,0.0,0.0,0.0,0.0,0.0,0.0,0.0,0.0,0.0,0.0,1.8036,1.8134,1.821,1.8412,1.8815,1.9025,1.9428,1.9428,1.9372,1.9443,0.0,0.0,0.0,0.0,0.0,0.0,0.0,0.0,0.0,0.0,0.0,0.0,0.0,0.0,0.0,0.0,0.0,0.0,0.0,0.0,0.0,0.0,0.0,0.0,0.0,0.0,0.0,0.0,0.0,0.0,0.0,0.0,0.0,0.0,0.0,0.0,0.0,0.0,0.0,0.0,0.0,0.0,0.0,0.0,0.0,0.0,0.0,0.0,0.0,0.0,0.0,0.0,0.0,0.0,0.0,0.0,0.0,0.0,0.0,0.0,0.0,0.0,0.0,0.0,0.0,0.0,0.0,0.0,0.0,0.0,0.0,0.0,0.0,0.0,0.0,0.0,0.0,0.0,0.0,0.0,0.0,0.0,0.0,0.0,0.0,0.0,0.0,0.0,0.0,0.0,0.0,0.0,0.0,0.0,0.0,0.0,0.0,0.0,0.0,0.0,0.0,0.0,1.8815,1.8698,1.876,1.8963,1.937,1.9581,1.9792,1.9792,1.9743,1.963,0.0,0.0,0.0,0.0,0.0,0.0,0.0,0.0,0.0,0.0,0.0,0.0,0.0,0.0,0.0,0.0,0.0,0.0,0.0,0.0,0.0,0.0,0.0,0.0,0.0,0.0,0.0,0.0,0.0,0.0,0.0,0.0,0.0,0.0,0.0,0.0,0.0,0.0,0.0,0.0,0.0,0.0,0.0,0.0,0.0,0.0,0.0,0.0,0.0,0.0,0.0,0.0,0.0,0.0,0.0,0.0,0.0,0.0,0.0,0.0,0.0,0.0,0.0,0.0,0.0,0.0,0.0,0.0,0.0,0.0,0.0,0.0,0.0,0.0,0.0,0.0,0.0,0.0,0.0,0.0,0.0,0.0,0.0,0.0,0.0,0.0,0.0,0.0,0.0,0.0,0.0,0.0,0.0,0.0,0.0,0.0,0.0,0.0,0.0,0.0,0.0,0.0,1.919,1.8595,1.861,1.901,1.9214,1.9222,1.9841,1.9841,1.9833,1.9817,0.0,0.0,0.0,0.0,0.0,0.0,0.0,0.0,0.0,0.0,0.0,0.0,0.0,0.0,0.0,0.0,0.0,0.0,0.0,0.0,0.0,0.0,0.0,0.0,0.0,0.0,0.0,0.0,0.0,0.0,0.0,0.0,0.0,0.0,0.0,0.0,0.0,0.0,0.0,0.0,0.0,0.0,0.0,0.0,0.0,0.0,0.0,0.0,0.0,0.0,0.0,0.0,0.0,0.0,0.0,0.0,0.0,0.0,0.0,0.0,1.4679,1.4692,0.0,0.0,0.0,0.0,0.0,0.0,0.0,0.0,0.0,0.0,0.0,0.0,0.0,0.0,0.0,0.0,0.0,0.0,0.0,0.0,0.0,0.0,0.0,0.0,0.0,0.0,0.0,0.0,0.0,0.0,0.0,0.0,0.0,0.0,0.0,0.0,0.0,0.0,0.0,0.0,1.9798,1.9919,1.9999,1.9999,1.9999,1.9999,2.0206,2.0206,2.015,2.0011,1.9585,0.0,0.0,0.0,0.0,0.0,0.0,0.0,0.0,0.0,0.0,0.0,0.0,0.0,0.0,0.0,0.0,0.0,0.0,0.0,0.0,0.0,0.0,0.0,0.0,0.0,0.0,0.0,0.0,0.0,0.0,0.0,0.0,0.0,0.0,0.0,0.0,0.0,0.0,0.0,0.0,0.0,0.0,0.0,0.0,0.0,0.0,0.0,0.0,0.0,0.0,0.0,0.0,0.0,0.0,0.0,0.0,0.0,0.0,0.0,1.4882,1.4848,0.0,0.0,0.0,0.0,0.0,0.0,0.0,0.0,0.0,0.0,0.0,0.0,0.0,0.0,0.0,0.0,0.0,0.0,0.0,0.0,0.0,0.0,0.0,0.0,0.0,0.0,0.0,0.0,0.0,0.0,0.0,0.0,0.0,0.0,0.0,0.0,0.0,0.0,0.0,0.0,2.019,2.0263,2.032,2.032,2.032,2.032,2.032,2.0111,1.9871,1.9783,1.9353,0.0,0.0,0.0,0.0,0.0,0.0,0.0,0.0,0.0,0.0,0.0,0.0,0.0,0.0,0.0,0.0,0.0,0.0,0.0,0.0,0.0,0.0,0.0,0.0,0.0,0.0,0.0,0.0,0.0,0.0,0.0,0.0,0.0,0.0,0.0,0.0,0.0,0.0,0.0,0.0,0.0,0.0,0.0,0.0,0.0,0.0,0.0,0.0,0.0,0.0,0.0,0.0,0.0,1.4869,1.4896,1.4903,1.5147,1.5262,1.5255,1.514,1.5086,1.5106,1.535,0.0,0.0,0.0,0.0,0.0,0.0,0.0,0.0,0.0,0.0,0.0,0.0,0.0,0.0,0.0,0.0,0.0,0.0,0.0,0.0,0.0,0.0,1.6754,1.6781,1.7106,1.7256,1.7376,0.0,0.0,0.0,0.0,0.0,0.0,0.0,0.0,0.0,0.0,0.0,2.032,2.032,2.032,2.032,2.032,2.0111,2.0111,1.9694,1.9276,1.885,1.8215,1.7789,0.0,0.0,0.0,0.0,0.0,0.0,0.0,0.0,0.0,0.0,0.0,0.0,0.0,0.0,0.0,0.0,0.0,0.0,0.0,0.0,0.0,0.0,0.0,0.0,0.0,0.0,0.0,0.0,0.0,0.0,0.0,0.0,1.4245,1.4265,0.0,0.0,0.0,0.0,0.0,0.0,0.0,0.0,0.0,0.0,0.0,0.0,0.0,1.4719,1.474,1.4997,1.5126,1.5126,1.5391,1.552,1.552,1.556,1.5581,1.5581,1.556,0.0,1.5554,1.5594,0.0,0.0,0.0,0.0,0.0,0.0,0.0,0.0,0.0,0.0,0.0,0.0,0.0,0.0,0.0,0.0,0.0,0.0,0.0,0.0,0.0,0.0,1.6781,1.6917,1.6937,1.7133,1.7154,1.7675,1.8233,1.8552,1.8574,1.8798,0.0,0.0,0.0,0.0,0.0,0.0,2.032,2.032,2.032,2.032,1.9903,1.9702,1.9702,1.9067,1.8006,1.5889,1.5258,1.4201,1.2916,1.2295,0.0,0.0,0.0,0.0,0.0,0.0,0.0,0.0,0.0,0.0,0.0,0.0,0.0,0.0,0.0,0.0,0.0,0.0,0.0,0.0,0.0,0.0,0.0,0.0,0.0,0.0,0.0,0.0,0.0,1.4258,1.4299,1.4299,1.4299,1.4333,0.0,0.0,0.0,0.0,0.0,0.0,0.0,0.0,0.0,1.4984,1.4991,1.5072,1.5242,1.5371,1.5438,1.5438,1.5574,1.5642,1.5642,1.5723,1.5757,1.5771,1.594,1.6015,1.6001,1.5832,1.5757,1.5778,0.0,0.0,0.0,0.0,1.6259,1.6327,1.6327,1.6327,1.6341,1.6408,0.0,0.0,0.0,0.0,0.0,0.0,0.0,1.6795,1.6863,1.6876,1.6897,1.7377,1.7188,1.6978,1.7398,1.7552,1.7732,1.8006,1.8649,1.9276,1.9493,1.9702,0.0,0.0,0.0,2.0111,1.9903,1.9903,1.9694,1.9477,1.9059,1.8432,1.7161,1.6531,1.5258,1.2932,1.2304,1.1671,1.1028,1.061,1.0614,0.0,0.0,0.0,0.0,0.0,0.0,0.0,0.0,0.0,0.0,0.0,0.0,0.0,0.0,0.0,0.0,0.0,0.0,0.0,0.0,0.0,0.0,0.0,0.0,0.0,0.0,0.0,0.0,1.4299,1.4312,1.4346,1.4353,1.4414,0.0,0.0,0.0,0.0,0.0,0.0,1.4848,1.4889,1.5031,1.5289,1.5303,1.5411,1.5635,1.5676,1.5696,1.5696,1.5771,1.5811,1.5818,1.5961,1.6022,1.6035,1.6266,1.6368,1.6347,1.6117,1.6022,1.6035,1.6151,1.6266,1.6368,1.6368,1.6429,1.6524,1.6524,1.6524,1.653,1.6564,1.6605,1.6639,1.6639,0.0,0.0,0.0,0.0,1.6978,1.6978,1.6978,1.7188,1.7601,1.7398,1.7398,1.7811,1.7811,1.7608,1.7601,1.8237,1.8865,1.9276,1.9694,0.0,2.032,2.032,2.0111,1.9493,1.9493,1.9276,1.8641,1.8432,1.7587,1.5258,1.4628,1.2937,1.0183,0.9557,0.9137,0.8501,0.8501,0.8501,0.8501,0.0,0.0,0.0,0.0,0.0,0.0,0.0,0.0,0.0,0.0,0.0,0.0,0.0,0.0,0.0,0.0,0.0,0.0,0.0,0.0,0.0,0.0,0.0,0.0,0.0,0.0,0.0,0.0,0.0,1.4482,1.4502,0.0,0.0,0.0,0.0,1.474,1.4875,1.5018,1.5153,1.5296,1.5452,1.5608,1.5615,1.5622,1.5642,1.5778,1.5845,1.5845,1.6137,1.6279,1.6279,1.6422,1.649,1.649,1.6503,1.651,1.651,1.6497,1.649,1.649,1.6497,1.6503,1.651,1.651,1.6517,1.6524,1.6524,1.6524,1.6544,1.6693,1.6836,1.6958,1.6958,1.6965,0.0,0.0,1.6978,1.6978,1.6978,1.6978,1.7188,1.7601,1.7811,1.7811,1.8432,1.9067,1.8865,1.7398,1.7188,1.7398,1.8432,0.0,1.9059,2.0111,2.032,2.0111,1.9493,1.9493,1.9276,1.8641,1.8222,1.6965,1.4633,1.3996,1.1671,0.7228,0.7016,0.5957,0.3837,0.3837,0.3837,0.3837,0.3837,0.0,0.0,0.0,0.0,0.0,0.0,0.0,0.0,0.0,0.0,0.0,0.0,0.0,0.0,0.0,0.0,0.0,0.0,0.0,0.0,0.0,0.0,0.0,0.0,0.0,0.0,0.0,0.0,1.4509,1.4597,0.0,1.4875,1.4889,1.4964,1.5153,1.5221,1.5316,1.5466,1.5527,1.5628,1.5771,1.5778,1.5872,1.6069,1.6123,1.6191,1.6286,1.6395,1.6442,1.6449,1.6497,1.6524,1.6524,1.6625,1.6666,1.6673,1.6775,1.67,1.6524,1.6524,1.6578,1.6666,1.6666,1.6734,1.6815,1.6815,1.6815,1.6822,1.6883,1.6937,1.6978,1.6978,1.6978,1.6978,1.6978,1.6978,1.6978,1.6978,1.6978,1.7188,1.8013,1.802,1.8049,1.9197,1.9227,1.8835,1.8095,1.8579,1.9067,1.9067,1.9485,1.9935,2.0483,2.007,1.9688,1.9379,1.8969,1.8536,1.7896,1.6389,1.4451,1.2082,1.0363,0.7997,0.4766,0.4766,0.4335,0.3469,0.3469,0.3469,0.3469,0.3469,0.3469,0.0,0.0,0.0,0.0,0.0,0.0,0.0,0.0,0.0,0.0,0.0,0.0,0.0,0.0,0.0,0.0,0.0,0.0,0.0,0.0,0.0,0.0,0.0,0.0,0.0,1.4496,1.4611,1.4658,1.4753,1.4896,1.5099,1.512,1.5221,1.5466,1.5486,1.5554,1.5703,1.571,1.5805,1.6001,1.6008,1.613,1.6381,1.6381,1.6429,1.6524,1.6571,1.6598,1.6598,1.6653,1.668,1.668,1.6781,1.6829,1.6836,1.6937,1.6863,1.668,1.668,1.6741,1.6829,1.6829,1.689,1.6978,1.6978,1.6978,1.6978,1.6978,1.6978,1.6978,1.6978,1.6978,1.6978,1.6978,1.6978,1.6992,1.7039,1.7264,1.7699,1.8587,1.8601,1.8842,2.0009,1.9828,1.9433,1.9325,1.9387,1.9446,1.9235,1.9446,1.9695,2.0245,1.9828,1.944,1.9126,1.8711,1.7843,1.6334,1.481,1.2635,0.9592,0.7855,0.5896,0.3721,0.3502,0.3502,0.3502,0.3502,0.3502,0.3502,0.3502,0.3502,0.3283,0.0,0.0,0.0,0.0,0.0,0.0,0.0,0.0,0.0,0.0,0.0,0.0,0.0,0.0,0.0,0.0,0.0,0.0,0.0,0.0,0.0,0.0,0.0,1.4536,1.4652,1.4801,1.4957,1.4984,1.5099,1.5391,1.5418,1.5479,1.5635,1.5649,1.571,1.5859,1.5866,1.6008,1.6307,1.632,1.6381,1.6524,1.653,1.653,1.6537,1.6686,1.6754,1.6761,1.691,1.6978,1.6978,1.6978,1.6978,1.6978,1.6978,1.6978,1.6978,1.6978,1.6978,1.6978,1.6978,1.6978,1.6978,1.6978,1.6978,1.6978,1.6978,1.6978,1.6978,1.6978,1.6985,1.6985,1.6985,1.6992,1.7026,1.7161,1.7627,1.8308,1.8889,1.957,2.0213,2.065,2.0864,2.0864,2.0872,1.9578,1.8288,1.828,1.8273,1.8711,1.9792,1.9363,0.0,1.894,1.851,1.6988,1.4166,1.3733,1.1777,0.7207,0.6774,0.5903,0.3725,0.3506,0.3506,0.3506,0.3506,0.3506,0.3506,0.3506,0.3287,0.2629,0.0,0.0,0.0,0.0,0.0,0.0,0.0,0.0,0.0,0.0,0.0,0.0,0.0,0.0,0.0,0.0,0.0,0.0,0.0,0.0,0.0,1.4835,1.4855,1.4699,1.4808,1.4964,1.5106,1.5221,1.5364,1.556,1.5574,1.5635,1.5784,1.5791,1.5906,1.6171,1.6185,1.6273,1.6456,1.6463,1.6537,1.6686,1.6686,1.6741,1.6856,1.6897,1.6917,1.6917,1.6958,1.6978,1.6978,1.6978,1.6978,1.6978,1.6978,1.6978,1.6978,1.6978,1.6978,1.6978,1.6978,1.6978,1.6978,1.6978,1.6978,1.6978,1.6978,1.6978,1.6978,1.6978,1.7053,1.7134,1.7134,1.7216,1.7311,1.7351,1.7573,1.7801,1.8266,1.8926,1.9608,2.0163,2.0835,2.0875,2.056,2.0139,1.9852,1.9608,1.914,1.897,1.9514,1.9102,1.8051,1.6388,1.5741,1.442,1.1767,0.9997,0.8443,0.712,0.5562,0.423,0.3565,0.3565,0.3565,0.3565,0.3565,0.3565,0.3565,0.3119,0.2897,0.0,0.0,0.0,0.0,0.0,0.0,0.0,0.0,0.0,0.0,0.0,0.0,0.0,0.0,0.0,0.0,0.0,0.0,0.0,0.0,0.0,0.0,1.5099,1.5147,1.512,1.514,1.5208,1.5357,1.5452,1.5567,1.5716,1.573,1.5818,1.6029,1.6042,1.6151,1.6388,1.6395,1.6463,1.6612,1.6619,1.6693,1.6842,1.6842,1.689,1.6978,1.6978,1.6978,1.6978,1.6978,1.6978,1.6978,1.6978,1.6978,1.6978,1.6978,1.6978,1.6978,0.0,0.0,0.0,0.0,1.6978,1.6978,1.6978,1.6978,1.6992,1.7053,1.7066,1.708,1.7148,1.7222,1.729,1.729,1.7351,1.7433,1.75,1.7731,1.7961,1.8458,1.8915,1.9372,1.9913,2.0139,2.0388,2.0278,1.9845,0.0,1.9596,1.9132,1.8726,1.7704,1.7059,1.5979,1.4049,1.3177,1.1848,0.9393,0.8082,0.6752,0.586,0.4524,0.0,0.0,0.0,0.3628,0.3628,0.3614,0.0,0.0,0.0,0.2467,0.2019,0.1568,0.0,0.0,0.1546,0.1763,0.0,0.0,0.0,0.0,0.0,0.0,0.0,0.0,0.0,0.0,0.0,0.0,0.0,0.0,0.0,0.0,1.5438,1.5493,1.5642,1.5547,1.5513,1.5649,1.5662,1.5716,1.5866,1.5893,1.6015,1.6286,1.6327,1.6395,1.6537,1.6544,0.0,0.0,0.0,1.6842,1.6978,1.6978,1.6978,1.6978,1.6978,1.6978,1.6978,1.6978,1.6978,1.6978,1.6978,1.6978,1.6978,1.6978,1.6992,1.7005,1.6985,1.6992,1.7005,1.7005,1.7019,1.7032,1.7032,0.0,0.0,1.7175,1.7216,1.7243,1.7378,1.7433,1.7446,1.7446,1.746,1.75,1.7629,1.81,1.8368,1.8494,1.8971,1.9405,1.9405,1.9632,1.9632,1.9632,1.9192,1.8757,1.8336,1.8316,1.7411,1.5395,1.452,1.3192,1.1407,1.0751,0.9418,0.6964,0.6783,0.0,0.3866,0.3667,0.3681,0.3681,0.3681,0.3681,0.3681,0.3656,0.3184,0.2728,0.2484,0.2025,0.0901,0.0907,0.0455,0.0,0.1121,0.1565,0.0,0.0,0.0,0.0,0.0,0.0,0.0,0.0,0.0,0.0,0.0,0.0,0.0,0.0,0.0,1.5588,1.5594,1.5642,1.5791,1.5784,1.5778,1.5811,1.5811,1.5872,1.6022,1.6151,1.6246,1.6307,1.6415,1.6544,1.67,1.6707,1.6775,1.6931,1.6937,1.6951,1.6978,1.6978,1.6978,1.6978,1.6978,0.0,1.6978,1.6978,1.6978,1.6978,1.6978,1.6978,1.6978,1.6978,1.7046,1.7141,1.7026,1.7053,1.7154,1.7154,1.7229,1.7338,1.7338,1.7338,1.7338,1.7365,1.7378,1.7385,1.7412,1.7507,0.0,1.7602,1.7684,1.7792,1.7812,1.8033,1.8053,1.8074,1.853,1.8757,1.8757,1.9199,1.9632,1.9632,1.9405,1.8772,1.6206,1.5471,1.4958,1.452,1.281,1.0608,0.8356,0.7956,0.7077,0.4575,0.4354,0.413,0.367,0.3677,0.3681,0.3681,0.3681,0.3681,0.3681,0.3214,0.2753,0.2752,0.1832,0.1144,0.0916,0.0459,0.0,0.0,0.0229,0.0457,0.0,0.0,0.0,0.0,0.0,0.0,0.0,0.0,0.0,0.0,0.0,1.5527,1.5527,0.0,1.5662,1.5737,1.5744,1.5798,1.5947,1.6035,1.6056,1.5974,1.6035,1.611,1.6191,1.6327,1.6449,1.6524,1.6592,1.67,1.6856,1.6863,1.6904,1.6978,1.6978,1.6978,1.6978,1.6978,1.6978,1.6978,1.6978,1.6978,1.6978,1.6978,1.6978,1.6985,1.706,1.7087,1.7093,1.7168,1.7243,1.7297,1.7229,1.7243,1.7304,1.7304,1.7358,1.7419,1.7419,1.7419,1.7433,1.7507,1.7534,1.7548,1.7623,1.7704,1.7758,1.7758,1.7812,1.786,1.786,1.786,1.786,1.786,1.8088,1.8316,1.8316,1.7632,1.6969,1.6969,1.5898,1.4619,1.3333,1.1758,1.064,1.064,0.9766,0.8208,0.5705,0.5497,0.5058,0.3911,0.3694,0.3705,0.3705,0.3719,0.3726,0.3726,0.3726,0.3493,0.326,0.3015,0.2547,0.1852,0.1152,0.069,0.046,0.0231,0.0,0.0,0.0,0.0,0.0,0.0,0.0,0.0,0.0,0.0,0.0,1.5343,1.5452,1.5452,1.5574,1.5683,1.5683,1.5703,1.5764,1.5879,1.59,1.5954,1.6103,1.6232,1.6273,1.6178,1.6279,1.6347,1.6347,1.6483,1.6619,1.6741,1.6781,1.6849,1.6971,1.6978,1.6978,1.6978,1.6978,1.6978,1.6978,1.6978,1.6978,1.6978,1.6978,1.6978,1.6985,1.7012,1.7019,1.7032,1.7175,1.7236,1.7249,1.7399,1.7467,1.7467,1.7494,1.7507,1.75,1.7473,1.748,1.7507,1.7507,1.7507,1.7528,1.765,1.7684,1.7717,1.7826,1.786,1.786,1.786,1.786,1.786,1.786,1.786,1.786,1.786,1.786,1.786,1.7197,1.5622,1.4081,1.3658,1.2167,1.0652,1.0234,0.847,0.7125,0.7112,0.6895,0.5754,0.3918,0.3694,0.3699,0.3699,0.3719,0.3737,0.3737,0.3757,0.3771,0.3535,0.3535,0.33,0.2593,0.2576,0.1868,0.0934,0.0696,0.0462,0.0,0.0,0.0,0.0,0.0,0.0,1.4903,1.5038,1.5133,1.5153,1.5262,1.5364,0.0,1.5506,1.5615,1.5615,1.573,1.5832,1.5832,1.594,1.6035,1.6056,1.6056,1.611,1.6259,1.63,1.6347,1.6463,1.649,1.6497,1.6497,1.6632,1.6734,1.6748,1.6876,1.6965,1.6978,1.6978,1.6978,1.6978,1.6978,1.6978,1.6978,1.6978,1.6978,1.6978,1.6978,1.6978,1.6985,1.7114,1.7168,1.7175,1.7331,1.7392,1.7405,1.7561,1.7623,1.7629,1.7758,1.7812,1.7792,1.767,1.7704,1.7812,1.7812,1.7812,1.7812,1.7826,1.7846,1.7846,1.786,1.786,1.786,1.786,1.786,1.786,1.786,1.786,1.786,1.786,1.786,1.7418,1.5185,1.452,1.3658,1.1507,1.1082,1.0231,0.8087,0.742,0.7172,0.712,0.5319,0.3951,0.3723,0.3744,0.3761,0.3761,0.3764,0.3768,0.3768,0.3768,0.3535,0.3064,0.2828,0.2593,0.2121,0.1412,0.0942,0.0942,0.047,0.0,0.0,0.0,0.0,0.0,0.0,0.0,1.5052,1.5269,1.5425,1.5337,1.5432,1.5547,1.5547,1.5655,1.5764,1.5764,1.5879,1.5988,1.5988,1.6035,1.611,1.6198,1.6218,1.6266,1.6415,1.651,1.6585,1.6646,1.6734,1.6754,1.6666,1.6795,1.6883,1.6883,1.6944,1.6978,1.6978,1.6978,1.6978,1.6978,1.6978,1.6978,1.6978,1.6978,1.6978,1.6978,1.6978,1.7026,1.7107,1.7168,1.729,1.746,1.7528,1.7602,1.7684,1.7738,1.7772,1.7772,1.7846,1.786,1.786,1.7792,1.7812,1.786,1.786,1.786,1.786,1.786,1.786,1.786,1.786,1.786,1.786,1.786,1.786,1.7632,1.6077,1.585,1.5413,1.4065,1.3632,1.3404,1.2511,1.1214,0.9918,0.8827,0.7536,0.6458,0.5343,0.5139,0.515,0.513,0.4447,0.3754,0.3754,0.3764,0.3772,0.3772,0.3535,0.33,0.33,0.2828,0.2593,0.2356,0.2356,0.1885,0.1414,0.0943,0.0707,0.0471,0.0236,0.0,0.0,0.0,0.0,0.0,0.0,0.0,1.5282,1.5472,1.5615,1.5499,1.5588,1.5696,1.5696,1.5811,1.592,1.592,1.6001,1.6096,1.6137,1.6144,1.6191,1.6341,1.6368,1.6422,1.6564,1.668,1.6768,1.6809,1.691,1.6937,1.6822,1.6917,1.6978,1.6978,1.6978,1.6978,1.6978,1.6978,1.6978,1.6978,1.6978,1.6978,1.6978,1.6978,1.6978,1.6978,1.6978,1.7053,1.7195,1.7283,1.7028,1.6595,1.6595,1.6432,1.585,1.585,1.585,1.585,1.585,1.585,1.585,1.585,1.6741,1.786,1.7197,1.7424,1.786,1.786,1.786,1.786,1.786,1.7424,1.6969,1.6969,1.6526,1.5413,1.3854,1.3399,1.296,1.118,1.073,1.0516,0.9869,0.835,0.7038,0.6386,0.4846,0.373,0.3737,0.3757,0.3772,0.3772,0.3535,0.3535,0.3771,0.3535,0.3535,0.3535,0.2828,0.2593,0.2593,0.2121,0.1885,0.1649,0.1649,0.1414,0.0707,0.0708,0.0473,0.0,0.0,0.0,0.0,0.0,-0.0476,-0.0957,-0.0957,-0.1439,1.5622,1.5635,1.5635,1.5635,1.5744,1.5845,1.5845,1.5967,1.6076,1.6076,1.6076,1.613,1.6273,1.63,1.6347,1.649,1.6517,1.6571,1.672,1.6748,1.6802,1.6958,1.6978,1.6978,1.6971,1.6978,1.6978,1.6978,1.6978,1.6978,1.6978,1.6978,1.6978,1.6978,1.6978,1.6978,1.6978,1.6978,1.6978,1.6978,1.6978,1.7053,1.7202,1.75,1.6382,1.4292,1.4292,1.3177,1.0957,1.0957,1.0957,1.0957,1.0957,1.0957,1.0957,1.0957,1.3843,1.7632,1.5185,1.585,1.786,1.786,1.786,1.786,1.786,1.6305,1.452,1.452,1.2738,1.0957,1.073,1.073,1.073,1.073,1.073,1.0085,0.7911,0.7251,0.6607,0.4173,0.3726,0.3737,0.3764,0.3772,0.3772,0.3772,0.33,0.3064,0.3771,0.33,0.2828,0.2828,0.2356,0.1885,0.1885,0.1885,0.1649,0.0943,0.0943,0.0707,0.0,0.0,0.0,0.0,0.0,0.0,0.0,0.0,-0.1204,-0.3851,-0.3851,-0.5293,1.5669,1.5784,1.5906,1.5805,1.5893,1.6001,1.6001,1.6042,1.6083,1.6083,1.6164,1.6246,1.63,1.6388,1.6497,1.6646,1.6673,1.6727,1.6883,1.6904,1.6924,1.6978,1.6978,1.6978,1.6978,1.6978,1.6978,1.6978,1.6978,1.6978,1.6978,1.6978,1.6978,1.6978,1.6978,1.6978,1.6978,1.6978,1.6978,1.6985,1.7182,1.6479,1.509,1.526,1.4038,1.1848,1.1848,1.1398,1.073,1.073,1.073,1.073,1.073,1.073,1.0508,0.895,1.0281,1.295,1.2284,1.2511,1.3177,1.3177,1.3177,1.3177,1.3177,1.2511,1.1848,1.1848,1.1394,1.0281,0.8727,0.8284,0.8057,0.6269,0.605,0.5838,0.4985,0.4787,0.4594,0.3951,0.3276,0.3055,0.3061,0.2828,0.2593,0.2593,0.2593,0.2828,0.2593,0.2356,0.2121,0.2121,0.1649,0.1178,0.1178,0.0947,0.0475,0.0238,0.0239,0.0239,0.0,0.0,0.0,0.0,0.0,0.0,0.0,-0.1688,-0.314,-0.3884,-0.5816,-0.7044,1.5818,1.5934,1.6056,1.5961,1.6008,1.6083,1.6083,1.6123,1.6164,1.6164,1.6279,1.6402,1.6456,1.6544,1.6653,1.6809,1.6829,1.687,1.6965,1.6978,1.6978,1.6978,1.6978,1.6978,1.6978,1.6978,1.6978,1.6978,1.6978,1.6978,1.6978,1.6978,1.6978,1.6978,1.6978,1.6978,1.6978,1.6978,1.6578,1.5779,1.6005,1.4873,1.2797,1.2901,1.1621,0.939,0.939,0.895,0.806,0.806,0.806,0.806,0.806,0.806,0.8057,0.6493,0.6943,0.8274,0.9174,1.0066,1.073,1.073,1.073,1.073,1.073,1.0066,0.939,0.939,0.8727,0.7834,0.6277,0.5826,0.5601,0.4039,0.3589,0.36,0.3643,0.3437,0.346,0.3266,0.2818,0.2593,0.2593,0.2121,0.1885,0.1649,0.1885,0.2121,0.1885,0.1649,0.1651,0.1655,0.0947,0.0474,0.0475,0.0239,0.0,0.0,0.0,0.0,0.0,0.0,-0.0484,-0.1453,-0.1457,-0.1944,-0.2914,-0.4612,-0.5839,-0.6844,-0.8552,-0.9798,1.6083,1.6083,1.6083,1.6083,1.6083,1.6083,1.609,1.6205,1.6313,1.632,1.6435,1.6578,1.672,1.6754,1.6809,1.6958,1.6978,1.6978,1.6978,1.6978,1.6978,1.6978,1.6978,1.6978,1.6978,1.6978,1.6978,1.6978,1.6978,1.6978,1.6978,1.6978,1.6978,1.6978,1.6978,1.6978,1.6978,1.6978,1.5773,1.3551,1.3669,1.2476,1.0384,1.0464,0.9177,0.6943,0.6943,0.5826,0.3589,0.3589,0.3589,0.3589,0.3589,0.3589,0.3589,0.3589,0.3589,0.4039,0.6274,0.8501,1.0281,1.0281,1.0281,1.0281,1.0281,0.8727,0.6943,0.6943,0.5383,0.3589,0.3589,0.3589,0.3589,0.3589,0.3589,0.3607,0.3667,0.322,0.2775,0.282,0.2356,0.1885,0.1885,0.1885,0.1649,0.0943,0.0943,0.1178,0.1649,0.1178,0.0946,0.0953,0.0238,0.0,0.0,0.0,0.0,0.0,0.0,0.0,-0.0242,-0.0243,-0.1465,-0.4144,-0.4174,-0.5418,-0.7875,-0.8121,-0.9348,-1.1813,-1.2062,-1.3292,1.6083,1.6083,1.6083,1.6083,1.6083,1.611,1.6225,1.6279,1.6341,1.6442,1.6585,1.6707,1.6741,1.6842,1.6937,1.6971,1.6978,1.6978,1.6978,1.6978,1.6978,1.6978,1.6978,1.6978,1.6978,1.6978,1.6978,1.6978,1.6978,1.6978,1.6978,1.6978,1.6978,1.6978,1.6978,1.6978,1.6978,1.5277,1.4326,1.3896,1.2187,1.0109,0.8036,0.8051,0.6719,0.4485,0.4485,0.4264,0.3589,0.3589,0.3589,0.3589,0.3589,0.3589,0.3589,0.3589,0.3589,0.3589,0.4259,0.4933,0.5377,0.5377,0.5377,0.5377,0.5377,0.4933,0.4485,0.4485,0.4039,0.3589,0.3589,0.3589,0.3589,0.3589,0.3607,0.3407,0.2984,0.2773,0.2561,0.2117,0.1649,0.0943,0.0471,0.0471,0.0471,0.0236,0.0236,0.0236,0.0471,0.0237,0.0238,0.0238,0.0,0.0,0.0,0.0,0.0,0.0,0.0,-0.0982,-0.2941,-0.2946,-0.4179,-0.6868,-0.6887,-0.714,-0.7875,-0.9842,-1.1073,-1.1813,-1.3863,-1.513,1.6083,1.6083,1.6083,1.6083,1.6083,1.6123,1.6273,1.6361,1.6442,1.6592,1.6741,1.6849,1.6849,1.6924,1.6978,1.6978,1.6978,1.6978,1.6978,1.6978,1.6978,1.6978,1.6978,1.6978,1.6978,1.6978,1.6978,1.6978,1.6978,1.6978,1.6978,1.6978,1.6978,1.6978,1.6768,1.592,1.4856,1.358,1.1987,1.0019,0.8716,0.7041,0.5153,0.5153,0.4709,0.3589,0.3589,0.3589,0.3589,0.3589,0.3589,0.3589,0.3589,0.3589,0.3589,0.3589,0.3589,0.3589,0.3589,0.3589,0.3589,0.3589,0.3589,0.3589,0.3589,0.3589,0.3589,0.3589,0.3589,0.3589,0.3589,0.3589,0.3589,0.3589,0.3614,0.3415,0.2755,0.2547,0.2101,0.1176,0.0707,0.0471,0.0,0.0,0.0,0.0,0.0,0.0,0.0,0.0,0.0,0.0,-0.0967,-0.1698,-0.1704,-0.1712,-0.2205,-0.3428,-0.2459,-0.2959,-0.5664,-0.5664,-0.6894,-0.9594,-0.9594,-1.0098,-1.1369,-1.285,-1.3626,-1.3672,-1.5223,-1.6005,1.6083,1.6083,1.6083,1.6083,1.6096,1.6151,1.63,1.6449,1.6598,1.6748,1.689,1.6978,1.6978,1.6978,1.6978,1.6978,1.6978,1.6978,1.6978,1.6978,1.6978,1.6978,1.6978,1.6978,1.6978,1.6978,1.6978,1.6978,1.6978,1.6978,1.6978,1.6978,1.6978,1.6978,1.592,1.4429,1.1887,1.1249,0.8996,0.5018,0.48,0.3969,0.2692,0.2692,0.2917,0.3589,0.3589,0.3589,0.3589,0.3589,0.3589,0.3589,0.3589,0.3589,0.3589,0.3589,0.3589,0.3589,0.3589,0.3589,0.3589,0.3589,0.3589,0.3589,0.3589,0.3589,0.3589,0.3589,0.3589,0.3589,0.3589,0.3589,0.3589,0.3589,0.3618,0.3421,0.2755,0.2085,0.1168,0.0235,0.0,0.0,0.0,0.0,0.0,0.0,0.0,0.0,0.0,0.0,-0.024,-0.0487,-0.244,-0.416,-0.4432,-0.4435,-0.5418,-0.7872,-0.5664,-0.5664,-0.8366,-0.8369,-0.9604,-1.232,-1.232,-1.3598,-1.5951,-1.5951,-1.6005,-1.6108,-1.6119,-1.6135,1.6083,1.6083,1.6083,1.6083,1.6178,1.6307,1.6449,1.6605,1.6754,1.691,1.6965,1.6978,1.6978,1.6978,1.6978,1.6978,1.6978,1.6978,1.6978,1.6978,1.6978,1.6978,1.6978,1.6978,1.6978,1.6978,1.6978,1.6978,1.6978,1.6978,1.6978,1.6978,1.6768,1.6341,1.3797,1.2309,1.1887,0.8071,0.579,0.5018,0.3277,0.2208,0.2021,0.2467,0.2692,0.2917,0.3365,0.3589,0.3589,0.3589,0.3589,0.3589,0.3589,0.3589,0.3589,0.3589,0.3589,0.3589,0.3589,0.3589,0.3589,0.3589,0.3589,0.3589,0.3589,0.3589,0.3589,0.3589,0.3589,0.3589,0.3589,0.3589,0.3589,0.3589,0.3178,0.2755,0.207,0.1164,0.0235,0.0,0.0,0.0,0.0,0.0,0.0,0.0,0.0,0.0,0.0,0.0,-0.073,-0.2922,-0.3676,-0.4675,-0.714,-0.714,-0.7381,-0.7875,-0.7381,-0.8369,-1.1069,-1.1069,-1.2345,-1.5156,-1.5156,-1.545,-1.6076,-1.6076,-1.6092,-1.6108,-1.6206,-1.626,1.6083,1.6083,1.6083,1.6083,1.6198,1.6347,1.649,1.6639,1.6795,1.6951,1.6978,1.6978,1.6978,1.6978,1.6978,1.6978,1.6978,1.6978,1.6978,1.6978,1.6978,1.6978,1.6978,1.6978,1.6978,1.6768,1.6558,1.6558,1.6341,1.6341,1.6558,1.5066,1.358,1.1666,1.0399,0.8914,0.7435,0.5315,0.3649,0.2402,0.1312,0.1104,0.1347,0.1572,0.2019,0.2692,0.2917,0.3365,0.3589,0.3589,0.3589,0.3589,0.3589,0.3589,0.3589,0.3589,0.3589,0.3589,0.3589,0.3589,0.3589,0.3589,0.3589,0.3589,0.3589,0.3589,0.3589,0.3589,0.3589,0.3589,0.3589,0.3589,0.3594,0.3159,0.2516,0.1622,0.1397,0.0703,0.0,0.0,0.0,0.0,0.0,0.0,0.0,0.0,-0.1192,-0.1922,-0.1937,-0.3171,-0.4167,-0.3922,-0.6389,-0.8615,-0.9842,-0.9842,-1.0586,-1.1804,-1.082,-1.1092,-1.3863,-1.3863,-1.4651,-1.6021,-1.6021,-1.6076,-1.6206,-1.6206,-1.6233,-1.6304,-1.6358,-1.6385,1.6083,1.6083,1.6083,1.6083,1.6218,1.6381,1.6497,1.6666,1.6836,1.6958,1.6978,1.6978,1.6978,1.6978,1.6978,1.6978,1.6978,1.6978,1.6978,1.6978,1.6978,1.6978,1.6978,1.6978,1.6768,1.5914,1.5277,1.5277,1.4218,1.4007,1.5066,1.252,0.9976,0.7644,0.7008,0.5738,0.3405,0.298,0.1719,0.0,0.0,0.0221,0.0673,0.0898,0.1572,0.2467,0.2692,0.3141,0.3589,0.3589,0.3589,0.3589,0.3589,0.3589,0.3589,0.3589,0.3589,0.3589,0.3589,0.3589,0.3589,0.3589,0.3589,0.3589,0.3589,0.3589,0.3589,0.3589,0.3589,0.3589,0.3589,0.3589,0.315,0.2499,0.1613,0.0933,0.0706,0.0236,0.0,0.0,0.0,0.0,0.0,-0.0471,-0.0708,-0.0952,-0.3115,-0.4829,-0.4863,-0.7103,-0.8121,-0.6152,-0.9348,-1.2062,-1.2793,-1.2797,-1.3777,-1.5755,-1.4051,-1.3848,-1.5923,-1.5951,-1.6021,-1.6146,-1.6146,-1.6206,-1.6573,-1.6573,-1.6634,-1.6978,-1.6717,-1.6734,1.6083,1.6083,1.6083,1.6083,1.6293,1.6503,1.6517,1.6748,1.6965,1.6978,1.6978,1.6978,1.6978,1.6978,1.6978,1.6978,1.6978,1.6978,1.6978,1.6978,1.6978,1.6978,1.6978,1.6768,1.6341,1.4207,1.2721,1.2309,0.976,0.9549,1.2098,0.9549,0.7852,0.7641,0.5101,0.3617,0.3405,0.1278,0.0215,0.0,0.0,0.0,0.0,0.0673,0.1347,0.2021,0.2467,0.3141,0.3589,0.3589,0.3589,0.3589,0.3589,0.3589,0.3589,0.3589,0.3589,0.3589,0.3589,0.3589,0.3589,0.3589,0.3589,0.3589,0.3589,0.3589,0.3589,0.3589,0.3589,0.3589,0.3589,0.3141,0.2477,0.1373,0.0925,0.07,0.0235,0.0,0.0,0.0,0.0,0.0,0.0,-0.1884,-0.3539,-0.3565,-0.5749,-0.7479,-0.7531,-1.0283,-1.2286,-1.2049,-1.1804,-1.3042,-1.5988,-1.6227,-1.6471,-1.6721,-1.6591,-1.6165,-1.5923,-1.6037,-1.6146,-1.6277,-1.6277,-1.6579,-1.7471,-1.7471,-1.7732,-1.8242,-1.7744,-1.7483,1.6083,1.6083,1.6083,1.6083,1.63,1.6524,1.6524,1.6761,1.6978,1.6978,1.6978,1.6978,1.6978,1.6978,1.6978,1.6978,1.6978,1.6978,1.6978,1.6978,1.6978,1.6978,1.5487,1.4417,1.3996,1.1451,0.9337,0.8921,0.6586,0.5525,0.6799,0.5738,0.4465,0.2977,0.1916,0.1278,0.1278,0.0426,0.0,0.0,0.0,0.0,0.0,0.0224,0.0673,0.1347,0.1796,0.2467,0.3141,0.3365,0.3589,0.3589,0.3589,0.3589,0.3589,0.3589,0.3589,0.3589,0.3589,0.3589,0.3589,0.3589,0.2692,0.1792,0.3141,0.3589,0.3589,0.3589,0.2467,0.1344,0.0896,0.0226,-0.0228,0.0693,0.0699,-0.0235,-0.1882,-0.2354,-0.2823,-0.4231,-0.4468,-0.4468,-0.4468,-0.541,-0.6139,-0.6218,-0.8634,-1.0622,-1.0756,-1.3739,-1.5738,-1.5738,-1.5494,-1.5988,-1.7221,-1.7209,-1.7239,-1.7316,-1.7381,-1.7482,-1.7381,-1.7445,-1.7533,-1.7656,-1.7656,-1.7685,-1.7993,-1.7993,-1.8254,-1.8497,-1.8254,-1.7993,1.6083,1.6083,1.6083,1.6083,1.63,1.6524,1.6524,1.6761,1.6978,1.6978,1.6978,1.6978,1.6978,1.6978,1.6978,1.6978,1.6978,1.6978,1.6978,1.6341,1.5914,1.5914,1.3575,1.1877,1.1451,0.8276,0.595,0.4892,0.3405,0.2341,0.2341,0.2341,0.1704,0.0,0.0,0.0,0.0,0.0,0.0,0.0,0.0,0.0,0.0,0.0,0.0224,0.0898,0.1572,0.2245,0.2692,0.3365,0.3589,0.3589,0.3589,0.3589,0.3589,0.3589,0.3589,0.3589,0.2692,0.2467,0.2467,0.1792,0.0224,-0.0672,0.0896,0.1568,0.1568,0.1568,0.0224,-0.1568,-0.2021,-0.2951,-0.3451,-0.1856,-0.1871,-0.2823,-0.4468,-0.4938,-0.541,-0.7046,-0.7518,-0.7518,-0.7518,-0.8218,-0.8973,-0.9115,-1.2014,-1.4005,-1.4237,-1.6471,-1.794,-1.794,-1.819,-1.819,-1.794,-1.794,-1.8008,-1.8139,-1.8182,-1.8312,-1.8295,-1.8338,-1.8405,-1.8497,-1.8497,-1.8503,-1.8764,-1.8764,-1.9019,-1.9007,-1.8764,-1.8764,1.6083,1.6083,1.6083,1.6083,1.63,1.6524,1.6524,1.6761,1.6978,1.6978,1.6978,1.6978,1.6978,1.6978,1.6978,1.6978,1.6978,1.6978,1.6978,1.5066,1.3575,1.3575,1.1676,0.9768,0.8706,0.5528,0.2554,0.0213,0.0,0.0,0.0,0.0,0.0,0.0,0.0,0.0,0.0,0.0,0.0,0.0,0.0,0.0,0.0,0.0,0.0224,0.0898,0.1572,0.2245,0.2692,0.3365,0.3589,0.3589,0.3589,0.3589,0.3589,0.3589,0.3589,0.3365,0.0896,0.0,-0.0448,-0.2687,-0.3583,-0.3583,-0.3583,-0.3583,-0.3583,-0.3583,-0.4032,-0.4709,-0.543,-0.5922,-0.6429,-0.718,-0.7474,-0.7518,-0.7518,-0.7518,-0.7518,-0.7518,-0.7518,-0.7518,-0.7518,-1.0096,-1.2271,-1.2466,-1.5136,-1.7391,-1.7672,-1.819,-1.8677,-1.8677,-1.9164,-1.9408,-1.8677,-1.8677,-1.8742,-1.8877,-1.9026,-1.8917,-1.8308,-1.8436,-1.8497,-1.8497,-1.8497,-1.8764,-1.9528,-1.9528,-1.9776,-2.0539,-1.9776,-1.9528,1.6083,1.6083,1.6083,1.6083,1.63,1.6524,1.6524,1.6761,1.6978,1.6978,1.6978,1.6978,1.6978,1.6978,1.6978,1.6978,1.6978,1.6551,1.485,1.3785,1.251,1.0822,0.7855,0.5101,0.2979,0.1704,0.0852,0.0,0.0,0.0,0.0,0.0,0.0,0.0,0.0,0.0,0.0,0.0,0.0,0.0,0.0,0.0,0.0,0.0,0.0,0.0224,0.0898,0.1572,0.2021,0.2692,0.3141,0.3589,0.3589,0.3589,0.3365,0.1793,0.112,0.0896,-0.1568,-0.2462,-0.2686,-0.3359,-0.4703,-0.6046,-0.6046,-0.4929,-0.4032,-0.6039,-0.7188,-0.7686,-0.8438,-0.9196,-0.9264,-0.7943,-0.7504,-0.799,-0.9624,-1.0096,-1.0567,-1.2214,-1.2915,-1.3372,-1.3372,-1.4549,-1.5571,-1.5818,-1.7049,-1.8109,-1.8389,-1.8927,-1.9408,-1.9408,-1.9657,-1.9657,-1.9408,-1.9495,-1.9615,-1.9776,-1.993,-1.9813,-1.9711,-1.9757,-1.9776,-1.9776,-1.9776,-2.0031,-2.0292,-2.0292,-2.0278,-2.0539,-2.0278,-2.0292,1.6083,1.6083,1.6083,1.6083,1.63,1.6524,1.6524,1.6761,1.6978,1.6978,1.6978,1.6978,1.6978,1.6978,1.6978,1.6978,1.6341,1.5066,1.3569,1.1451,0.9122,0.6799,0.4465,0.2341,0.0426,0.0213,0.0,0.0,0.0,0.0,0.0,0.0,0.0,0.0,0.0,0.0,0.0,0.0,0.0,0.0,0.0,0.0,0.0,0.0,0.0,0.0,0.0673,0.1122,0.0,0.2467,0.2917,0.3365,0.3589,0.3141,0.2019,0.0448,-0.0672,-0.1792,-0.4032,-0.4929,-0.5153,-0.6046,-0.7384,-0.8957,-0.9184,-0.8057,-0.6943,-0.8985,-1.0154,-1.0898,-1.1486,-1.2019,-1.209,-1.0782,-1.0333,-1.0805,-1.2447,-1.2915,-1.3611,-1.5026,-1.5959,-1.6436,-1.6436,-1.6945,-1.7518,-1.7751,-1.8303,-1.89,-1.9138,-1.9408,-1.9664,-1.9664,-1.9664,-1.9664,-1.9664,-1.9786,-1.9942,-2.0085,-2.0241,-2.0397,-2.0539,-2.0539,-2.0539,-2.0539,-2.0539,-2.0539,-2.0539,-2.0539,-2.0539,-2.0539,-2.0539,-2.0539,0.0,1.6083,1.6083,1.6083,1.6293,1.651,1.6517,1.6754,0.0,1.6978,1.6978,1.6978,1.6978,1.6978,1.6978,1.6978,1.506,1.3359,1.2505,0.8491,0.4467,0.1918,0.1066,0.0853,0.0853,0.0426,0.0,0.0,0.0,0.0,0.0,0.0,0.0,0.0,0.0,0.0,0.0,0.0,0.0,0.0,0.0,0.0,0.0,0.0,0.0,0.0,0.0673,0.0898,0.0898,0.2019,0.2467,0.2467,0.2917,0.1793,-0.0448,-0.0448,-0.2015,-0.4256,-0.6719,-0.7616,-0.7843,-1.0077,-1.1193,-1.1871,-1.2312,-1.2084,-1.1665,-1.1983,-1.2696,-1.3664,-1.3879,-1.4402,-1.4896,-1.501,-1.5037,-1.5037,-1.5037,-1.5498,-1.5965,-1.5965,-1.6657,-1.6902,-1.6902,-1.7715,-1.8091,-1.8245,-1.8853,-1.9481,-1.9644,-1.9664,-1.9664,-1.9664,-1.9664,-1.9664,-1.9678,-1.98,-1.9942,-2.0085,-2.0261,-2.0397,-2.0539,-2.0539,-2.0539,-2.0539,-2.0539,-2.0539,-2.0539,-2.0539,-2.0539,-2.0539,-2.0539,-2.0539,1.6083,0.0,1.6083,1.6083,1.6225,1.6388,0.0,1.6666,1.6836,1.6958,1.6978,1.6978,1.6978,1.6978,1.6768,1.6341,1.4423,1.2088,0.9764,0.5313,0.1704,0.0639,0.0213,0.0213,0.0213,0.0,0.0,0.0,0.0,0.0,0.0,0.0,0.0,0.0,0.0,0.0,0.0,0.0,0.0,0.0,0.0,0.0,0.0,0.0,0.0,0.0,0.0224,0.0449,0.0898,0.1122,0.0449,-0.0672,-0.0672,-0.1791,-0.358,-0.559,-0.6262,-0.6719,-0.9624,-1.0528,-1.0751,-1.1871,-1.2084,-1.2312,-1.2534,-1.2312,-1.2335,-1.3113,-1.3438,-1.3989,-1.459,-1.4923,-1.4994,-1.5037,-1.5037,-1.5037,-1.5737,-1.5959,-1.6198,-1.6657,-1.7123,-1.7581,-1.7581,-1.8183,-1.8805,-1.8939,-1.9339,-1.9481,-1.9644,-1.9664,-1.9664,-1.9664,-1.9664,-1.9698,-1.982,-1.9963,-2.0064,-2.0098,-2.0349,-2.0505,-2.0539,-2.0539,-2.0539,-2.0539,-2.0539,-2.0539,-2.0539,-2.0539,-2.0539,-2.0539,-2.0539,-2.0539,1.6083,1.6083,1.6083,1.6083,1.6198,1.6327,1.6408,1.6592,1.6775,1.6856,1.6931,1.6978,1.6978,1.5914,1.5271,1.592,1.2304,0.8279,0.5315,0.2341,0.0426,0.0,0.0,0.0,0.0,0.0,0.0,0.0,0.0,0.0,0.0,0.0,0.0,0.0,0.0,0.0,0.0,0.0,0.0,0.0,0.0,0.0,0.0,0.0,0.0,0.0,0.0,0.0224,0.0449,-0.0449,-0.1344,-0.2239,-0.3131,-0.4694,-0.6711,-0.8051,-0.895,-0.985,-1.142,-1.2093,-1.2084,-1.2762,-1.299,-1.299,-1.3267,-1.3506,-1.3532,-1.3639,-1.3979,-1.4317,-1.4912,-1.4983,-1.5037,-1.5037,-1.5276,-1.5498,-1.5959,-1.6425,-1.6902,-1.7355,-1.782,-1.8298,-1.8298,-1.8711,-1.9115,-1.9183,-1.9393,-1.9569,-1.9644,-1.9664,-1.9664,-1.9664,-1.9664,-1.9712,-1.9854,-2.001,-2.0139,-2.0207,-2.0417,-2.0539,-2.0539,-2.0539,-2.0539,-2.0539,-2.0539,-2.0539,-2.0539,-2.0539,-2.0539,-2.0539,-2.0539,-2.0539,1.6083,1.6083,1.6083,1.6083,1.6178,1.6279,1.6307,1.6517,1.672,1.6748,1.687,1.6768,1.6341,1.4417,1.3143,1.4639,0.913,0.3829,0.1066,0.0426,0.0,0.0,0.0,0.0,0.0,0.0,0.0,0.0,0.0,0.0,0.0,0.0,0.0,0.0,0.0,0.0,0.0,0.0,0.0,0.0,0.0,0.0,0.0,0.0,0.0,0.0,-0.0443,-0.0445,-0.0672,-0.2686,-0.3583,-0.4027,-0.559,-0.7602,-0.9616,-0.9616,-1.0957,-1.2534,-1.2539,-1.2762,-1.2762,-1.343,-1.343,-1.3668,-1.4247,-1.4515,-1.4559,-1.3979,-1.4317,-1.4885,-1.501,-1.5037,-1.5037,-1.5037,-1.5498,-1.5965,-1.6198,-1.7116,-1.782,-1.7826,-1.8517,-1.8762,-1.8762,-1.9006,-1.9203,-1.9203,-1.9468,-1.9664,-1.9664,-1.9664,-1.9664,-1.9664,-1.9664,-1.9732,-1.9888,-2.0031,-2.0173,-2.0349,-2.0471,-2.0539,-2.0539,-2.0539,-2.0539,-2.0539,-2.0539,-2.0539,-2.0539,-2.0539,-2.0539,-2.0539,-2.0539,-2.0539,1.6083,1.6083,1.6083,1.6083,1.6096,1.6151,1.6279,1.6435,1.6592,1.672,1.687,1.6335,1.378,1.2932,1.1873,0.9334,0.595,0.2767,0.0426,0.0,0.0,0.0,0.0,0.0,0.0,0.0,0.0,0.0,0.0,0.0,0.0,0.0,0.0,0.0,0.0,0.0,0.0,0.0,0.0,0.0,0.0,0.0,0.0,0.0,0.0,-0.0217,-0.2199,-0.3102,-0.3329,-0.5579,-0.7602,-0.9393,-0.9839,-1.0957,-1.2747,-1.2747,-1.2539,-1.2534,-1.298,-1.3652,-1.4092,-1.4097,-1.4097,-1.4124,-1.4461,-1.4575,-1.4673,-1.4798,-1.4841,-1.4885,-1.501,-1.5037,-1.5037,-1.5037,-1.5498,-1.6198,-1.6663,-1.7361,-1.8059,-1.8523,-1.8762,-1.8762,-1.8762,-1.9006,-1.9203,-1.9203,-1.9468,-1.9664,-1.9664,-1.9664,-1.9664,-1.9664,-1.9664,-1.9766,-2.0051,-2.0085,-2.0227,-2.0485,-2.0526,-2.0539,-2.0539,-2.0539,-2.0539,-2.0539,-2.0539,-2.0539,-2.0539,-2.0539,-2.0539,-2.0539,-2.0539,-2.0539,1.6083,1.6083,1.6083,1.6083,1.6083,1.6123,1.6273,1.6361,1.6449,1.6598,1.6748,1.5989,1.3603,1.1801,0.9334,0.4676,0.3617,0.2554,0.0426,0.0,0.0,0.0,0.0,0.0,0.0,0.0,0.0,0.0,-0.1065,-0.1278,0.0,-0.1065,-0.1278,0.0,0.0,0.0,0.0,-0.1278,-0.1278,0.0,0.0,0.0,0.0,-0.1283,-0.1933,-0.1943,-0.437,-0.5503,-0.553,-0.8027,-0.9616,-1.073,-1.2075,-1.3202,-1.387,-1.387,-1.3658,-1.343,-1.388,-1.4092,-1.432,-1.432,-1.432,-1.4347,-1.4548,-1.4629,-1.4716,-1.4896,-1.4956,-1.4967,-1.5021,-1.526,-1.5498,-1.5498,-1.6203,-1.7123,-1.7361,-1.7826,-1.8517,-1.8762,-1.8762,-1.8762,-1.8762,-1.9006,-1.9203,-1.9203,-1.9468,-1.9664,-1.9664,-1.9664,-1.9664,-1.9664,-1.9664,-1.9786,-2.0085,-2.0098,-2.0227,-2.0526,-2.0539,-2.0539,-2.0539,-2.0539,-2.0539,-2.0539,-2.0539,-2.0539,-2.0539,-2.0539,-2.0539,-2.0539,-2.0539,-2.0539,1.6083,1.6083,1.6083,1.6083,1.6083,1.6123,1.6273,1.6334,1.6199,1.5923,1.5834,1.5051,1.2073,0.9449,0.6147,0.1704,0.1914,0.2124,0.0213,0.0,0.0,0.0,0.0,0.0,0.0,-0.0426,-0.0852,-0.0852,-0.298,-0.3405,-0.1704,-0.3193,-0.3405,-0.1704,-0.1491,-0.1491,-0.1491,-0.3404,-0.298,-0.0852,-0.1278,-0.1491,-0.1704,-0.3405,-0.427,-0.4301,-0.6716,-0.7864,-0.7935,-1.0444,-1.1608,-1.1621,-1.3642,-1.432,-1.432,-1.432,-1.432,-1.432,-1.432,-1.432,-1.432,-1.432,-1.4336,-1.4407,-1.4619,-1.4689,-1.4754,-1.4983,-1.5037,-1.5276,-1.5276,-1.5737,-1.5965,-1.6198,-1.7123,-1.782,-1.782,-1.8284,-1.8762,-1.8762,-1.8762,-1.8762,-1.8762,-1.9006,-1.9203,-1.9203,-1.9468,-1.9664,-1.9664,-1.9664,-1.9664,-1.9664,-1.9664,-1.9786,-2.0085,-2.0173,-2.0295,-2.0526,-2.0539,-2.0539,-2.0539,-2.0539,-2.0539,-2.0539,-2.0539,-2.0539,-2.0539,-2.0539,-2.0539,-2.0539,-2.0539,-2.0539,1.6083,1.6083,1.6083,1.6083,1.6083,1.6123,1.6273,1.6415,1.5923,1.3985,1.3598,1.2171,0.7408,0.4224,0.19,0.1064,0.0847,0.0844,0.0,0.0,0.0,0.0,0.0,0.0,0.0,-0.1917,-0.3193,-0.3193,-0.5317,-0.6379,-0.6379,-0.6379,-0.6379,-0.6379,-0.6379,-0.6379,-0.6379,-0.6379,-0.5317,-0.3193,-0.5317,-0.6379,-0.6379,-0.6379,-0.6594,-0.6602,-0.9018,-1.0176,-1.0485,-1.2773,-1.3996,-1.4092,-1.432,-1.432,-1.432,-1.432,-1.432,-1.432,-1.432,-1.432,-1.432,-1.432,-1.439,-1.4515,-1.4629,-1.476,-1.4869,-1.4994,-1.5498,-1.5959,-1.5959,-1.5959,-1.6198,-1.6663,-1.7361,-1.782,-1.782,-1.8284,-1.8762,-1.8762,-1.8762,-1.8762,-1.8762,-1.9006,-1.9203,-1.9203,-1.9468,-1.9664,-1.9664,-1.9664,-1.9664,-1.9664,-1.9664,-1.9786,-2.0085,-2.0349,-2.0526,-2.0539,-2.0539,-2.0539,-2.0539,-2.0539,-2.0539,-2.0539,-2.0539,-2.0539,-2.0539,-2.0539,-2.0539,-2.0539,-2.0539,-2.0539,1.6056,1.6083,1.6083,1.6083,1.6151,1.6259,1.6408,1.6415,1.6225,1.5539,1.4382,1.1943,0.7369,0.4192,0.2089,0.1886,0.1463,0.1044,0.0629,0.0419,-0.021,-0.19,-0.2112,-0.275,-0.404,-0.5105,-0.553,-0.553,-0.765,-0.8289,-0.6804,-0.8077,-0.8289,-0.6804,-0.6804,-0.6804,-0.6804,-0.8289,-0.8498,-0.765,-0.7013,-0.6804,-0.6804,-0.8289,-0.8921,-0.9141,-1.137,-1.2511,-1.2566,-1.3622,-1.4167,-1.4205,-1.4292,-1.432,-1.432,-1.432,-1.432,-1.432,-1.432,-1.432,-1.432,-1.432,-1.4407,-1.4521,-1.5095,-1.5441,-1.5578,-1.5936,-1.6436,-1.6425,-1.6198,-1.6657,-1.7123,-1.7361,-1.8059,-1.8517,-1.8517,-1.8523,-1.8762,-1.8762,-1.8762,-1.8762,-1.8762,-1.9006,-1.9203,-1.9203,-1.9468,-1.9664,-1.9664,-1.9664,-1.9664,-1.9664,-1.982,-1.9976,-2.0085,-2.0363,-2.0539,-2.0539,-2.0539,-2.0539,-2.0539,-2.0539,-2.0539,-2.0539,-2.0539,-2.0539,-2.0539,-2.0539,-2.0539,-2.0539,-2.0539,-2.0539,1.6042,1.6083,1.6083,1.6083,1.6157,1.6071,1.5596,1.5424,1.5239,1.4499,1.2117,0.9251,0.63,0.4181,0.2709,0.2501,0.2079,0.166,0.1038,0.0415,-0.0831,-0.2925,-0.3762,-0.5033,-0.6557,-0.7411,-0.784,-0.7862,-0.9984,-1.0623,-0.8925,-1.0411,-1.0623,-0.8925,-0.8925,-0.8925,-0.8925,-1.0411,-1.1258,-1.1258,-0.9776,-0.8925,-0.8925,-1.0623,-1.1258,-1.1474,-1.3046,-1.3754,-1.3798,-1.3961,-1.4069,-1.4151,-1.4276,-1.432,-1.432,-1.432,-1.432,-1.432,-1.432,-1.432,-1.432,-1.4547,-1.4647,-1.5022,-1.556,-1.5928,-1.6329,-1.6645,-1.7135,-1.7123,-1.6663,-1.7123,-1.782,-1.8059,-1.8523,-1.8762,-1.8762,-1.8762,-1.8762,-1.8762,-1.8762,-1.8762,-1.8762,-1.9006,-1.9203,-1.9203,-1.9468,-1.9664,-1.9664,-1.9664,-1.9664,-1.9664,-1.9922,-2.0098,-2.0098,-2.0363,-2.0539,-2.0539,-2.0539,-2.0539,-2.0539,-2.0539,-2.0539,-2.0539,-2.0539,-2.0539,-2.0539,-2.0539,-2.0539,-2.0539,-2.0539,-2.0539,1.6042,1.6083,1.6083,1.6083,1.6083,1.5518,1.3626,1.3232,1.2776,1.0478,0.6555,0.3401,0.3371,0.3366,0.3156,0.2524,0.2504,0.2282,0.1659,-0.0622,-0.2485,-0.2485,-0.4759,-0.6436,-0.6706,-0.8807,-1.0102,-1.0187,-1.2324,-1.3602,-1.3602,-1.3602,-1.3602,-1.3602,-1.3602,-1.3602,-1.3602,-1.3602,-1.3602,-1.3602,-1.3602,-1.3602,-1.3602,-1.3602,-1.3602,-1.3602,-1.3602,-1.3673,-1.3787,-1.3787,-1.3928,-1.4151,-1.4276,-1.432,-1.432,-1.432,-1.432,-1.432,-1.432,-1.432,-1.4325,-1.4975,-1.5381,-1.5817,-1.626,-1.6676,-1.6902,-1.6902,-1.7361,-1.782,-1.782,-1.782,-1.8059,-1.8523,-1.8762,-1.8762,-1.8762,-1.8762,-1.8762,-1.8762,-1.8762,-1.8762,-1.8762,-1.9006,-1.9203,-1.9203,-1.9468,-1.9664,-1.9664,-1.9664,-1.9664,-1.9664,-1.9922,-2.0098,-2.0098,-2.0363,-2.0539,-2.0539,-2.0539,-2.0539,-2.0539,-2.0539,-2.0539,-2.0539,-2.0539,-2.0539,-2.0539,-2.0539,-2.0539,-2.0539,-2.0539,-2.0539,1.6015,1.6083,1.6083,1.6083,1.6164,1.5616,1.353,1.4327,1.4571,1.0967,0.7815,0.527,0.3578,0.3366,0.3352,0.3102,0.3089,0.2255,0.0204,-0.1016,-0.3053,-0.6553,-0.7994,-0.9459,-1.0996,-1.1837,-1.2265,-1.23,-1.3006,-1.3477,-1.3477,-1.3558,-1.3602,-1.3602,-1.3602,-1.3602,-1.3602,-1.3602,-1.3602,-1.3602,-1.3602,-1.3602,-1.3602,-1.3602,-1.3602,-1.3602,-1.3602,-1.3624,-1.3667,-1.3754,-1.3928,-1.414,-1.4178,-1.4249,-1.432,-1.432,-1.4536,-1.4986,-1.4986,-1.5197,-1.5652,-1.5862,-1.6049,-1.626,-1.6953,-1.7365,-1.7588,-1.8059,-1.8304,-1.8523,-1.8523,-1.8523,-1.8523,-1.8762,-1.8762,-1.8762,-1.8762,-1.8762,-1.8762,-1.8762,-1.8762,-1.8762,-1.8762,-1.9006,-1.9203,-1.9203,-1.9468,-1.9664,-1.9664,-1.9664,-1.9664,-1.9664,-1.9922,-2.0098,-2.0098,-2.0363,-2.0539,-2.0539,-2.0539,-2.0539,-2.0539,-2.0539,-2.0539,-2.0539,-2.0539,-2.0539,-2.0539,-2.0539,-2.0539,-2.0539,-2.0539,-2.0539,1.5913,1.5988,1.6008,1.6069,1.5544,1.4367,1.2074,1.2029,1.162,0.8223,0.6341,0.4861,0.3595,0.3385,0.3365,0.3303,0.2675,0.1433,-0.0202,-0.2618,-0.5244,-0.8319,-1.0151,-1.1614,-1.2952,-1.3172,-1.3189,-1.3238,-1.3308,-1.3368,-1.3417,-1.3493,-1.3553,-1.3602,-1.3602,-1.3602,-1.3602,-1.3602,-1.3602,-1.3602,-1.3602,-1.3602,-1.3602,-1.3602,-1.3602,-1.3602,-1.3602,-1.3602,-1.3613,-1.3738,-1.4537,-1.5579,-1.4764,-1.5301,-1.6305,-1.5424,-1.5202,-1.564,-1.6514,-1.7177,-1.7619,-1.8928,-1.9366,-1.9847,-2.032,-2.0097,-1.9669,-2.0146,-1.9444,-1.8762,-1.8762,-1.8762,-1.8762,-1.8762,-1.8762,-1.8762,-1.8762,-1.8762,-1.8762,-1.8762,-1.8762,-1.8762,-1.8762,-1.9006,-1.9203,-1.9203,-1.9468,-1.9664,-1.9664,-1.9664,-1.9664,-1.9664,-1.9922,-2.0098,-2.0098,-2.0363,-2.0539,-2.0539,-2.0539,-2.0539,-2.0539,-2.0539,-2.0539,-2.0539,-2.0539,-2.0539,-2.0539,-2.0539,-2.0539,-2.0539,-2.0539,-2.0539,1.5771,1.5852,1.5893,1.6042,1.4259,1.2043,1.004,0.7741,0.5797,0.3977,0.3594,0.3404,0.3407,0.341,0.3392,0.3122,0.1451,0.0,-0.0606,-0.4831,-0.8048,-0.8453,-1.1068,-1.2933,-1.3042,-1.3255,-1.3294,-1.3399,-1.3621,-1.3882,-1.4002,-1.403,-1.4093,-1.4212,-1.4224,-1.4019,-1.3813,-1.3813,-1.3813,-1.3602,-1.3813,-1.3813,-1.3602,-1.3602,-1.3607,-1.3602,-1.3813,-1.4024,-1.403,-1.4355,-1.6169,-1.8431,-1.6455,-1.7458,-1.9558,-1.7612,-1.6741,-1.7177,-1.9141,-2.0012,-2.0451,-2.3066,-2.4202,-2.4744,-2.5226,-2.4153,-2.2629,-2.2645,-2.1048,-1.9444,-1.9444,-1.9444,-1.9444,-1.9444,-1.9219,-1.8762,-1.8762,-1.8762,-1.8762,-1.8762,-1.8762,-1.8762,-1.8762,-1.9006,-1.9217,-1.9237,-1.9488,-1.9664,-1.9664,-1.9664,-1.9664,-1.9664,-1.9908,-2.0085,-2.0098,-2.0363,-2.0526,-2.0539,-2.0539,-2.0539,-2.0539,-2.0539,-2.0539,-2.0539,-2.0539,-2.0539,-2.0539,-2.0539,-2.0539,-2.0539,-2.0539,-2.0539,1.5771,1.5852,1.5893,1.6042,1.3195,0.9749,0.7566,0.5402,0.4238,0.574,0.456,0.3348,0.3371,0.3396,0.2755,0.104,0.0415,-0.1029,-0.4645,-0.6444,-0.8256,-1.0271,-1.1683,-1.2495,-1.2922,-1.4513,-1.5312,-1.5344,-1.7049,-1.8134,-1.8172,-1.8421,-1.8579,-1.8617,-1.8745,-1.7984,-1.6111,-1.6111,-1.5277,-1.3602,-1.5277,-1.5487,-1.4241,-1.3819,-1.3813,-1.4241,-1.6105,-1.714,-1.7566,-1.9462,-2.0627,-2.123,-2.0988,-2.1375,-2.1982,-2.1707,-2.1756,-2.2193,-2.2848,-2.3293,-2.3738,-2.4391,-2.4777,-2.502,-2.5402,-2.518,-2.4949,-2.5351,-2.4939,-2.4482,-2.4482,-2.4482,-2.4482,-2.4482,-2.151,-1.8762,-1.8762,-1.8762,-1.8762,-1.8762,-1.8762,-1.8762,-1.8762,-1.9006,-1.9291,-1.9522,-1.9624,-1.9664,-1.9664,-1.9664,-1.9664,-1.9664,-1.982,-1.9976,-2.0085,-2.0275,-2.0417,-2.0539,-2.0539,-2.0539,-2.0539,-2.0539,-2.0539,-2.0539,-2.0539,-2.0539,-2.0539,-2.0539,-2.0539,-2.0539,-2.0539,-2.0539,1.5581,1.5642,1.5301,1.333,1.051,0.7495,0.5333,0.3926,0.3527,0.4767,0.4043,0.2871,0.206,0.187,0.104,-0.1025,-0.2257,-0.389,-0.6259,-0.7858,-0.9865,-1.2468,-1.3267,-1.4265,-1.5857,-1.6843,-1.7627,-1.7627,-1.8702,-1.9378,-1.9459,-1.9646,-1.9825,-1.9987,-2.0093,-1.9568,-1.8611,-1.8611,-1.7984,-1.714,-1.8395,-1.8604,-1.7977,-1.6525,-1.6728,-1.7977,-1.9214,-1.9839,-2.0255,-2.1501,-2.2852,-2.4089,-2.3153,-2.3796,-2.5156,-2.4196,-2.4081,-2.4599,-2.5683,-2.6126,-2.6569,-2.7876,-2.8262,-2.8497,-2.8732,-2.8279,-2.7396,-2.7833,-2.7004,-2.6082,-2.6082,-2.6082,-2.6082,-2.6082,-2.4261,-2.2185,-2.2185,-2.2185,-2.2185,-2.2185,-2.2185,-2.2185,-2.2185,-2.1564,-2.1183,-2.1533,-2.1578,-2.1578,-2.1578,-2.1578,-2.1093,-1.9908,-1.9786,-1.9942,-2.0085,-2.0241,-2.0383,-2.0526,-2.0539,-2.0539,-2.0539,-2.0539,-2.0539,-2.0539,-2.0539,-2.0539,-2.0539,-2.0539,-2.0539,-2.0539,-2.0539,-2.0539,1.5371,1.5234,1.3963,1.0268,0.7871,0.5866,0.3532,0.3096,0.3059,0.3085,0.3156,0.2612,0.0603,0.0203,-0.0813,-0.322,-0.5057,-0.6485,-0.7026,-0.9432,-1.1843,-1.4217,-1.5228,-1.663,-1.9018,-1.961,-1.9807,-1.9807,-2.0004,-2.026,-2.0414,-2.0448,-2.061,-2.0918,-2.0995,-2.1106,-2.1061,-2.1094,-2.1094,-2.1293,-2.1293,-2.1906,-2.3156,-2.1086,-2.0671,-2.2113,-2.2527,-2.2734,-2.2743,-2.3156,-2.4913,-2.6959,-2.5122,-2.6001,-2.8055,-2.6215,-2.5713,-2.6303,-2.8285,-2.8952,-2.9178,-3.1154,-3.1952,-3.2193,-3.2495,-3.1392,-3.002,-3.0318,-2.8822,-2.7449,-2.7449,-2.7449,-2.7449,-2.7449,-2.7449,-2.7212,-2.632,-2.6082,-2.6082,-2.6082,-2.6082,-2.6101,-2.6177,-2.4613,-2.3783,-2.4152,-2.4202,-2.4202,-2.4202,-2.4202,-2.3238,-2.1343,-2.1224,-2.1124,-2.0816,-2.0957,-2.0867,-2.0526,-2.0539,-2.0539,-2.0539,-2.0539,-2.0539,-2.0539,-2.0539,-2.0539,-2.0539,-2.0539,-2.0539,-2.0539,-2.0539,-2.0539,1.5371,1.4149,1.232,1.0089,0.7834,0.5817,0.3527,0.3096,0.3054,0.3058,0.311,0.2569,0.0398,0.0201,-0.1208,-0.4983,-0.5976,-0.6955,-0.9448,-1.1658,-1.3488,-1.4871,-1.675,-1.8213,-1.9216,-2.079,-2.1967,-2.1967,-2.3551,-2.474,-2.4772,-2.496,-2.5095,-2.5147,-2.5544,-2.4942,-2.3527,-2.3708,-2.3165,-2.1699,-2.232,-2.4598,-2.8348,-2.6681,-2.4608,-2.2734,-2.4598,-2.584,-2.6476,-2.8348,-2.9401,-2.9663,-2.9671,-2.9812,-3.0343,-3.0364,-3.0552,-3.0611,-3.1071,-3.1368,-3.1368,-3.1807,-3.1831,-3.1952,-3.2447,-3.2385,-3.2296,-3.2773,-3.2691,-3.2467,-3.2467,-3.2467,-3.2467,-3.2467,-3.2467,-3.133,-2.7004,-2.6082,-2.6082,-2.6082,-2.6082,-2.6205,-2.6555,-2.6425,-2.6378,-2.6767,-2.6814,-2.6814,-2.6814,-2.6814,-2.6593,-2.6363,-2.6381,-2.5579,-2.3506,-2.3291,-2.2461,-2.0526,-2.0539,-2.0539,-2.0539,-2.0539,-2.0539,-2.0539,-2.0539,-2.0539,-2.0539,-2.0539,-2.0539,-2.0539,-2.0539,-2.0539,1.3926,1.2122,1.0095,0.8001,0.6024,0.4258,0.3308,0.3084,0.3052,0.3052,0.2112,0.0773,-0.1358,-0.2542,-0.4324,-0.744,-0.7858,-0.8464,-0.9997,-1.1963,-1.4159,-1.6586,-1.8606,-2.065,-2.2545,-2.3551,-2.4136,-2.4136,-2.4924,-2.5518,-2.5518,-2.5615,-2.5733,-2.5862,-2.6595,-2.6634,-2.5955,-2.6381,-2.6487,-2.6056,-2.6681,-2.7929,-2.9796,-2.9174,-2.8133,-2.6885,-2.7918,-2.8552,-2.8767,-2.9796,-3.0214,-3.0226,-3.0346,-3.0479,-3.0636,-3.0865,-3.1143,-3.1409,-3.1529,-3.1674,-3.1807,-3.1807,-3.1807,-3.1879,-3.2254,-3.2471,-3.2652,-3.305,-3.3268,-3.3376,-3.3376,-3.3376,-3.3376,-3.3376,-3.3376,-3.2703,-3.0631,-3.0169,-3.0169,-3.0169,-3.0169,-2.9825,-2.879,-2.8702,-2.8885,-2.9211,-2.9374,-2.9456,-2.9456,-2.9456,-2.897,-2.755,-2.7301,-2.699,-2.6185,-2.6202,-2.5895,-2.5039,-2.5055,-2.5055,-2.5055,-2.3542,-2.2792,-2.2792,-2.1294,-2.0539,-2.0539,-2.0539,-2.0539,-2.0539,-2.0539,-2.0539,1.3281,1.1047,0.8813,0.7323,0.5007,0.3078,0.3095,0.3074,0.3052,0.3052,0.0953,-0.1142,-0.2665,-0.4787,-0.693,-0.886,-0.949,-0.9919,-1.0883,-1.3012,-1.5567,-1.8584,-2.1,-2.3069,-2.5217,-2.5486,-2.5518,-2.5518,-2.5518,-2.5518,-2.5518,-2.5518,-2.5604,-2.5972,-2.6606,-2.7247,-2.7705,-2.8629,-2.9197,-2.9593,-3.0011,-3.0214,-3.0214,-3.0214,-3.0214,-3.0214,-3.0214,-3.0214,-3.0214,-3.0214,-3.0214,-3.0214,-3.0214,-3.0334,-3.0515,-3.0576,-3.0853,-3.1215,-3.1348,-3.1529,-3.171,-3.1783,-3.1807,-3.1855,-3.2121,-3.2386,-3.2652,-3.2917,-3.3171,-3.3376,-3.3376,-3.3376,-3.3376,-3.3376,-3.3376,-3.3376,-3.3376,-3.3376,-3.3376,-3.3376,-3.3376,-3.2987,-3.1181,-3.1186,-3.1452,-3.1696,-3.1929,-3.2085,-3.2085,-3.2085,-3.1364,-2.9466,-2.9208,-2.9141,-2.8784,-2.8882,-2.8832,-2.8454,-2.853,-2.8549,-2.8549,-2.6555,-2.5298,-2.4551,-2.2547,-2.1287,-2.0539,-2.0539,-2.0539,-2.0539,-2.0539,-2.0539,1.4993,1.2069,0.904,0.9016,0.6093,0.3026,0.3084,0.3074,0.3052,0.3052,0.0,-0.2855,-0.3046,-0.4759,-0.6859,-0.877,-0.9534,-1.0668,-1.311,-1.5667,-1.8412,-2.1076,-2.3544,-2.4982,-2.5195,-2.5389,-2.5518,-2.5518,-2.5518,-2.5518,-2.5518,-2.5518,-2.5723,-2.6327,-2.656,-2.7396,-2.8439,-2.9557,-3.0214,-3.0214,-3.0214,-3.0214,-3.0214,-3.0214,-3.0214,-3.0214,-3.0214,-3.0214,-3.0214,-3.0214,-3.0214,-3.0214,-3.0214,-3.0226,-3.0262,-3.0515,-3.0624,-3.0721,-3.1215,-3.1397,-3.1457,-3.1722,-3.1807,-3.1855,-3.2121,-3.2386,-3.2652,-3.2917,-3.3171,-3.3376,-3.3376,-3.3376,-3.3376,-3.3376,-3.3376,-3.3376,-3.3376,-3.3376,-3.3376,-3.3376,-3.3376,-3.3461,-3.3512,-3.3775,-3.4027,-3.4291,-3.4555,-3.4735,-3.4735,-3.4735,-3.4735,-3.4723,-3.4488,-3.3627,-3.1504,-3.1478,-3.0739,-2.8256,-2.8445,-2.8549,-2.8549,-2.8539,-2.7316,-2.4551,-2.4291,-2.3053,-2.0539,-2.0539,-2.0539,-2.0539,-2.0539,-2.0539,1.356,1.1071,0.88,0.731,0.5068,0.3007,0.301,0.3017,0.2645,0.1321,-0.1132,-0.34,-0.4753,-0.6663,-0.8189,-0.8952,-0.9522,-1.0843,-1.3275,-1.5938,-1.8453,-2.1217,-2.3467,-2.484,-2.5152,-2.5249,-2.5356,-2.5507,-2.5518,-2.5712,-2.5917,-2.6111,-2.6294,-2.6874,-2.7307,-2.8229,-2.9459,-2.9831,-3.0214,-3.0214,-3.0214,-3.0214,-3.0214,-3.0214,-3.0214,-3.0214,-3.0214,-3.0214,-3.0214,-3.0214,-3.0214,-3.0214,-3.0214,-3.0214,-3.0226,-3.0322,-3.0467,-3.066,-3.101,-3.1252,-3.1433,-3.1722,-3.1807,-3.1831,-3.1916,-3.2133,-3.2398,-3.2652,-3.2917,-3.3147,-3.334,-3.3376,-3.3376,-3.3376,-3.3376,-3.3376,-3.3376,-3.3376,-3.3376,-3.3376,-3.3376,-3.34,-3.3497,-3.3895,-3.4221,-3.4318,-3.4704,-3.497,-3.497,-3.497,-3.497,-3.497,-3.497,-3.4619,-3.3917,-3.416,-3.4162,-3.3439,-3.3673,-3.3796,-3.3796,-3.2043,-3.0812,-2.9796,-2.8039,-2.5047,-2.0539,-2.0539,-2.0539,-2.0539,-2.0539,-2.0539,1.3307,1.0986,0.8704,0.7204,0.4817,0.2973,0.2964,0.2977,0.2429,0.0373,-0.1679,-0.3738,-0.5646,-0.775,-0.9109,-0.9328,-1.0465,-1.1962,-1.4584,-1.7009,-1.948,-2.2055,-2.3655,-2.4592,-2.4904,-2.5087,-2.5238,-2.5389,-2.5669,-2.5906,-2.6305,-2.6498,-2.6874,-2.726,-2.8168,-2.8914,-2.9658,-3.0033,-3.0214,-3.0214,-3.0214,-3.0214,-3.0214,-3.0214,-3.0214,-3.0214,-3.1012,-3.0809,-3.0214,-3.0214,-3.0214,-3.0214,-3.0214,-3.0214,-3.0214,-3.0214,-3.0322,-3.0527,-3.0877,-3.1107,-3.1324,-3.1686,-3.1807,-3.1807,-3.1807,-3.1988,-3.2242,-3.241,-3.2724,-3.3014,-3.3207,-3.3304,-3.3376,-3.3376,-3.3376,-3.3376,-3.3376,-3.3376,-3.3376,-3.3376,-3.3376,-3.3376,-3.3376,-3.3823,-3.4185,-3.4185,-3.4644,-3.497,-3.497,-3.497,-3.497,-3.497,-3.497,-3.503,-3.5223,-3.5585,-3.5839,-3.6032,-3.6358,-3.6563,-3.6563,-3.4794,-3.356,-3.2549,-3.0791,-2.7799,-2.329,-2.329,-2.2792,-2.1801,-2.1801,-2.1294,0.0,0.0,0.0,0.882,0.5861,0.2924,0.2953,0.296,0.2404,0.037,-0.1661,-0.3506,-0.5539,-0.7635,-0.9219,-0.9879,-1.1962,-1.4584,-1.7002,-1.9622,-2.1869,-2.3924,-2.4312,-2.4452,-2.4463,-2.4893,-2.5173,-2.5173,-2.5979,-2.6305,-2.6305,-2.6874,-2.726,-2.7839,-2.8932,-2.9405,-2.9405,-2.9948,-3.0214,-3.0214,-3.0214,-3.0214,-3.0214,-3.0214,-3.0214,-3.0416,-3.2585,-3.2397,-3.0416,-3.0416,-3.0416,-3.0416,-3.0416,-3.0416,-3.0416,-3.0416,-3.0416,-3.0489,-3.1012,-3.1194,-3.1291,-3.1826,-3.2008,-3.202,-3.202,-3.2191,-3.2397,-3.2409,-3.2762,-3.3187,-3.3187,-3.3394,-3.3588,-3.3588,-3.3576,-3.36,-3.36,-3.3376,-3.3376,-3.3376,-3.3376,-3.3376,-3.3376,-3.3823,-3.4185,-3.4185,-3.4644,-3.497,-3.497,-3.497,-3.497,-3.497,-3.497,-3.497,-3.497,-3.5452,-3.5778,-3.5778,-3.6261,-3.6563,-3.6563,-3.6563,-3.5298,-3.2807,-3.2807,-3.1547,-2.8789,-2.8558,-2.7289,-2.4551,-2.4812,-2.3298,1.4835,0.0,0.0,0.0,0.0,0.0,0.2901,0.2913,0.2012,-0.1461,-0.2556,-0.4026,-0.7378,-0.852,-0.9309,-1.0151,-1.2096,-1.4584,-1.7002,-1.9622,-2.1869,-2.3924,-2.4172,-2.428,-2.4441,-2.4732,-2.517,-2.5725,-2.616,-2.6692,-2.726,-2.7839,-2.8236,-2.8428,-2.9127,-2.9405,-2.9405,-2.9948,-3.0214,-3.0214,-3.0214,-3.0214,-3.0214,-3.1794,-3.2585,-3.2585,-3.4756,-3.5338,-3.4756,-3.4756,-3.4756,-3.4756,-3.4756,-3.4756,-3.4557,-3.2986,-3.376,-3.5182,-3.3977,-3.4653,-3.6315,-3.7108,-3.6994,-3.6579,-3.6984,-3.6845,-3.676,-3.7378,-3.7363,-3.7387,-3.7846,-3.818,-3.8417,-3.8417,-3.7095,-3.6002,-3.6002,-3.468,-3.3376,-3.3376,-3.3376,-3.3376,-3.3376,-3.3823,-3.4185,-3.4185,-3.4644,-3.497,-3.497,-3.497,-3.497,-3.497,-3.497,-3.497,-3.497,-3.5452,-3.5778,-3.5778,-3.6261,-3.6563,-3.6563,-3.6563,-3.6305,-3.5556,-3.5556,-3.5064,-3.4312,-3.0543,-2.8299,-2.7557,-2.7557,-2.7056,0.0,0.0,0.8469,0.7527,0.0,0.0,0.2878,0.2886,0.181,-0.2169,-0.2891,-0.4163,-0.8383,-0.9156,-0.9569,-1.0543,-1.3079,-1.5631,-1.7367,-2.0363,-2.28,-2.3924,-2.4118,-2.4161,-2.4301,-2.4801,-2.5239,-2.5761,-2.6478,-2.726,-2.8031,-2.8428,-2.862,-2.862,-2.9127,-2.9405,-2.9405,-2.9948,-3.0607,-3.1605,-3.0607,-3.1201,-3.2786,-3.3187,-3.3973,-3.4756,-3.6918,-3.79,-3.79,-3.8698,-3.8096,-3.6524,-3.6524,-3.6706,-3.6706,-3.5536,-3.6115,-3.7508,-3.6462,-3.7168,-3.8701,-3.9237,-3.9161,-3.9033,-3.9446,-3.924,-3.9078,-3.9672,-3.9629,-3.9687,-4.0342,-4.0639,-4.0818,-4.0966,-4.0125,-3.9033,-3.8814,-3.7523,-3.5975,-3.38,-3.3376,-3.3376,-3.3376,-3.3823,-3.4185,-3.4185,-3.4644,-3.497,-3.497,-3.497,-3.497,-3.497,-3.497,-3.497,-3.497,-3.5452,-3.5778,-3.5778,-3.6261,-3.6563,-3.6563,-3.6563,-3.6563,-3.6563,-3.6563,-3.6563,-3.6563,-3.3549,-3.1298,-3.0304,-2.9058,-2.8549,0.0,0.0,0.0,0.6091,0.4126,0.0,0.2874,0.2694,0.1615,-0.215,-0.3046,-0.4299,-0.8599,-0.9392,-0.9816,-1.073,-1.4166,-1.7141,-1.7885,-2.1481,-2.4118,-2.4118,-2.4118,-2.4118,-2.4118,-2.5076,-2.5539,-2.575,-2.6973,-2.8031,-2.862,-2.862,-2.862,-2.862,-2.9103,-2.9381,-2.9405,-3.0113,-3.1567,-3.3374,-3.1806,-3.2786,-3.6524,-3.4756,-3.5153,-3.6918,-3.9089,-4.0077,-4.0271,-4.2059,-4.0675,-3.7115,-3.7115,-3.7493,-3.787,-3.7674,-3.805,-3.8862,-3.8796,-3.9135,-3.9906,-4.0202,-4.0545,-4.0856,-4.0856,-4.0856,-4.0651,-4.0651,-4.0914,-4.1317,-4.1906,-4.2092,-4.2216,-4.2803,-4.2666,-4.2235,-4.1848,-4.143,-3.9893,-3.5126,-3.4048,-3.3824,-3.3376,-3.3823,-3.4185,-3.4185,-3.4644,-3.497,-3.497,-3.497,-3.497,-3.497,-3.497,-3.497,-3.497,-3.5452,-3.5778,-3.5778,-3.6261,-3.6563,-3.6563,-3.6563,-3.6563,-3.6563,-3.6563,-3.6563,-3.6563,-3.6563,-3.5298,-3.3044,-3.0553,-2.9557,1.2346,1.0349,0.8052,0.573,0.3766,0.0,0.2335,0.1976,0.0718,-0.2687,-0.3761,-0.5191,-0.9134,-0.9871,-1.0092,-1.072,-1.2921,-1.5383,-1.77,-2.1578,-2.4118,-2.4118,-2.4118,-2.4118,-2.4118,-2.4736,-2.5548,-2.6126,-2.7557,-2.8428,-2.862,-2.862,-2.862,-2.862,-2.8922,-2.9188,-2.9405,-3.1483,-3.2762,-3.3374,-3.4756,-3.5734,-3.6524,-3.79,-3.8683,-3.9283,-4.1271,-4.2251,-4.2268,-4.3035,-4.2652,-4.1674,-4.1674,-4.185,-4.2234,-4.0432,-4.1398,-4.3556,-4.1866,-4.2918,-4.492,-4.5381,-4.548,-4.5455,-4.5857,-4.5656,-4.5455,-4.5455,-4.5934,-4.645,-4.6198,-4.6252,-4.6579,-4.7166,-4.575,-4.432,-4.4612,-4.3159,-4.143,-3.9907,-3.7729,-3.5558,-3.3824,-3.3823,-3.4185,-3.4185,-3.4644,-3.497,-3.497,-3.497,-3.497,-3.497,-3.497,-3.497,-3.497,-3.5452,-3.5778,-3.5778,-3.6261,-3.6563,-3.6563,-3.6563,-3.6563,-3.6563,-3.6563,-3.6563,-3.6563,-3.6563,-3.6317,-3.5802,-3.5298,-3.5052,1.0504,0.8903,0.7156,0.3943,0.2512,0.0,0.0,0.1616,0.0359,-0.3224,-0.4118,-0.5549,-0.9669,-1.0387,-1.0585,-1.1178,-1.283,-1.5068,-1.7411,-2.0408,-2.2861,-2.3913,-2.4118,-2.4107,-2.4474,-2.5235,-2.6096,-2.7228,-2.82,-2.862,-2.862,-2.862,-2.9004,-3.0128,-2.9442,-3.0091,-3.2478,-3.2786,-3.4267,-3.6524,-3.6524,-3.7508,-3.9689,-3.9673,-4.0271,-4.1271,-4.2268,-4.2861,-4.2861,-4.3435,-4.3435,-4.3244,-4.3435,-4.4008,-4.418,-4.3175,-4.3937,-4.5318,-4.4317,-4.5233,-4.6725,-4.7112,-4.7252,-4.7509,-4.7907,-4.7708,-4.7509,-4.7509,-4.7835,-4.8235,-4.8051,-4.8249,-4.8502,-4.888,-4.8272,-4.7392,-4.739,-4.6703,-4.553,-4.3589,-4.208,-3.9893,-3.5767,-3.5596,-3.575,-3.4873,-3.5084,-3.5451,-3.5451,-3.5451,-3.5439,-3.497,-3.497,-3.497,-3.497,-3.5356,-3.5646,-3.5778,-3.614,-3.643,-3.6563,-3.6563,-3.6563,-3.6563,-3.6563,-3.6563,-3.6563,-3.6563,-3.6563,-3.6563,-3.6563,-3.6563,0.8848,0.745,0.6264,0.2333,0.1257,0.1257,0.0,0.0,0.0,-0.3582,-0.4476,-0.5906,-1.0026,-1.0921,-1.0916,-1.1422,-1.3108,-1.5155,-1.7113,-1.9401,-2.1738,-2.3828,-2.4269,-2.4474,-2.4829,-2.5638,-2.6736,-2.8101,-2.8439,-2.862,-2.862,-2.9004,-2.9937,-3.1623,-3.0523,-3.1952,-3.5558,-3.4672,-3.5948,-3.9673,-3.8292,-3.9494,-4.2669,-4.1062,-4.1255,-4.2861,-4.2861,-4.2861,-4.3053,-4.3626,-4.3817,-4.399,-4.4198,-4.475,-4.5129,-4.5129,-4.5506,-4.5883,-4.5883,-4.6434,-4.7112,-4.7112,-4.7644,-4.8286,-4.8286,-4.8286,-4.8286,-4.8286,-4.8286,-4.8359,-4.8708,-4.8799,-4.8891,-4.9294,-4.9698,-4.9823,-4.9484,-4.981,-4.9226,-4.6839,-4.6414,-4.4463,-3.8842,-3.8026,-3.7529,-3.6193,-3.6011,-3.6129,-3.6129,-3.5907,-3.5673,-3.5192,-3.497,-3.497,-3.497,-3.5223,-3.5489,-3.5742,-3.6032,-3.6297,-3.6563,-3.6563,-3.6563,-3.6563,-3.6563,-3.6563,-3.6563,-3.6563,-3.6563,-3.6563,-3.6563,-3.6563,0.8848,0.745,0.6085,0.1794,0.0718,0.0718,0.0718,0.0,-0.0718,-0.4295,0.0,-0.6799,-1.0738,0.0,0.0,-1.1308,-1.2972,-1.4992,-1.6928,-1.9195,-2.1521,-2.4124,-2.4696,-2.5012,-2.5377,-2.6353,-2.7227,-2.7848,-2.8331,-2.862,-2.862,-3.0306,-3.1434,-3.1623,-3.3135,-3.4566,-3.5558,-3.731,-3.8623,-3.9673,-4.1271,-4.2268,-4.2861,-4.2652,-4.2652,-4.2861,-4.2861,-4.3053,-4.3626,-4.4008,-4.456,-4.4939,-4.4578,-4.475,-4.5129,-4.5129,-4.5506,-4.5883,-4.5883,-4.6434,-4.7112,-4.7112,-4.7644,-4.8286,-4.8286,-4.8286,-4.8286,-4.8286,-4.8286,-4.8286,-4.8341,-4.8359,-4.8469,-4.8891,-4.9276,-4.968,-5.0046,-5.0224,-5.029,-4.9645,-4.9436,-4.7701,-4.2497,-4.0207,-3.9069,-3.8857,-3.7588,-3.6596,-3.6596,-3.6141,-3.5895,-3.5895,-3.5439,-3.497,-3.497,-3.5223,-3.5489,-3.5742,-3.6032,-3.6297,-3.6563,-3.6563,-3.6563,-3.6563,-3.6563,-3.6563,-3.6563,-3.6563,-3.6563,-3.6563,-3.6563,-3.6563,0.7933,0.6728,0.5728,0.1435,0.0539,0.0718,0.0359,0.018,-0.1076,-0.4655,0.0,0.0,0.0,0.0,0.0,0.0,-1.2997,-1.497,-1.6896,-1.907,-2.1343,-2.3879,-2.4492,-2.5195,-2.5924,-2.8026,-2.8904,-2.7811,-2.9432,-2.9746,-2.862,-2.9375,-3.0306,-3.1623,-3.2367,-3.4348,-3.7295,-3.8261,-3.9578,-4.1464,-4.246,-4.2861,-4.2861,-4.2861,-4.3053,-4.3244,-4.3244,-4.3626,-4.4198,-4.456,-4.4939,-4.5129,-4.5318,-4.5318,-4.5506,-4.5506,-4.5695,-4.5883,-4.5883,-4.6434,-4.7185,-4.7644,-4.8011,-4.8286,-4.8286,-4.8286,-4.8286,-4.8286,-4.8286,-4.8286,-4.8286,-4.8286,-4.8322,-4.8506,-4.9038,-4.9551,-4.9735,-5.0266,-5.0725,-5.0517,-5.029,-4.9645,-4.7473,-4.5027,-4.3293,-4.217,-4.188,-4.1159,-3.9562,-3.9359,-3.8419,-3.6584,-3.6141,-3.5907,-3.5661,-3.5561,-3.5806,-3.5742,-3.6165,-3.643,-3.6563,-3.6563,-3.6563,-3.6563,-3.6563,-3.6563,-3.6563,-3.6563,-3.6563,-3.6563,-3.6563,-3.6563,0.6276,0.5275,0.4478,0.0897,0.018,0.0359,0.0,-0.0359,-0.1793,-0.5013,-0.6085,0.0,0.0,0.0,-1.1621,-1.2113,0.0,-1.5652,-1.7521,-1.9665,-2.1934,-2.3949,-2.4822,-2.5742,-2.6482,-2.8515,-2.9371,-2.7986,-2.9545,-3.0039,-2.862,-2.9184,-3.0128,-3.1623,-3.2744,-3.4914,-3.864,-3.9223,-4.0545,-4.2861,-4.2861,-4.3053,-4.3053,-4.3244,-4.3435,-4.3817,-4.3817,-4.4198,-4.4578,-4.4939,-4.5129,-4.5318,-4.5695,-4.5883,-4.5883,-4.5883,-4.5883,-4.5883,-4.5883,-4.6434,-4.724,-4.8029,-4.8286,-4.8286,-4.8286,-4.8286,-4.8286,-4.8286,-4.8286,-4.8286,-4.8286,-4.8286,-4.8286,-4.8286,-4.8909,-4.9496,-4.9496,-5.0138,-5.0725,-5.0725,-5.0725,-5.0725,-5.0725,-4.8537,-4.662,-4.5291,-4.5233,-4.4563,-4.2761,-4.1861,-4.0498,-3.8214,-3.7296,-3.6622,-3.6129,-3.6129,-3.6131,-3.5982,-3.6273,-3.6563,-3.6563,-3.6563,-3.6563,-3.6563,-3.6563,-3.6563,-3.6563,-3.6563,-3.6563,-3.6563,-3.6563,-3.6563,0.388,0.3095,0.251,0.0538,0.0,0.0,0.0,-0.1435,-0.3404,-0.537,-0.7156,-0.9121,-1.1099,-1.1455,0.0,0.0,-1.5737,0.0,0.0,-2.1843,-2.3995,-2.4783,-2.6163,-2.7027,-2.7027,-2.7268,-2.7534,-2.7787,-2.8065,-2.8331,-2.8608,-3.0496,-3.1434,-3.1623,-3.5353,-3.7723,-3.8608,-4.0541,-4.209,-4.2861,-4.3244,-4.3626,-4.3626,-4.4198,-4.4388,-4.4388,-4.4388,-4.456,-4.5129,-4.5129,-4.5318,-4.5883,-4.5883,-4.5883,-4.5883,-4.5883,-4.5883,-4.5883,-4.5883,-4.6434,-4.724,-4.8029,-4.8286,-4.8286,-4.8286,-4.8286,-4.8286,-4.8286,-4.8286,-4.8286,-4.8286,-4.8286,-4.8286,-4.8286,-4.8909,-4.9496,-4.9496,-5.0138,-5.0725,-5.0725,-5.0725,-5.0725,-5.0725,-4.9425,-4.8192,-4.8192,-4.6805,-4.5885,-4.5692,-4.3201,-4.1389,-4.1188,-3.8678,-3.6843,-3.683,-3.683,-3.6849,-3.6701,-3.6505,-3.6563,-3.6563,-3.6563,-3.6563,-3.6563,-3.6563,-3.6563,-3.6563,-3.6563,-3.6563,-3.6563,-3.6563,-3.6563,0.3665,0.326,0.2868,0.0538,0.018,0.0359,0.0,-0.1435,-0.3404,-0.537,-0.7335,-0.9126,-1.1094,-1.1455,0.0,0.0,0.0,-1.7746,0.0,-2.2595,-2.4703,-2.5148,-2.5971,-2.6664,-2.7027,-2.8521,-2.897,-2.7787,-2.9343,-2.9621,-2.8608,-3.0496,-3.1623,-3.1623,-3.5539,-3.7814,-3.829,-4.0628,-4.2141,-4.2847,-4.3296,-4.3817,-4.4198,-4.4388,-4.456,-4.4939,-4.4939,-4.5129,-4.5695,-4.5695,-4.5695,-4.5883,-4.5883,-4.5883,-4.5883,-4.5883,-4.5883,-4.5975,-4.6507,-4.6874,-4.724,-4.8029,-4.8286,-4.8286,-4.8286,-4.8286,-4.8286,-4.8286,-4.8286,-4.8286,-4.8286,-4.8286,-4.8286,-4.8286,-4.8909,-4.9496,-4.9496,-5.0138,-5.0725,-5.0725,-5.0725,-5.0725,-5.0725,-5.0733,-5.0616,-5.0616,-5.0608,-5.0168,-4.8584,-4.747,-4.5466,-4.2304,-4.1159,-3.9562,-3.7529,-3.7242,-3.7051,-3.6701,-3.6843,-3.6858,-3.6563,-3.6563,-3.6563,-3.6563,-3.6563,-3.6563,-3.6563,-3.6563,-3.6563,-3.6563,-3.6563,-3.6563,0.2191,0.2169,0.1973,0.0359,-0.0359,-0.0718,-0.0897,-0.3046,-0.5191,-0.6442,-0.823,-1.0021,-1.1277,-1.1455,0.0,0.0,0.0,0.0,0.0,-2.36,-2.5336,-2.5689,-2.6151,-2.6664,-2.7027,-2.8251,-2.8869,-2.7787,-2.9068,-2.952,-2.8596,-2.9746,-3.0877,-3.1623,-3.4966,-3.738,-3.8489,-4.0933,-4.265,-4.3222,-4.3797,-4.437,-4.456,-4.4768,-4.5129,-4.5318,-4.5318,-4.5506,-4.5883,-4.5883,-4.5883,-4.5883,-4.5883,-4.5883,-4.5883,-4.5883,-4.5883,-4.6012,-4.6819,-4.7112,-4.724,-4.8029,-4.8286,-4.8286,-4.8286,-4.8286,-4.8249,-4.8121,-4.8176,-4.8249,-4.8102,-4.8176,-4.8286,-4.8286,-4.8909,-4.9496,-4.9496,-5.0138,-5.0725,-5.0725,-5.0725,-5.0725,-5.0725,-5.1275,-5.177,-5.1917,-5.2614,-5.2636,-5.1067,-4.9965,-4.7933,-4.4095,-4.2761,-4.1174,-3.8253,-3.7801,-3.7613,-3.743,-3.7468,-3.7501,-3.7274,-3.7066,-3.6772,-3.6675,-3.6748,-3.6527,-3.643,-3.6527,-3.6563,-3.6563,-3.6563,-3.6563]},{"header":{"parameterUnit":"m.s-1","parameterCategory":1,"la1":30.6,"la2":29.2853,"lo1":-89.7004,"lo2":-87.6739,"dy":0.0162,"dx":0.0183,"nx":112,"ny":82,"refTime":"2023-11-10T18:00:00:Z","depth":0,"parameterNumber":3,"parameterNumberName":"V-component_of_WINDS"},"data":[0.0,0.0,0.0,0.0,0.0,0.0,0.0,0.0,0.0,0.0,0.0,0.0,0.0,0.0,0.0,0.0,0.0,0.0,0.0,0.0,0.0,0.0,0.0,0.0,0.0,0.0,0.0,0.0,0.0,0.0,0.0,0.0,0.0,0.0,0.0,0.0,0.0,0.0,0.0,0.0,0.0,0.0,0.0,0.0,0.0,0.0,0.0,0.0,0.0,0.0,0.0,0.0,0.0,0.0,0.0,0.0,0.0,0.0,0.0,0.0,0.0,0.0,0.0,0.0,0.0,0.0,0.0,0.0,0.0,0.0,0.0,0.0,0.0,0.0,0.0,0.0,0.0,0.0,0.0,0.0,0.0,0.0,0.0,0.0,0.0,0.0,0.0,0.0,0.0,0.0,8.5363,8.6017,8.6209,8.6286,8.6286,8.644,8.6483,8.638,0.0,0.0,0.0,0.0,0.0,0.0,0.0,0.0,0.0,0.0,0.0,0.0,0.0,0.0,0.0,0.0,0.0,0.0,0.0,0.0,0.0,0.0,0.0,0.0,0.0,0.0,0.0,0.0,0.0,0.0,0.0,0.0,0.0,0.0,0.0,0.0,0.0,0.0,0.0,0.0,0.0,0.0,0.0,0.0,0.0,0.0,0.0,0.0,0.0,0.0,0.0,0.0,0.0,0.0,0.0,0.0,0.0,0.0,0.0,0.0,0.0,0.0,0.0,0.0,0.0,0.0,0.0,0.0,0.0,0.0,0.0,0.0,0.0,0.0,0.0,0.0,0.0,0.0,0.0,0.0,0.0,0.0,0.0,0.0,0.0,0.0,0.0,0.0,0.0,0.0,0.0,0.0,0.0,0.0,0.0,0.0,0.0,0.0,0.0,0.0,0.0,0.0,0.0,0.0,8.5978,8.6094,8.6748,8.7209,8.7209,8.7863,8.8252,8.8109,0.0,0.0,0.0,0.0,0.0,0.0,0.0,0.0,0.0,0.0,0.0,0.0,0.0,0.0,0.0,0.0,0.0,0.0,0.0,0.0,0.0,0.0,0.0,0.0,0.0,0.0,0.0,0.0,0.0,0.0,0.0,0.0,0.0,0.0,0.0,0.0,0.0,0.0,0.0,0.0,0.0,0.0,0.0,0.0,0.0,0.0,0.0,0.0,0.0,0.0,0.0,0.0,0.0,0.0,0.0,0.0,0.0,0.0,0.0,0.0,0.0,0.0,0.0,0.0,0.0,0.0,0.0,0.0,0.0,0.0,0.0,0.0,0.0,0.0,0.0,0.0,0.0,0.0,0.0,0.0,0.0,0.0,0.0,0.0,0.0,0.0,0.0,0.0,0.0,0.0,0.0,0.0,0.0,0.0,0.0,0.0,0.0,0.0,0.0,0.0,0.0,0.0,0.0,8.6978,8.7517,8.7517,8.7791,8.7987,8.7987,8.8336,8.8459,8.8346,8.7618,0.0,0.0,0.0,0.0,0.0,0.0,0.0,0.0,0.0,0.0,0.0,0.0,0.0,0.0,0.0,0.0,0.0,0.0,0.0,0.0,0.0,0.0,0.0,0.0,0.0,0.0,0.0,0.0,0.0,0.0,0.0,0.0,0.0,0.0,0.0,0.0,0.0,0.0,0.0,0.0,0.0,0.0,0.0,0.0,0.0,0.0,0.0,0.0,0.0,0.0,0.0,0.0,0.0,0.0,0.0,0.0,0.0,0.0,0.0,0.0,0.0,0.0,0.0,0.0,0.0,0.0,0.0,0.0,0.0,0.0,0.0,0.0,0.0,0.0,0.0,0.0,0.0,0.0,0.0,0.0,0.0,0.0,0.0,0.0,0.0,0.0,0.0,0.0,0.0,0.0,0.0,0.0,0.0,0.0,0.0,0.0,0.0,0.0,0.0,0.0,0.0,0.0,8.8286,8.8709,8.8709,8.8756,8.8836,8.88,8.8919,8.8922,8.8805,8.8614,0.0,0.0,0.0,0.0,0.0,0.0,0.0,0.0,0.0,0.0,0.0,0.0,0.0,0.0,0.0,0.0,0.0,0.0,0.0,0.0,0.0,0.0,0.0,0.0,0.0,0.0,0.0,0.0,0.0,0.0,0.0,0.0,0.0,0.0,0.0,0.0,0.0,0.0,0.0,0.0,0.0,0.0,0.0,0.0,0.0,0.0,0.0,0.0,0.0,0.0,0.0,0.0,0.0,0.0,0.0,0.0,0.0,0.0,0.0,0.0,0.0,0.0,0.0,0.0,0.0,0.0,0.0,0.0,0.0,0.0,0.0,0.0,0.0,0.0,0.0,0.0,0.0,0.0,0.0,0.0,0.0,0.0,0.0,0.0,0.0,0.0,0.0,0.0,0.0,0.0,0.0,0.0,0.0,0.0,0.0,0.0,0.0,0.0,0.0,0.0,0.0,0.0,8.8671,8.8709,8.8709,8.9363,8.979,8.9683,9.0413,9.0724,9.0528,8.9839,0.0,0.0,0.0,0.0,0.0,0.0,0.0,0.0,0.0,0.0,0.0,0.0,0.0,0.0,0.0,0.0,0.0,0.0,0.0,0.0,0.0,0.0,0.0,0.0,0.0,0.0,0.0,0.0,0.0,0.0,0.0,0.0,0.0,0.0,0.0,0.0,0.0,0.0,0.0,0.0,0.0,0.0,0.0,0.0,0.0,0.0,0.0,0.0,0.0,0.0,0.0,0.0,0.0,0.0,0.0,0.0,0.0,0.0,0.0,0.0,0.0,0.0,0.0,0.0,0.0,0.0,0.0,0.0,0.0,0.0,0.0,0.0,0.0,0.0,0.0,0.0,0.0,0.0,0.0,0.0,0.0,0.0,0.0,0.0,0.0,0.0,0.0,0.0,0.0,0.0,0.0,0.0,0.0,0.0,0.0,0.0,0.0,0.0,0.0,0.0,0.0,0.0,8.9832,9.0104,9.0104,9.0262,9.0379,9.0378,9.0568,9.0717,9.0635,0.0,0.0,0.0,0.0,0.0,0.0,0.0,0.0,0.0,0.0,0.0,0.0,0.0,0.0,0.0,0.0,0.0,0.0,0.0,0.0,0.0,0.0,0.0,0.0,0.0,0.0,0.0,0.0,0.0,0.0,0.0,0.0,0.0,0.0,0.0,0.0,0.0,0.0,0.0,0.0,0.0,0.0,0.0,0.0,0.0,0.0,0.0,0.0,0.0,0.0,0.0,0.0,0.0,0.0,0.0,0.0,0.0,0.0,0.0,0.0,0.0,0.0,0.0,0.0,0.0,0.0,0.0,0.0,0.0,0.0,0.0,0.0,0.0,0.0,0.0,0.0,0.0,0.0,0.0,0.0,0.0,0.0,0.0,0.0,0.0,0.0,0.0,0.0,0.0,0.0,0.0,0.0,0.0,0.0,0.0,0.0,0.0,0.0,0.0,0.0,0.0,0.0,9.0183,9.0718,9.1064,9.0989,9.0915,9.0799,9.0719,9.0638,9.0635,9.0593,0.0,0.0,0.0,0.0,0.0,0.0,0.0,0.0,0.0,0.0,0.0,0.0,0.0,0.0,0.0,0.0,0.0,0.0,0.0,0.0,0.0,0.0,0.0,0.0,0.0,0.0,0.0,0.0,0.0,0.0,0.0,0.0,0.0,0.0,0.0,0.0,0.0,0.0,0.0,0.0,0.0,0.0,0.0,0.0,0.0,0.0,0.0,0.0,0.0,0.0,0.0,0.0,0.0,0.0,0.0,0.0,0.0,0.0,0.0,0.0,0.0,0.0,0.0,0.0,0.0,0.0,0.0,0.0,0.0,0.0,0.0,0.0,0.0,0.0,0.0,0.0,0.0,0.0,0.0,0.0,0.0,0.0,0.0,0.0,0.0,0.0,0.0,0.0,0.0,0.0,0.0,0.0,0.0,0.0,0.0,0.0,0.0,0.0,0.0,0.0,0.0,0.0,9.1028,9.1139,9.1175,9.1028,9.1028,9.0953,9.0719,9.0758,9.0717,0.0,0.0,0.0,0.0,0.0,0.0,0.0,0.0,0.0,0.0,0.0,0.0,0.0,0.0,0.0,0.0,0.0,0.0,0.0,0.0,0.0,0.0,0.0,0.0,0.0,0.0,0.0,0.0,0.0,0.0,0.0,0.0,0.0,0.0,0.0,0.0,0.0,0.0,0.0,0.0,0.0,0.0,0.0,0.0,0.0,0.0,0.0,0.0,0.0,0.0,0.0,0.0,0.0,0.0,0.0,0.0,0.0,0.0,0.0,0.0,0.0,0.0,0.0,0.0,0.0,0.0,0.0,0.0,0.0,0.0,0.0,0.0,0.0,0.0,0.0,0.0,0.0,0.0,0.0,0.0,0.0,0.0,0.0,0.0,0.0,0.0,0.0,0.0,0.0,0.0,0.0,0.0,0.0,0.0,0.0,0.0,0.0,0.0,0.0,0.0,0.0,0.0,0.0,9.172,9.2218,9.2601,9.2561,9.248,9.2477,9.2393,9.2393,9.2126,9.1472,0.0,0.0,0.0,0.0,0.0,0.0,0.0,0.0,0.0,0.0,0.0,0.0,0.0,0.0,0.0,0.0,0.0,0.0,0.0,0.0,0.0,0.0,0.0,0.0,0.0,0.0,0.0,0.0,0.0,0.0,0.0,0.0,0.0,0.0,0.0,0.0,0.0,0.0,0.0,0.0,0.0,0.0,0.0,0.0,0.0,0.0,0.0,0.0,0.0,0.0,0.0,0.0,0.0,0.0,0.0,0.0,0.0,0.0,0.0,0.0,0.0,0.0,0.0,0.0,0.0,0.0,0.0,0.0,0.0,0.0,0.0,0.0,0.0,0.0,0.0,0.0,0.0,0.0,0.0,0.0,0.0,0.0,0.0,0.0,0.0,0.0,0.0,0.0,0.0,0.0,0.0,0.0,0.0,0.0,0.0,0.0,0.0,0.0,0.0,0.0,0.0,0.0,9.248,9.2942,9.3249,9.3207,9.3124,9.312,9.3115,9.3115,9.2886,9.2351,0.0,0.0,0.0,0.0,0.0,0.0,0.0,0.0,0.0,0.0,0.0,0.0,0.0,0.0,0.0,0.0,0.0,0.0,0.0,0.0,0.0,0.0,0.0,0.0,0.0,0.0,0.0,0.0,0.0,0.0,0.0,0.0,0.0,0.0,0.0,0.0,0.0,0.0,0.0,0.0,0.0,0.0,0.0,0.0,0.0,0.0,0.0,0.0,0.0,0.0,0.0,0.0,0.0,0.0,0.0,0.0,0.0,0.0,0.0,0.0,0.0,0.0,0.0,0.0,0.0,0.0,0.0,0.0,0.0,0.0,0.0,0.0,0.0,0.0,0.0,0.0,0.0,0.0,0.0,0.0,0.0,0.0,0.0,0.0,0.0,0.0,0.0,0.0,0.0,0.0,0.0,0.0,0.0,0.0,0.0,0.0,0.0,0.0,0.0,0.0,0.0,0.0,9.3281,9.3481,9.3558,9.3437,9.3395,9.3434,9.3344,9.3344,9.3306,9.3229,0.0,0.0,0.0,0.0,0.0,0.0,0.0,0.0,0.0,0.0,0.0,0.0,0.0,0.0,0.0,0.0,0.0,0.0,0.0,0.0,0.0,0.0,0.0,0.0,0.0,0.0,0.0,0.0,0.0,0.0,0.0,0.0,0.0,0.0,0.0,0.0,0.0,0.0,0.0,0.0,0.0,0.0,0.0,0.0,0.0,0.0,0.0,0.0,0.0,0.0,0.0,0.0,0.0,0.0,0.0,0.0,0.0,0.0,0.0,0.0,8.3247,8.3324,0.0,0.0,0.0,0.0,0.0,0.0,0.0,0.0,0.0,0.0,0.0,0.0,0.0,0.0,0.0,0.0,0.0,0.0,0.0,0.0,0.0,0.0,0.0,0.0,0.0,0.0,0.0,0.0,0.0,0.0,0.0,0.0,0.0,0.0,0.0,0.0,0.0,0.0,0.0,0.0,9.4152,9.4725,9.5107,9.5107,9.5107,9.5107,9.5064,9.5064,9.4796,9.4146,9.4156,0.0,0.0,0.0,0.0,0.0,0.0,0.0,0.0,0.0,0.0,0.0,0.0,0.0,0.0,0.0,0.0,0.0,0.0,0.0,0.0,0.0,0.0,0.0,0.0,0.0,0.0,0.0,0.0,0.0,0.0,0.0,0.0,0.0,0.0,0.0,0.0,0.0,0.0,0.0,0.0,0.0,0.0,0.0,0.0,0.0,0.0,0.0,0.0,0.0,0.0,0.0,0.0,0.0,0.0,0.0,0.0,0.0,0.0,0.0,8.4401,8.4209,0.0,0.0,0.0,0.0,0.0,0.0,0.0,0.0,0.0,0.0,0.0,0.0,0.0,0.0,0.0,0.0,0.0,0.0,0.0,0.0,0.0,0.0,0.0,0.0,0.0,0.0,0.0,0.0,0.0,0.0,0.0,0.0,0.0,0.0,0.0,0.0,0.0,0.0,0.0,0.0,9.4987,9.5331,9.5598,9.5598,9.5598,9.5598,9.5598,9.5643,9.5533,9.5113,9.5121,0.0,0.0,0.0,0.0,0.0,0.0,0.0,0.0,0.0,0.0,0.0,0.0,0.0,0.0,0.0,0.0,0.0,0.0,0.0,0.0,0.0,0.0,0.0,0.0,0.0,0.0,0.0,0.0,0.0,0.0,0.0,0.0,0.0,0.0,0.0,0.0,0.0,0.0,0.0,0.0,0.0,0.0,0.0,0.0,0.0,0.0,0.0,0.0,0.0,0.0,0.0,0.0,0.0,8.4324,8.4478,8.4516,8.5901,8.6555,8.6517,8.5863,8.5555,8.567,8.7055,0.0,0.0,0.0,0.0,0.0,0.0,0.0,0.0,0.0,0.0,0.0,0.0,0.0,0.0,0.0,0.0,0.0,0.0,0.0,0.0,0.0,0.0,9.5018,9.5172,9.4598,9.4253,9.4907,0.0,0.0,0.0,0.0,0.0,0.0,0.0,0.0,0.0,0.0,0.0,9.5598,9.5598,9.5598,9.5598,9.5598,9.5643,9.5643,9.5729,9.5814,9.5859,9.5942,9.5982,0.0,0.0,0.0,0.0,0.0,0.0,0.0,0.0,0.0,0.0,0.0,0.0,0.0,0.0,0.0,0.0,0.0,0.0,0.0,0.0,0.0,0.0,0.0,0.0,0.0,0.0,0.0,0.0,0.0,0.0,0.0,0.0,8.0785,8.09,0.0,0.0,0.0,0.0,0.0,0.0,0.0,0.0,0.0,0.0,0.0,0.0,0.0,8.3478,8.3593,8.5055,8.5786,8.5786,8.7286,8.8017,8.8017,8.8248,8.8363,8.8363,8.8248,0.0,8.8209,8.844,0.0,0.0,0.0,0.0,0.0,0.0,0.0,0.0,0.0,0.0,0.0,0.0,0.0,0.0,0.0,0.0,0.0,0.0,0.0,0.0,0.0,0.0,9.5172,9.5942,9.6057,9.5943,9.6058,9.5368,9.4905,9.544,9.5555,9.5591,0.0,0.0,0.0,0.0,0.0,0.0,9.5598,9.5598,9.5598,9.5598,9.5686,9.5768,9.5768,9.5856,9.5982,9.6236,9.6338,9.646,9.6483,9.6643,0.0,0.0,0.0,0.0,0.0,0.0,0.0,0.0,0.0,0.0,0.0,0.0,0.0,0.0,0.0,0.0,0.0,0.0,0.0,0.0,0.0,0.0,0.0,0.0,0.0,0.0,0.0,0.0,0.0,8.0862,8.1093,8.1093,8.1093,8.1285,0.0,0.0,0.0,0.0,0.0,0.0,0.0,0.0,0.0,8.4978,8.5016,8.5478,8.644,8.7171,8.7555,8.7555,8.8325,8.8709,8.8709,8.9171,8.9363,8.944,9.0402,9.0825,9.0748,8.9787,8.9363,8.9479,0.0,0.0,0.0,0.0,9.221,9.2595,9.2595,9.2595,9.2672,9.3056,0.0,0.0,0.0,0.0,0.0,0.0,0.0,9.5249,9.5634,9.5711,9.5826,9.6097,9.6251,9.6288,9.6213,9.5867,9.5675,9.5982,9.5938,9.5814,9.581,9.5768,0.0,0.0,0.0,9.5643,9.5686,9.5686,9.5729,9.5734,9.5818,9.5941,9.6097,9.6207,9.6338,9.6599,9.672,9.6799,9.6795,9.6881,9.692,0.0,0.0,0.0,0.0,0.0,0.0,0.0,0.0,0.0,0.0,0.0,0.0,0.0,0.0,0.0,0.0,0.0,0.0,0.0,0.0,0.0,0.0,0.0,0.0,0.0,0.0,0.0,0.0,8.1093,8.117,8.1362,8.14,8.1747,0.0,0.0,0.0,0.0,0.0,0.0,8.4209,8.4439,8.5247,8.6709,8.6786,8.7401,8.8671,8.8902,8.9017,8.9017,8.944,8.9671,8.971,9.0517,9.0864,9.0941,9.2249,9.2826,9.271,9.1402,9.0864,9.0941,9.1595,9.2249,9.2826,9.2826,9.3172,9.371,9.371,9.371,9.3749,9.3941,9.4172,9.4364,9.4364,0.0,0.0,0.0,0.0,9.6288,9.6288,9.6288,9.6251,9.6136,9.6213,9.6213,9.6098,9.6098,9.6175,9.6136,9.6057,9.5936,9.5814,9.5729,0.0,9.5598,9.5598,9.5643,9.581,9.581,9.5814,9.59,9.5941,9.6059,9.6338,9.6436,9.6638,9.6888,9.703,9.711,9.7168,9.7168,9.7168,9.7168,0.0,0.0,0.0,0.0,0.0,0.0,0.0,0.0,0.0,0.0,0.0,0.0,0.0,0.0,0.0,0.0,0.0,0.0,0.0,0.0,0.0,0.0,0.0,0.0,0.0,0.0,0.0,0.0,0.0,8.2131,8.2247,0.0,0.0,0.0,0.0,8.3593,8.4362,8.517,8.594,8.6748,8.7632,8.8517,8.8556,8.8594,8.8709,8.9479,8.9863,8.9863,9.1518,9.2326,9.2326,9.3133,9.3518,9.3518,9.3595,9.3633,9.3633,9.3557,9.3518,9.3518,9.3557,9.3595,9.3633,9.3633,9.3672,9.371,9.371,9.371,9.3826,9.4672,9.548,9.6172,9.6172,9.6211,0.0,0.0,9.6288,9.6288,9.6288,9.6288,9.6251,9.6136,9.6098,9.6098,9.5941,9.5856,9.5936,9.6213,9.6251,9.6213,9.5941,0.0,9.5818,9.5643,9.5598,9.5643,9.581,9.581,9.5814,9.59,9.5981,9.6211,9.6474,9.6529,9.6799,9.7271,9.7286,9.7396,9.7659,9.7659,9.7659,9.7659,9.7659,0.0,0.0,0.0,0.0,0.0,0.0,0.0,0.0,0.0,0.0,0.0,0.0,0.0,0.0,0.0,0.0,0.0,0.0,0.0,0.0,0.0,0.0,0.0,0.0,0.0,0.0,0.0,0.0,8.2285,8.2785,0.0,8.4362,8.4439,8.4863,8.594,8.6324,8.6863,8.7709,8.8055,8.8632,8.944,8.9479,9.0017,9.1133,9.1441,9.1825,9.2364,9.2979,9.3249,9.3287,9.3557,9.371,9.371,9.4287,9.4518,9.4557,9.5134,9.4711,9.371,9.371,9.4018,9.4518,9.4518,9.4903,9.5365,9.5365,9.5365,9.5403,9.5749,9.6057,9.6288,9.6288,9.6288,9.6288,9.6288,9.6288,9.6288,9.6288,9.6288,9.6251,9.602,9.6058,9.6212,9.6508,9.6661,9.6897,9.7634,9.6708,9.5856,9.5856,9.5772,9.5839,9.6363,9.6489,9.6767,9.7427,9.7587,9.7631,9.775,9.7935,9.816,9.8401,9.8597,9.8857,9.9221,9.9221,9.928,9.9353,9.9353,9.9353,9.9353,9.9353,9.9353,0.0,0.0,0.0,0.0,0.0,0.0,0.0,0.0,0.0,0.0,0.0,0.0,0.0,0.0,0.0,0.0,0.0,0.0,0.0,0.0,0.0,0.0,0.0,0.0,0.0,8.2208,8.2862,8.3131,8.367,8.4478,8.5632,8.5747,8.6324,8.7709,8.7825,8.8209,8.9056,8.9094,8.9633,9.0748,9.0787,9.1479,9.2903,9.2903,9.3172,9.371,9.398,9.4134,9.4134,9.4441,9.4595,9.4595,9.5172,9.5441,9.548,9.6057,9.5634,9.4595,9.4595,9.4941,9.5441,9.5441,9.5788,9.6288,9.6288,9.6288,9.6288,9.6288,9.6288,9.6288,9.6288,9.6288,9.6288,9.6288,9.6288,9.6365,9.6634,9.6674,9.6674,9.6746,9.6823,9.6935,9.726,9.7456,9.7695,9.8274,9.7465,9.6657,9.6699,9.6657,9.6806,9.7331,9.7456,9.7733,9.8393,9.8552,9.8673,9.8934,9.9095,9.9317,9.9617,9.9808,9.9982,10.0282,10.029,10.029,10.029,10.029,10.029,10.029,10.029,10.029,10.0298,0.0,0.0,0.0,0.0,0.0,0.0,0.0,0.0,0.0,0.0,0.0,0.0,0.0,0.0,0.0,0.0,0.0,0.0,0.0,0.0,0.0,0.0,0.0,8.2439,8.3093,8.3939,8.4824,8.4978,8.5632,8.7286,8.744,8.7786,8.8671,8.8748,8.9094,8.994,8.9979,9.0787,9.2479,9.2556,9.2903,9.371,9.3749,9.3749,9.3787,9.4634,9.5018,9.5057,9.5903,9.6288,9.6288,9.6288,9.6288,9.6288,9.6288,9.6288,9.6288,9.6288,9.6288,9.6288,9.6288,9.6288,9.6288,9.6288,9.6288,9.6288,9.6288,9.6288,9.6288,9.6288,9.6326,9.6326,9.6326,9.6365,9.6557,9.7326,9.7481,9.7594,9.8319,9.8385,9.8255,9.8204,9.8158,9.8158,9.8197,9.8423,9.8671,9.8633,9.8594,9.8552,9.838,9.8466,0.0,9.8587,9.8669,9.8863,9.9228,9.9289,9.9501,9.9936,10.0005,10.0099,10.0399,10.0407,10.0407,10.0407,10.0407,10.0407,10.0407,10.0407,10.0415,10.0395,0.0,0.0,0.0,0.0,0.0,0.0,0.0,0.0,0.0,0.0,0.0,0.0,0.0,0.0,0.0,0.0,0.0,0.0,0.0,0.0,0.0,8.4132,8.4247,8.3362,8.3978,8.4863,8.567,8.6324,8.7132,8.8248,8.8325,8.8671,8.9517,8.9556,9.021,9.171,9.1787,9.2287,9.3326,9.3364,9.3787,9.4634,9.4634,9.4941,9.5595,9.5826,9.5942,9.5942,9.6172,9.6288,9.6288,9.6288,9.6288,9.6288,9.6288,9.6288,9.6288,9.6288,9.6288,9.6288,9.6288,9.6288,9.6288,9.6288,9.6288,9.6288,9.6288,9.6288,9.6288,9.6288,9.6711,9.7173,9.7173,9.7634,9.8173,9.8404,9.8404,9.8442,9.8556,9.8511,9.8576,9.9102,9.9083,9.9274,9.9938,10.0103,9.9802,9.8576,9.8469,9.8741,9.9232,9.9431,9.9826,10.0627,10.0809,10.1007,10.1311,10.1501,10.1603,10.1821,10.1879,10.1982,10.2086,10.2086,10.2086,10.2086,10.2086,10.2086,10.2086,10.2101,10.2107,0.0,0.0,0.0,0.0,0.0,0.0,0.0,0.0,0.0,0.0,0.0,0.0,0.0,0.0,0.0,0.0,0.0,0.0,0.0,0.0,0.0,0.0,8.5632,8.5901,8.5747,8.5863,8.6247,8.7094,8.7632,8.8286,8.9133,8.921,8.971,9.0902,9.0979,9.1595,9.2941,9.2979,9.3364,9.421,9.4249,9.4672,9.5518,9.5518,9.5788,9.6288,9.6288,9.6288,9.6288,9.6288,9.6288,9.6288,9.6288,9.6288,9.6288,9.6288,9.6288,9.6288,0.0,0.0,0.0,0.0,9.6288,9.6288,9.6288,9.6288,9.6365,9.6711,9.6788,9.6865,9.725,9.7673,9.8057,9.8057,9.8404,9.8865,9.925,9.9288,9.9326,9.9593,9.9626,9.9658,10.0109,10.0103,10.0212,10.0793,10.0919,0.0,9.9654,9.9585,9.9821,10.0404,10.0595,10.0891,10.1572,10.1807,10.2009,10.2225,10.269,10.3021,10.3193,10.3612,0.0,0.0,0.0,10.3882,10.3882,10.3491,0.0,0.0,0.0,10.2783,10.2792,10.2683,0.0,0.0,10.1199,10.1,0.0,0.0,0.0,0.0,0.0,0.0,0.0,0.0,0.0,0.0,0.0,0.0,0.0,0.0,0.0,0.0,8.7555,8.7863,8.8709,8.8171,8.7979,8.8748,8.8825,8.9133,8.9979,9.0133,9.0825,9.2364,9.2595,9.2979,9.3787,9.3826,0.0,0.0,0.0,9.5518,9.6288,9.6288,9.6288,9.6288,9.6288,9.6288,9.6288,9.6288,9.6288,9.6288,9.6288,9.6288,9.6288,9.6288,9.6365,9.6442,9.6326,9.6365,9.6442,9.6442,9.6519,9.6596,9.6596,0.0,0.0,9.7403,9.7634,9.7788,9.8557,9.8865,9.8942,9.8942,9.9019,9.925,9.9981,10.0095,10.0324,10.1016,10.1126,10.1004,10.1004,10.1,10.1,10.1,10.1085,10.1206,10.1402,10.1287,10.1327,10.1495,10.1703,10.1923,10.2099,10.2288,10.2498,10.2811,10.3489,0.0,10.4186,10.5014,10.5404,10.5404,10.5404,10.5404,10.5404,10.4702,10.4209,10.4183,10.3486,10.3105,10.3199,10.398,10.4296,10.4297,10.2806,10.2488,0.0,0.0,0.0,0.0,0.0,0.0,0.0,0.0,0.0,0.0,0.0,0.0,0.0,0.0,0.0,8.8402,8.844,8.8709,8.9556,8.9517,8.9479,8.9671,8.9671,9.0017,9.0864,9.1595,9.2133,9.2479,9.3095,9.3826,9.4711,9.4749,9.5134,9.6019,9.6057,9.6134,9.6288,9.6288,9.6288,9.6288,9.6288,0.0,9.6288,9.6288,9.6288,9.6288,9.6288,9.6288,9.6288,9.6288,9.6673,9.7211,9.6557,9.6711,9.7288,9.7288,9.7711,9.8327,9.8327,9.8327,9.8327,9.8481,9.8557,9.8596,9.875,9.9288,0.0,9.9827,10.0289,10.0904,10.1019,10.098,10.1096,10.1211,10.1208,10.1206,10.1206,10.1123,10.1,10.1,10.1004,10.1283,10.2318,10.1997,10.16,10.1703,10.2483,10.3088,10.3295,10.3993,10.4487,10.4783,10.4988,10.5114,10.5092,10.5287,10.5404,10.5404,10.5404,10.5404,10.5404,10.5185,10.512,10.5081,10.4984,10.4915,10.4918,10.5116,10.5195,10.5195,10.4882,10.4803,0.0,0.0,0.0,0.0,0.0,0.0,0.0,0.0,0.0,0.0,0.0,8.8055,8.8055,0.0,8.8825,8.9248,8.9286,8.9594,9.0441,9.0941,9.1056,9.0594,9.0941,9.1364,9.1825,9.2595,9.3287,9.371,9.4095,9.4711,9.5595,9.5634,9.5865,9.6288,9.6288,9.6288,9.6288,9.6288,9.6288,9.6288,9.6288,9.6288,9.6288,9.6288,9.6288,9.6326,9.6749,9.6903,9.6942,9.7365,9.7788,9.8096,9.7711,9.7788,9.8134,9.8134,9.8442,9.8788,9.8788,9.8788,9.8865,9.9288,9.9442,9.9519,9.9942,10.0404,10.0712,10.0712,10.1019,10.1289,10.1289,10.1289,10.1289,10.1289,10.1288,10.1287,10.1287,10.1289,10.1402,10.1402,10.1813,10.2399,10.3008,10.3199,10.3399,10.3399,10.3799,10.4287,10.4493,10.4895,10.5308,10.5396,10.5795,10.6107,10.6107,10.6497,10.6693,10.6693,10.6693,10.67,10.6708,10.6285,10.6102,10.6116,10.5618,10.5388,10.5507,10.5898,10.6093,10.6093,10.6484,10.6289,0.0,0.0,0.0,0.0,0.0,0.0,0.0,8.7017,8.7632,8.7632,8.8325,8.894,8.894,8.9056,8.9402,9.0056,9.0171,9.0479,9.1325,9.2056,9.2287,9.1748,9.2326,9.271,9.271,9.348,9.4249,9.4941,9.5172,9.5557,9.6249,9.6288,9.6288,9.6288,9.6288,9.6288,9.6288,9.6288,9.6288,9.6288,9.6288,9.6288,9.6326,9.648,9.6519,9.6596,9.7403,9.775,9.7827,9.8673,9.9058,9.9058,9.9211,9.9288,9.925,9.9096,9.9135,9.9288,9.9288,9.9288,9.9404,10.0096,10.0289,10.0481,10.1096,10.1289,10.1289,10.1289,10.1289,10.1289,10.1289,10.1289,10.1289,10.1289,10.1289,10.1289,10.1404,10.15,10.1804,10.2019,10.2798,10.3516,10.3911,10.4697,10.5188,10.4994,10.5204,10.539,10.5591,10.5795,10.5912,10.5912,10.6497,10.7005,10.7005,10.759,10.7981,10.7989,10.7989,10.7996,10.8016,10.7313,10.7015,10.6988,10.6287,10.5897,10.6015,10.6601,10.6992,10.6992,10.7695,10.7304,8.4516,8.5286,8.5824,8.594,8.6555,8.7132,0.0,8.794,8.8556,8.8556,8.921,8.9787,8.9787,9.0402,9.0941,9.1056,9.1056,9.1364,9.221,9.2441,9.271,9.3364,9.3518,9.3557,9.3557,9.4326,9.4903,9.498,9.5711,9.6211,9.6288,9.6288,9.6288,9.6288,9.6288,9.6288,9.6288,9.6288,9.6288,9.6288,9.6288,9.6288,9.6326,9.7057,9.7365,9.7403,9.8288,9.8634,9.8711,9.9596,9.9942,9.9981,10.0712,10.1019,10.0904,10.0212,10.0404,10.1019,10.1019,10.1019,10.1019,10.1096,10.1212,10.1212,10.1289,10.1289,10.1289,10.1289,10.1289,10.1289,10.1289,10.1289,10.1289,10.1289,10.1289,10.1366,10.1606,10.1703,10.2019,10.2992,10.3274,10.3872,10.5706,10.6108,10.589,10.511,10.5921,10.6489,10.6614,10.72,10.7708,10.7708,10.7786,10.7903,10.7903,10.7903,10.7989,10.8003,10.801,10.8016,10.7987,10.7881,10.7886,10.7886,10.7811,10.7695,10.7695,10.7812,10.789,10.789,10.8008,10.789,8.5363,8.6594,8.7478,8.6978,8.7517,8.8171,8.8171,8.8786,8.9402,8.9402,9.0056,9.0671,9.0671,9.0941,9.1364,9.1864,9.1979,9.2249,9.3095,9.3633,9.4057,9.4403,9.4903,9.5018,9.4518,9.5249,9.5749,9.5749,9.6095,9.6288,9.6288,9.6288,9.6288,9.6288,9.6288,9.6288,9.6288,9.6288,9.6288,9.6288,9.6288,9.6557,9.7019,9.7365,9.8057,9.9019,9.9404,9.9827,10.0289,10.0596,10.0789,10.0789,10.1212,10.1289,10.1289,10.0904,10.1019,10.1289,10.1289,10.1289,10.1289,10.1289,10.1289,10.1289,10.1289,10.1289,10.1289,10.1289,10.1289,10.1289,10.1508,10.1504,10.1611,10.1688,10.1826,10.1817,10.1891,10.2395,10.3,10.3491,10.4494,10.5584,10.6389,10.6986,10.722,10.6791,10.7212,10.7512,10.7512,10.7786,10.802,10.802,10.7989,10.7996,10.7996,10.801,10.8016,10.7982,10.7982,10.7991,10.7998,10.8003,10.8005,10.8007,10.8007,10.8008,10.8008,10.8008,10.8281,10.8789,10.8789,10.8984,8.6671,8.7748,8.8556,8.7902,8.8402,8.9017,8.9017,8.9671,9.0287,9.0287,9.0748,9.1287,9.1518,9.1556,9.1825,9.2672,9.2826,9.3133,9.3941,9.4595,9.5095,9.5326,9.5903,9.6057,9.5403,9.5942,9.6288,9.6288,9.6288,9.6288,9.6288,9.6288,9.6288,9.6288,9.6288,9.6288,9.6288,9.6288,9.6288,9.6288,9.6288,9.6711,9.7519,9.8019,9.9094,10.0514,10.0514,10.0897,10.1504,10.1504,10.1504,10.1504,10.1504,10.1504,10.1504,10.1504,10.14,10.1289,10.1404,10.1404,10.1289,10.1289,10.1289,10.1289,10.1289,10.1404,10.1402,10.1402,10.1475,10.1611,10.1796,10.1778,10.1874,10.2085,10.2094,10.2195,10.2494,10.3217,10.3902,10.4414,10.5709,10.681,10.7005,10.759,10.802,10.802,10.7989,10.7989,10.7981,10.7989,10.7989,10.7989,10.801,10.8016,10.8016,10.7987,10.7991,10.7995,10.7995,10.7998,10.8005,10.8201,10.8397,10.8398,10.8593,10.8711,10.8711,10.8711,10.8983,10.9605,10.9605,10.9912,8.8594,8.8671,8.8671,8.8671,8.9286,8.9863,8.9863,9.0556,9.1171,9.1171,9.1171,9.1479,9.2287,9.2441,9.271,9.3518,9.3672,9.398,9.4826,9.498,9.5288,9.6172,9.6288,9.6288,9.6249,9.6288,9.6288,9.6288,9.6288,9.6288,9.6288,9.6288,9.6288,9.6288,9.6288,9.6288,9.6288,9.6288,9.6288,9.6288,9.6288,9.6711,9.7557,9.925,10.0589,10.1696,10.1696,10.1807,10.2109,10.2109,10.2109,10.2109,10.2109,10.2109,10.2109,10.2109,10.1718,10.1289,10.1606,10.1504,10.1289,10.1289,10.1289,10.1289,10.1289,10.1511,10.1703,10.1703,10.1902,10.2109,10.2094,10.2094,10.2094,10.2094,10.2094,10.2395,10.3408,10.3692,10.4283,10.6207,10.6693,10.7005,10.7786,10.802,10.802,10.802,10.7996,10.8003,10.7981,10.7996,10.801,10.801,10.7982,10.7991,10.7991,10.7991,10.7995,10.8003,10.8003,10.8005,10.8008,10.8789,10.9297,10.9297,11.0117,11.0508,11.0508,11.0508,11.0384,11.0284,11.0284,11.0185,8.8863,8.9517,9.021,8.9633,9.0133,9.0748,9.0748,9.0979,9.121,9.121,9.1672,9.2133,9.2441,9.2941,9.3557,9.4403,9.4557,9.4864,9.5749,9.5865,9.598,9.6288,9.6288,9.6288,9.6288,9.6288,9.6288,9.6288,9.6288,9.6288,9.6288,9.6288,9.6288,9.6288,9.6288,9.6288,9.6288,9.6288,9.6288,9.6326,9.7442,9.8474,9.9487,10.0607,10.1494,10.2009,10.2009,10.2021,10.2094,10.2094,10.2094,10.2094,10.2094,10.2094,10.2117,10.2304,10.2101,10.1797,10.1879,10.1891,10.1807,10.1807,10.1807,10.1807,10.1807,10.1891,10.2009,10.2009,10.1982,10.2101,10.2324,10.24,10.2379,10.2504,10.2595,10.2803,10.3786,10.4421,10.5212,10.6489,10.7215,10.7691,10.7886,10.801,10.8016,10.8016,10.8016,10.801,10.8016,10.7982,10.7987,10.7987,10.7995,10.8001,10.8001,10.8511,10.8905,10.8906,10.9414,10.9687,10.9687,11.0,11.0195,11.0195,11.0508,11.0586,11.0586,11.0495,11.0697,11.1221,11.098,11.1183,8.971,9.0364,9.1056,9.0517,9.0787,9.121,9.121,9.1441,9.1672,9.1672,9.2326,9.3018,9.3326,9.3826,9.4441,9.5326,9.5441,9.5672,9.6211,9.6288,9.6288,9.6288,9.6288,9.6288,9.6288,9.6288,9.6288,9.6288,9.6288,9.6288,9.6288,9.6288,9.6288,9.6288,9.6288,9.6288,9.6288,9.6288,9.6476,9.6887,9.8275,9.9519,10.0595,10.1409,10.1996,10.2186,10.2186,10.2304,10.2417,10.2417,10.2417,10.2417,10.2417,10.2417,10.2379,10.249,10.2499,10.2283,10.2285,10.2201,10.2094,10.2094,10.2094,10.2094,10.2094,10.2201,10.2186,10.2186,10.2324,10.2396,10.262,10.2608,10.2581,10.2811,10.2789,10.3101,10.4311,10.4983,10.5685,10.6903,10.7619,10.8016,10.8016,10.7987,10.7991,10.7995,10.7991,10.7987,10.7991,10.7995,10.8112,10.8386,10.8511,10.8592,10.8905,10.9414,10.9804,10.9804,11.0312,11.0586,11.0586,11.0898,11.1014,11.1006,11.1318,11.1389,11.129,11.1193,11.1409,11.19,11.1782,11.1994,9.121,9.121,9.121,9.121,9.121,9.121,9.1248,9.1902,9.2518,9.2556,9.321,9.4018,9.4826,9.5018,9.5326,9.6172,9.6288,9.6288,9.6288,9.6288,9.6288,9.6288,9.6288,9.6288,9.6288,9.6288,9.6288,9.6288,9.6288,9.6288,9.6288,9.6288,9.6288,9.6288,9.6288,9.6288,9.6288,9.6288,9.6849,9.7973,9.8825,9.9809,10.0912,10.1689,10.2323,10.2499,10.2499,10.2608,10.2789,10.2789,10.2789,10.2789,10.2789,10.2789,10.2789,10.2789,10.2789,10.2811,10.2582,10.2303,10.2101,10.2101,10.2101,10.2101,10.2101,10.2324,10.2499,10.2499,10.271,10.2789,10.2789,10.2789,10.2789,10.2789,10.2789,10.3296,10.5014,10.538,10.5979,10.7697,10.7982,10.7991,10.7991,10.7991,10.7995,10.8003,10.8003,10.8001,10.7995,10.8001,10.8394,10.9214,10.9296,10.9687,11.0508,11.0586,11.0703,11.0703,11.0703,11.0703,11.0703,11.1484,11.1904,11.1681,11.25,11.2799,11.2615,11.2598,11.2503,11.2388,11.2401,11.2302,9.121,9.121,9.121,9.121,9.121,9.1364,9.2018,9.2326,9.2672,9.3249,9.4057,9.4749,9.4941,9.5518,9.6057,9.6249,9.6288,9.6288,9.6288,9.6288,9.6288,9.6288,9.6288,9.6288,9.6288,9.6288,9.6288,9.6288,9.6288,9.6288,9.6288,9.6288,9.6288,9.6288,9.6288,9.6288,9.6288,9.6454,9.731,9.8872,9.9254,10.0391,10.2106,10.2301,10.2514,10.2714,10.2714,10.2802,10.2789,10.2789,10.2789,10.2789,10.2789,10.2789,10.2789,10.2789,10.2789,10.2789,10.2685,10.2694,10.2593,10.2593,10.2593,10.2593,10.2593,10.2694,10.2714,10.2714,10.2811,10.2789,10.2789,10.2789,10.2789,10.2789,10.3296,10.4085,10.5192,10.5901,10.6688,10.7791,10.7995,10.8003,10.8007,10.8007,10.8007,10.8007,10.8007,10.8007,10.8007,10.8593,10.9101,10.9296,10.9883,11.039,11.0586,11.1211,11.1601,11.1601,11.2187,11.2495,11.2305,11.25,11.2618,11.229,11.2602,11.2703,11.2615,11.25,11.2425,11.2388,11.2902,11.3015,9.121,9.121,9.121,9.121,9.121,9.1441,9.2287,9.2787,9.3249,9.4095,9.4941,9.5557,9.5557,9.598,9.6288,9.6288,9.6288,9.6288,9.6288,9.6288,9.6288,9.6288,9.6288,9.6288,9.6288,9.6288,9.6288,9.6288,9.6288,9.6288,9.6288,9.6288,9.6288,9.6288,9.6325,9.6429,9.6519,9.6628,9.7626,9.9497,9.9619,10.0691,10.2605,10.2605,10.2704,10.2789,10.2789,10.2789,10.2789,10.2789,10.2789,10.2789,10.2789,10.2789,10.2789,10.2789,10.2789,10.2789,10.2789,10.2789,10.2789,10.2789,10.2789,10.2789,10.2789,10.2789,10.2789,10.2789,10.2789,10.2789,10.2789,10.2789,10.2789,10.2789,10.3491,10.4319,10.5198,10.6102,10.701,10.7806,10.8005,10.8007,10.8008,10.8008,10.8008,10.8008,10.8281,10.8593,10.8593,10.8984,10.9609,11.039,11.0816,11.1198,11.1588,11.2096,11.2283,11.2213,11.2707,11.3008,11.2787,11.2787,11.2719,11.2482,11.2482,11.2595,11.2905,11.2786,11.3009,11.3397,11.3712,11.3881,9.121,9.121,9.121,9.121,9.1287,9.1595,9.2441,9.3287,9.4134,9.498,9.5788,9.6288,9.6288,9.6288,9.6288,9.6288,9.6288,9.6288,9.6288,9.6288,9.6288,9.6288,9.6288,9.6288,9.6288,9.6288,9.6288,9.6288,9.6288,9.6288,9.6288,9.6288,9.6288,9.6288,9.6429,9.6545,9.6812,9.6849,9.7908,9.9913,9.9924,10.1016,10.2816,10.2816,10.281,10.2789,10.2789,10.2789,10.2789,10.2789,10.2789,10.2789,10.2789,10.2789,10.2789,10.2789,10.2789,10.2789,10.2789,10.2789,10.2789,10.2789,10.2789,10.2789,10.2789,10.2789,10.2789,10.2789,10.2789,10.2789,10.2789,10.2789,10.2789,10.2789,10.3608,10.4514,10.5198,10.619,10.7103,10.789,10.8008,10.8008,10.8008,10.8008,10.8008,10.8008,10.8711,10.9297,10.9492,10.9609,11.0195,11.1717,11.1809,11.211,11.2803,11.2881,11.2799,11.2576,11.2787,11.2787,11.258,11.2619,11.2599,11.2491,11.2491,11.2777,11.3494,11.3494,11.3881,11.4616,11.4693,11.4809,9.121,9.121,9.121,9.121,9.1748,9.2479,9.3287,9.4172,9.5018,9.5903,9.6211,9.6288,9.6288,9.6288,9.6288,9.6288,9.6288,9.6288,9.6288,9.6288,9.6288,9.6288,9.6288,9.6288,9.6288,9.6288,9.6288,9.6288,9.6288,9.6288,9.6288,9.6288,9.6325,9.6358,9.6637,9.6759,9.6812,9.7126,9.8189,9.9913,10.0102,10.1187,10.291,10.2783,10.2816,10.281,10.2796,10.2789,10.2789,10.2789,10.2789,10.2789,10.2789,10.2789,10.2789,10.2789,10.2789,10.2789,10.2789,10.2789,10.2789,10.2789,10.2789,10.2789,10.2789,10.2789,10.2789,10.2789,10.2789,10.2789,10.2789,10.2789,10.2789,10.2789,10.4014,10.5198,10.5409,10.6712,10.7812,10.8008,10.8008,10.8008,10.8008,10.8008,10.8008,10.8008,10.8711,10.9609,11.0312,11.1015,11.1482,11.1602,11.2283,11.2715,11.2703,11.2703,11.261,11.2615,11.261,11.2619,11.2386,11.2386,11.2724,11.3209,11.3209,11.3524,11.4383,11.4383,11.4499,11.4616,11.5312,11.5699,9.121,9.121,9.121,9.121,9.1864,9.271,9.3518,9.4364,9.5249,9.6134,9.6288,9.6288,9.6288,9.6288,9.6288,9.6288,9.6288,9.6288,9.6288,9.6288,9.6288,9.6288,9.6288,9.6288,9.6288,9.6325,9.6361,9.6361,9.6358,9.6358,9.6361,9.6487,9.6628,9.676,9.6904,9.7013,9.7177,9.7355,9.8331,10.0088,10.0186,10.1205,10.2882,10.2917,10.2792,10.2816,10.281,10.2796,10.2789,10.2789,10.2789,10.2789,10.2789,10.2789,10.2789,10.2789,10.2789,10.2789,10.2789,10.2789,10.2789,10.2789,10.2789,10.2789,10.2789,10.2789,10.2789,10.2789,10.2789,10.2789,10.2789,10.2789,10.2906,10.3389,10.4813,10.6198,10.6709,10.738,10.8008,10.8008,10.8008,10.8008,10.8008,10.8008,10.8203,10.8593,10.929,11.01,11.0998,11.1791,11.2305,11.2314,11.2514,11.26,11.25,11.25,11.2511,11.2311,11.2371,11.2619,11.2902,11.2902,11.3196,11.3997,11.3997,11.4383,11.5312,11.5312,11.5505,11.6008,11.6395,11.6588,9.121,9.121,9.121,9.121,9.1979,9.2903,9.3557,9.4518,9.548,9.6172,9.6288,9.6288,9.6288,9.6288,9.6288,9.6288,9.6288,9.6288,9.6288,9.6288,9.6288,9.6288,9.6288,9.6288,9.6325,9.639,9.6454,9.6454,9.6576,9.6607,9.6487,9.6732,9.6949,9.7121,9.7169,9.7292,9.7518,9.7532,9.8461,10.0312,10.0312,10.121,10.2888,10.2886,10.2917,10.2783,10.2816,10.2803,10.2789,10.2789,10.2789,10.2789,10.2789,10.2789,10.2789,10.2789,10.2789,10.2789,10.2789,10.2789,10.2789,10.2789,10.2789,10.2789,10.2789,10.2789,10.2789,10.2789,10.2789,10.2789,10.2789,10.2789,10.3116,10.411,10.5612,10.691,10.781,10.8007,10.8008,10.8008,10.8008,10.8008,10.8008,10.8007,10.8201,10.9097,10.9799,11.0598,11.1378,11.2119,11.2598,11.2683,11.2503,11.2401,11.2281,11.232,11.2204,11.2101,11.2406,11.2786,11.33,11.3494,11.3997,11.4886,11.4886,11.5312,11.6088,11.6088,11.6514,11.7096,11.7094,11.721,9.121,9.121,9.121,9.121,9.2402,9.3595,9.3672,9.498,9.6211,9.6288,9.6288,9.6288,9.6288,9.6288,9.6288,9.6288,9.6288,9.6288,9.6288,9.6288,9.6288,9.6288,9.6288,9.6325,9.6358,9.6499,9.6627,9.6759,9.6931,9.6953,9.6786,9.6953,9.7065,9.7082,9.7327,9.7472,9.7518,9.7609,9.8554,10.0312,10.0312,10.1211,10.289,10.2888,10.2882,10.291,10.2783,10.2803,10.2789,10.2789,10.2789,10.2789,10.2789,10.2789,10.2789,10.2789,10.2789,10.2789,10.2789,10.2789,10.2789,10.2789,10.2789,10.2789,10.2789,10.2789,10.2789,10.2789,10.2789,10.2789,10.2789,10.2803,10.3212,10.4913,10.6011,10.6912,10.7812,10.8008,10.8008,10.8008,10.8008,10.8008,10.8008,10.7913,10.8106,10.8887,10.9693,11.0411,11.119,11.1911,11.2181,11.2285,11.2311,11.2292,11.1989,11.1915,11.188,11.1882,11.2691,11.3227,11.33,11.4113,11.4886,11.5815,11.5815,11.6127,11.6904,11.6904,11.6905,11.6826,11.6982,11.6982,9.121,9.121,9.121,9.121,9.2441,9.371,9.371,9.5057,9.6288,9.6288,9.6288,9.6288,9.6288,9.6288,9.6288,9.6288,9.6288,9.6288,9.6288,9.6288,9.6288,9.6288,9.642,9.6467,9.6529,9.6746,9.6973,9.7091,9.7238,9.7304,9.7223,9.7292,9.7397,9.7454,9.7559,9.7609,9.7609,9.7655,9.8554,10.0312,10.0312,10.1211,10.289,10.289,10.2888,10.2882,10.2914,10.2783,10.2803,10.2796,10.2789,10.2789,10.2789,10.2789,10.2789,10.2789,10.2789,10.2789,10.2789,10.2789,10.2789,10.2789,10.2816,10.2679,10.2803,10.2789,10.2789,10.2789,10.2783,10.2686,10.2691,10.3515,10.4609,10.5896,10.6794,10.7617,10.7796,10.7904,10.7814,10.769,10.772,10.772,10.772,10.7716,10.8107,10.9511,10.97,11.031,11.171,11.1894,11.1985,11.1985,11.2019,11.1989,11.1885,11.1808,11.2001,11.2503,11.2928,11.3584,11.4587,11.5012,11.5592,11.6403,11.6403,11.6596,11.6904,11.6904,11.6903,11.6786,11.6903,11.6904,9.121,9.121,9.121,9.121,9.2441,9.371,9.371,9.5057,9.6288,9.6288,9.6288,9.6288,9.6288,9.6288,9.6288,9.6288,9.6288,9.6288,9.6288,9.6358,9.639,9.639,9.659,9.6734,9.6746,9.703,9.7279,9.7416,9.7518,9.755,9.755,9.755,9.7602,9.7695,9.7695,9.7695,9.7695,9.7695,9.8437,9.9922,10.0195,10.1094,10.25,10.2812,10.289,10.2886,10.2917,10.2905,10.2816,10.2796,10.2789,10.2789,10.2789,10.2789,10.2789,10.2789,10.2789,10.2789,10.2816,10.2783,10.2783,10.2679,10.2695,10.2693,10.2691,10.2683,10.2683,10.2683,10.2695,10.2683,10.291,10.402,10.5412,10.6312,10.721,10.7814,10.772,10.7699,10.7716,10.7503,10.7511,10.7511,10.7511,10.742,10.7987,10.97,10.9695,11.0089,11.191,11.188,11.1693,11.1693,11.1692,11.1692,11.1693,11.1693,11.2117,11.2927,11.3197,11.4007,11.5513,11.5783,11.6207,11.6786,11.6786,11.6825,11.6823,11.6823,11.6781,11.6704,11.6823,11.6823,9.121,9.121,9.121,9.121,9.2441,9.371,9.371,9.5057,9.6288,9.6288,9.6288,9.6288,9.6288,9.6288,9.6288,9.6288,9.6288,9.6288,9.6288,9.6487,9.659,9.659,9.6837,9.7009,9.7071,9.7343,9.7544,9.7695,9.7695,9.7695,9.7695,9.7695,9.7695,9.7695,9.7695,9.7695,9.7695,9.7695,9.8125,9.9023,9.9883,10.0781,10.1601,10.25,10.289,10.2886,10.2917,10.2905,10.2816,10.2796,10.2789,10.2789,10.2789,10.2789,10.2789,10.2789,10.2789,10.2796,10.2691,10.2695,10.2694,10.2621,10.2593,10.2593,10.2593,10.2593,10.2593,10.2593,10.2616,10.2704,10.3608,10.4285,10.5116,10.6007,10.6887,10.7511,10.7511,10.7511,10.7511,10.7511,10.7511,10.7511,10.7511,10.7299,10.7701,10.9409,10.9427,10.9803,11.1578,11.1692,11.1612,11.1612,11.1529,11.1487,11.1612,11.1612,11.1997,11.2806,11.3692,11.4581,11.559,11.64,11.6786,11.6786,11.6786,11.6823,11.6697,11.6697,11.6616,11.6484,11.6616,11.6697,9.121,9.121,9.121,9.121,9.2441,9.371,9.371,9.5057,9.6288,9.6288,9.6288,9.6288,9.6288,9.6288,9.6288,9.6288,9.6288,9.6322,9.6481,9.656,9.6654,9.6858,9.7104,9.7327,9.7493,9.7602,9.7652,9.7695,9.7695,9.7695,9.7695,9.7695,9.7695,9.7695,9.7695,9.7695,9.7695,9.7695,9.8125,9.8984,9.9297,10.0195,10.1601,10.1914,10.2304,10.289,10.2886,10.2917,10.291,10.2816,10.2803,10.2789,10.2789,10.2789,10.2796,10.2718,10.2689,10.2691,10.2683,10.2587,10.2582,10.2601,10.2587,10.2517,10.2517,10.2616,10.2616,10.24,10.2796,10.3426,10.4307,10.5106,10.5884,10.6893,10.7316,10.7516,10.7303,10.7299,10.7293,10.7197,10.7115,10.698,10.698,10.6905,10.7392,10.9093,10.9184,10.9687,11.1383,11.1609,11.1487,11.1487,11.1483,11.1483,11.1487,11.1987,11.268,11.3604,11.4489,11.5302,11.6231,11.65,11.6616,11.6616,11.6616,11.6573,11.6567,11.6567,11.649,11.6484,11.649,11.6567,9.121,9.121,9.121,9.121,9.2441,9.371,9.371,9.5057,9.6288,9.6288,9.6288,9.6288,9.6288,9.6288,9.6288,9.6288,9.6358,9.6487,9.6551,9.6746,9.6954,9.7223,9.7397,9.755,9.7694,9.7695,9.7695,9.7695,9.7695,9.7695,9.7695,9.7695,9.7695,9.7695,9.7695,9.7695,9.7695,9.7695,9.7969,9.8515,9.8828,9.9726,10.1094,10.1484,10.2109,10.289,10.2888,10.2884,0.0,10.2783,10.281,10.2796,10.2789,10.2803,10.2792,10.2694,10.2693,10.2679,10.2616,10.2616,10.2605,10.2517,10.239,10.2382,10.2401,10.2379,10.2499,10.2693,10.3095,10.3686,10.488,10.5489,10.611,10.7075,10.7316,10.7309,10.717,10.7115,10.6989,10.6918,10.6783,10.6789,10.6789,10.6986,10.7567,10.8993,10.9377,10.9989,11.1375,11.1487,11.1522,11.1522,11.1522,11.1522,11.1522,11.2214,11.3099,11.3907,11.4791,11.5676,11.6484,11.6484,11.6484,11.6484,11.6484,11.6484,11.6484,11.6484,11.6484,11.6484,11.6484,11.6484,0.0,9.121,9.121,9.121,9.2402,9.3633,9.3672,9.5018,0.0,9.6288,9.6288,9.6288,9.6288,9.6288,9.6288,9.6288,9.6448,9.658,9.6616,9.7051,9.7436,9.7676,9.7689,9.7691,9.7691,9.7694,9.7695,9.7695,9.7695,9.7695,9.7695,9.7695,9.7695,9.7695,9.7695,9.7695,9.7695,9.7695,9.7695,9.7695,9.8515,9.9375,10.0195,10.1094,10.1992,10.2812,10.2888,10.2886,10.2886,10.2792,10.2783,10.2783,10.281,10.2718,10.2694,10.2694,10.2597,10.2607,10.2514,10.2491,10.2513,10.2317,10.2201,10.2203,10.2112,10.21,10.2384,10.3173,10.3403,10.3792,10.5418,10.5821,10.5989,10.6802,10.6995,10.6995,10.6995,10.689,10.6821,10.6821,10.6676,10.6716,10.6716,10.7297,10.8106,10.9031,10.972,11.0483,11.1406,11.1522,11.1522,11.1522,11.1522,11.1522,11.1598,11.2291,11.3099,11.3907,11.4907,11.5676,11.6484,11.6484,11.6484,11.6484,11.6484,11.6484,11.6484,11.6484,11.6484,11.6484,11.6484,11.6484,9.121,0.0,9.121,9.121,9.2018,9.2941,0.0,9.4518,9.548,9.6172,9.6288,9.6288,9.6288,9.6288,9.6325,9.6358,9.6506,9.6708,9.697,9.7316,9.7641,9.7693,9.7695,9.7695,9.7695,9.7695,9.7695,9.7695,9.7695,9.7695,9.7695,9.7695,9.7695,9.7695,9.7695,9.7695,9.7695,9.7695,9.7695,9.7695,9.789,9.8476,9.9336,10.0195,10.1094,10.1914,10.2617,10.2889,10.2886,10.2884,10.2811,10.2615,10.2615,10.2601,10.2515,10.2386,10.2387,10.2514,10.2282,10.2311,10.2288,10.2203,10.21,10.2112,10.2085,10.2112,10.2306,10.3075,10.3821,10.4497,10.548,10.6183,10.6686,10.6995,10.6995,10.6995,10.6894,10.6783,10.6786,10.6676,10.6602,10.6488,10.6488,10.7219,10.8024,10.8793,10.9675,11.0483,11.1406,11.1522,11.1522,11.1522,11.1522,11.1714,11.2406,11.3214,11.3791,11.3984,11.5407,11.6292,11.6484,11.6484,11.6484,11.6484,11.6484,11.6484,11.6484,11.6484,11.6484,11.6484,11.6484,11.6484,9.121,9.121,9.121,9.121,9.1864,9.2595,9.3056,9.4095,9.5134,9.5595,9.6019,9.6288,9.6288,9.639,9.6415,9.6429,9.672,9.7069,9.7355,9.755,9.7694,9.7695,9.7695,9.7695,9.7695,9.7695,9.7695,9.7695,9.7695,9.7695,9.7695,9.7695,9.7695,9.7695,9.7695,9.7695,9.7695,9.7695,9.7695,9.7695,9.7695,9.8164,9.9023,9.9492,10.039,10.1601,10.2109,10.25,10.2889,10.2811,10.2686,10.2593,10.2491,10.2392,10.2397,10.2301,10.2304,10.23,10.2215,10.2177,10.21,10.2096,10.2107,10.2107,10.2504,10.2591,10.2785,10.3598,10.442,10.5202,10.6105,10.6608,10.6995,10.6995,10.7001,10.689,10.6783,10.6712,10.6716,10.6565,10.6488,10.6486,10.6486,10.7485,10.8406,10.879,10.9983,11.0983,11.1406,11.1522,11.1522,11.1522,11.1522,11.1791,11.2599,11.3483,11.4214,11.4599,11.5792,11.6484,11.6484,11.6484,11.6484,11.6484,11.6484,11.6484,11.6484,11.6484,11.6484,11.6484,11.6484,11.6484,9.121,9.121,9.121,9.121,9.1748,9.2326,9.2479,9.3672,9.4826,9.498,9.5672,9.6325,9.6358,9.6467,9.657,9.6513,9.7032,9.7464,9.7689,9.7694,9.7695,9.7695,9.7695,9.7695,9.7695,9.7695,9.7695,9.7695,9.7695,9.7695,9.7695,9.7695,9.7695,9.7695,9.7695,9.7695,9.7695,9.7695,9.7695,9.7695,9.7695,9.8086,9.8828,9.8945,9.9804,10.1211,10.1483,10.1991,10.2693,10.2582,10.2593,10.2499,10.2386,10.2296,10.2205,10.2205,10.2109,10.2085,10.2123,10.2096,10.2096,10.201,10.201,10.2097,10.3003,10.3282,10.3591,10.442,10.5202,10.5912,10.6802,10.6995,10.6995,10.6995,10.689,10.6821,10.6786,10.6564,10.6488,10.6526,10.6369,10.6405,10.6405,10.779,10.8906,10.8906,11.0406,11.1522,11.1522,11.1522,11.1522,11.1522,11.1522,11.1906,11.2791,11.3599,11.4407,11.5407,11.6099,11.6484,11.6484,11.6484,11.6484,11.6484,11.6484,11.6484,11.6484,11.6484,11.6484,11.6484,11.6484,11.6484,9.121,9.121,9.121,9.121,9.1287,9.1595,9.2326,9.321,9.4095,9.4826,9.5672,9.632,9.6521,9.6599,9.6695,9.6934,9.7279,9.7539,9.7694,9.7695,9.7695,9.7695,9.7695,9.7695,9.7695,9.7695,9.7695,9.7695,9.7695,9.7695,9.7695,9.7695,9.7695,9.7695,9.7695,9.7695,9.7695,9.7695,9.7695,9.7695,9.7695,9.7773,9.7929,9.8672,9.914,9.9453,10.0796,10.1515,10.1703,10.2191,10.2296,10.2225,10.2183,10.2109,10.198,10.198,10.2123,10.2085,10.2029,10.1981,10.1881,10.192,10.192,10.2114,10.2895,10.3707,10.4403,10.5293,10.5603,10.5912,10.6802,10.6995,10.6995,10.6995,10.689,10.6786,10.6714,10.6603,10.6487,10.6407,10.6405,10.6405,10.6405,10.779,10.8906,10.8906,11.0406,11.1522,11.1522,11.1522,11.1522,11.1522,11.1522,11.2099,11.3714,11.3907,11.4714,11.6176,11.6407,11.6484,11.6484,11.6484,11.6484,11.6484,11.6484,11.6484,11.6484,11.6484,11.6484,11.6484,11.6484,11.6484,9.121,9.121,9.121,9.121,9.121,9.1441,9.2287,9.2787,9.3287,9.4134,9.498,9.5546,9.5284,9.6114,9.6934,9.7348,9.7472,9.7544,9.7694,9.7695,9.7695,9.7695,9.7695,9.7695,9.7695,9.7695,9.7695,9.7695,9.7611,9.7609,9.7695,9.765,9.7648,9.7695,9.7695,9.7695,9.7695,9.7648,9.7648,9.7695,9.7695,9.7695,9.7695,9.8038,9.8457,9.8965,10.01,10.0787,10.1294,10.1989,10.2205,10.2094,10.2022,10.2,10.1912,10.1912,10.2019,10.201,10.1989,10.1881,10.1889,10.1889,10.1889,10.2082,10.3514,10.4094,10.4713,10.5989,10.6415,10.6492,10.6879,10.6885,10.689,10.689,10.6825,10.6602,10.6603,10.6526,10.6369,10.6405,10.6405,10.6405,10.6405,10.779,10.8906,10.8906,11.0406,11.1522,11.1522,11.1522,11.1522,11.1522,11.1522,11.2214,11.3907,11.3984,11.4714,11.6407,11.6484,11.6484,11.6484,11.6484,11.6484,11.6484,11.6484,11.6484,11.6484,11.6484,11.6484,11.6484,11.6484,11.6484,9.121,9.121,9.121,9.121,9.121,9.1441,9.2287,9.2633,9.3054,9.3894,9.4622,9.5026,9.4899,9.5942,9.7032,9.7602,9.7442,9.7359,9.7656,9.7695,9.7695,9.7695,9.7695,9.7695,9.7695,9.7655,9.7652,9.7652,9.7532,9.7518,9.7602,9.7526,9.7518,9.7602,9.7606,9.7606,9.7606,9.7479,9.7532,9.7652,9.7609,9.7606,9.7602,9.7518,9.7797,9.85,9.9148,9.9925,10.0821,10.1495,10.188,10.1996,10.1903,10.1889,10.1889,10.1889,10.1889,10.1889,10.1889,10.1889,10.1889,10.1889,10.2005,10.2508,10.4017,10.4519,10.4984,10.6608,10.6995,10.7001,10.7001,10.6894,10.6821,10.6786,10.6602,10.6488,10.6488,10.6409,10.6405,10.6405,10.6405,10.6405,10.6405,10.779,10.8906,10.8906,11.0406,11.1522,11.1522,11.1522,11.1522,11.1522,11.1522,11.2214,11.3907,11.4407,11.5099,11.6407,11.6484,11.6484,11.6484,11.6484,11.6484,11.6484,11.6484,11.6484,11.6484,11.6484,11.6484,11.6484,11.6484,11.6484,9.121,9.121,9.121,9.121,9.121,9.1441,9.2287,9.3095,9.3894,9.4991,9.5245,9.5674,9.6826,9.6744,9.6739,9.7572,9.7027,9.6754,9.7578,9.7695,9.7695,9.7695,9.7695,9.7695,9.7695,9.7598,9.7526,9.7526,9.7394,9.733,9.733,9.733,9.733,9.733,9.733,9.733,9.733,9.733,9.7394,9.7526,9.7394,9.733,9.733,9.733,9.7355,9.7472,9.8141,9.8892,9.9763,10.0402,10.1185,10.1881,10.1889,10.1889,10.1889,10.1889,10.1889,10.1889,10.1889,10.1889,10.1889,10.1889,10.2392,10.3282,10.4094,10.5022,10.5796,10.6686,10.689,10.6783,10.6783,10.6783,10.6786,10.6714,10.6603,10.6488,10.6488,10.6409,10.6405,10.6405,10.6405,10.6405,10.6405,10.779,10.8906,10.8906,11.0406,11.1522,11.1522,11.1522,11.1522,11.1522,11.1522,11.2214,11.3907,11.5407,11.6407,11.6484,11.6484,11.6484,11.6484,11.6484,11.6484,11.6484,11.6484,11.6484,11.6484,11.6484,11.6484,11.6484,11.6484,11.6484,9.1056,9.121,9.121,9.121,9.1595,9.221,9.3056,9.3095,9.3207,9.4116,9.4814,9.5545,9.632,9.6002,9.5719,9.6036,9.5809,9.5736,9.6091,9.6132,9.6289,9.6739,9.6774,9.6953,9.7416,9.7405,9.7382,9.7382,9.7199,9.7186,9.7301,9.7204,9.7186,9.7301,9.7301,9.7301,9.7301,9.7186,9.7129,9.7199,9.7247,9.7301,9.7301,9.7186,9.7091,9.7149,9.7896,9.8348,9.8774,10.0093,10.0806,10.1077,10.1696,10.1889,10.1889,10.1889,10.1889,10.1889,10.1889,10.1889,10.1889,10.1889,10.2508,10.332,10.4106,10.4885,10.5812,10.6628,10.6789,10.6712,10.6786,10.6676,10.6602,10.6603,10.6487,10.6369,10.6369,10.6407,10.6405,10.6405,10.6405,10.6405,10.6405,10.779,10.8906,10.8906,11.0406,11.1522,11.1522,11.1522,11.1522,11.1522,11.2406,11.3291,11.3907,11.5484,11.6484,11.6484,11.6484,11.6484,11.6484,11.6484,11.6484,11.6484,11.6484,11.6484,11.6484,11.6484,11.6484,11.6484,11.6484,11.6484,9.0979,9.121,9.121,9.121,9.1633,9.2322,9.3196,9.3423,9.3572,9.4203,9.5248,9.6079,9.6122,9.5768,9.5508,9.5514,9.529,9.5102,9.515,9.5116,9.527,9.5736,9.5746,9.604,9.6809,9.6865,9.691,9.7182,9.7027,9.6998,9.713,9.7021,9.6998,9.713,9.713,9.713,9.713,9.7021,9.6926,9.6926,9.7087,9.713,9.713,9.6998,9.6926,9.694,9.7451,9.7866,9.8176,9.9336,10.011,10.069,10.158,10.1889,10.1889,10.1889,10.1889,10.1889,10.1889,10.1889,10.1889,10.1896,10.2592,10.3604,10.4117,10.501,10.6094,10.6599,10.6679,10.6602,10.6714,10.6602,10.6488,10.6487,10.6407,10.6405,10.6405,10.6405,10.6405,10.6405,10.6405,10.6405,10.6405,10.779,10.8906,10.8906,11.0406,11.1522,11.1522,11.1522,11.1522,11.1522,11.2983,11.3984,11.3984,11.5484,11.6484,11.6484,11.6484,11.6484,11.6484,11.6484,11.6484,11.6484,11.6484,11.6484,11.6484,11.6484,11.6484,11.6484,11.6484,11.6484,9.0979,9.121,9.121,9.121,9.121,9.1506,9.2557,9.4153,9.5437,9.5678,9.677,9.7401,9.6542,9.6386,9.6393,9.6373,9.5631,9.509,9.5063,9.4959,9.4889,9.4889,9.4763,9.5016,9.5898,9.5846,9.6111,9.6927,9.6875,9.6783,9.6783,9.6783,9.6783,9.6783,9.6783,9.6783,9.6783,9.6783,9.6783,9.6783,9.6783,9.6783,9.6783,9.6783,9.6783,9.6783,9.6783,9.7286,9.8098,9.8098,9.9104,10.069,10.158,10.1889,10.1889,10.1889,10.1889,10.1889,10.1889,10.1889,10.1928,10.1716,10.2919,10.4276,10.4129,10.5289,10.6716,10.6716,10.6603,10.6488,10.6488,10.6488,10.6487,10.6407,10.6405,10.6405,10.6405,10.6405,10.6405,10.6405,10.6405,10.6405,10.6405,10.779,10.8906,10.8906,11.0406,11.1522,11.1522,11.1522,11.1522,11.1522,11.2983,11.3984,11.3984,11.5484,11.6484,11.6484,11.6484,11.6484,11.6484,11.6484,11.6484,11.6484,11.6484,11.6484,11.6484,11.6484,11.6484,11.6484,11.6484,11.6484,9.0825,9.121,9.121,9.121,9.1672,9.2083,9.19,9.3083,9.4666,9.6252,9.6598,9.6536,9.6418,9.6386,9.5996,9.4754,9.4363,9.3957,9.3281,9.3119,9.327,9.3716,9.3722,9.3939,9.4676,9.4693,9.4756,9.5027,9.5564,9.5893,9.5893,9.6474,9.6783,9.6783,9.6783,9.6783,9.6783,9.6783,9.6783,9.6783,9.6783,9.6783,9.6783,9.6783,9.6783,9.6783,9.6783,9.6938,9.7247,9.7866,9.9104,10.0613,10.0883,10.1386,10.1889,10.1889,10.1819,10.1793,10.1793,10.1683,10.1693,10.1581,10.2778,10.4129,10.4097,10.5177,10.6526,10.6487,10.6525,10.6407,10.6407,10.6407,10.6407,10.6405,10.6405,10.6405,10.6405,10.6405,10.6405,10.6405,10.6405,10.6405,10.6405,10.779,10.8906,10.8906,11.0406,11.1522,11.1522,11.1522,11.1522,11.1522,11.2983,11.3984,11.3984,11.5484,11.6484,11.6484,11.6484,11.6484,11.6484,11.6484,11.6484,11.6484,11.6484,11.6484,11.6484,11.6484,11.6484,11.6484,11.6484,11.6484,9.0248,9.0671,9.0787,9.1133,9.166,9.201,9.1708,9.2935,9.4641,9.6408,9.6745,9.6792,9.6886,9.6933,9.6347,9.4591,9.4298,9.3856,9.2578,9.2267,9.2351,9.2752,9.2688,9.291,9.364,9.3727,9.3843,9.4191,9.4694,9.512,9.5468,9.6009,9.6435,9.6783,9.6783,9.6783,9.6783,9.6783,9.6783,9.6783,9.6783,9.6783,9.6783,9.6783,9.6783,9.6783,9.6783,9.6783,9.686,9.775,9.874,9.9767,10.0286,10.0877,10.1511,10.1688,10.1722,10.1616,10.1398,10.1288,10.1212,10.0896,10.2006,10.3306,10.3333,10.461,10.6122,10.6112,10.6203,10.6405,10.6405,10.6405,10.6405,10.6405,10.6405,10.6405,10.6405,10.6405,10.6405,10.6405,10.6405,10.6405,10.6405,10.779,10.8906,10.8906,11.0406,11.1522,11.1522,11.1522,11.1522,11.1522,11.2983,11.3984,11.3984,11.5484,11.6484,11.6484,11.6484,11.6484,11.6484,11.6484,11.6484,11.6484,11.6484,11.6484,11.6484,11.6484,11.6484,11.6484,11.6484,11.6484,8.944,8.9902,9.0133,9.0979,9.1315,9.1476,9.1678,9.3155,9.4784,9.5894,9.6847,9.7479,9.7558,9.7636,9.7128,9.5378,9.5028,9.4375,9.2615,9.2178,9.1992,9.1995,9.1796,9.2025,9.2799,9.2847,9.3118,9.3853,9.3939,9.4296,9.5107,9.5301,9.5726,9.6537,9.6615,9.6684,9.6753,9.6753,9.6753,9.6783,9.6753,9.6753,9.6783,9.6783,9.6822,9.6783,9.6753,9.6723,9.6761,9.7503,9.7932,9.8247,9.9666,10.0288,10.0617,10.1174,10.14,10.1288,10.0816,10.0607,10.0519,9.9911,10.0807,10.2083,10.2126,10.3588,10.5331,10.5407,10.5817,10.6203,10.6203,10.6203,10.6203,10.6203,10.6284,10.6405,10.6405,10.6405,10.6405,10.6405,10.6405,10.6405,10.6405,10.779,10.8983,10.9098,11.0521,11.1522,11.1522,11.1522,11.1522,11.1522,11.2906,11.3907,11.3984,11.5484,11.6407,11.6484,11.6484,11.6484,11.6484,11.6484,11.6484,11.6484,11.6484,11.6484,11.6484,11.6484,11.6484,11.6484,11.6484,11.6484,8.944,8.9902,9.0133,9.0979,9.1001,9.0845,9.1053,9.1598,9.2442,9.3848,9.4929,9.5879,9.6542,9.7245,9.7109,9.5307,9.4999,9.4369,9.25,9.2158,9.2052,9.1928,9.1838,9.181,9.1948,9.1631,9.1501,9.1694,9.1988,9.2218,9.241,9.3675,9.4479,9.4671,9.5323,9.5867,9.6278,9.6278,9.6454,9.6783,9.6454,9.642,9.6731,9.6792,9.6753,9.6731,9.624,9.5981,9.5944,9.5657,9.6012,9.6761,9.7693,9.8448,9.9155,9.9975,10.0204,10.0108,9.9961,9.9898,9.9834,9.9676,10.0305,10.1291,10.1881,10.2901,10.3922,10.4588,10.4888,10.4996,10.4996,10.4996,10.4996,10.4996,10.5724,10.6405,10.6405,10.6405,10.6405,10.6405,10.6405,10.6405,10.6405,10.779,10.9406,11.0714,11.1291,11.1522,11.1522,11.1522,11.1522,11.1522,11.2406,11.3291,11.3907,11.4984,11.5792,11.6484,11.6484,11.6484,11.6484,11.6484,11.6484,11.6484,11.6484,11.6484,11.6484,11.6484,11.6484,11.6484,11.6484,11.6484,8.8363,8.8709,8.9046,9.0547,9.0485,9.0197,9.0429,8.9914,8.9774,9.0969,9.2607,9.3979,9.4391,9.5216,9.5346,9.3939,9.4035,9.3786,9.2405,9.2126,9.1933,9.1616,9.1504,9.1354,9.1091,9.0874,9.0685,9.0685,9.0908,9.1166,9.1548,9.2427,9.3268,9.4032,9.4529,9.5117,9.5747,9.5747,9.5867,9.5981,9.5749,9.5708,9.5828,9.6168,9.6094,9.5828,9.5508,9.538,9.5293,9.5019,9.5186,9.5726,9.6439,9.7248,9.8155,9.8879,9.935,9.9585,9.9311,9.9235,9.9158,9.8839,9.938,10.0206,10.1033,10.1971,10.3142,10.3875,10.4416,10.461,10.461,10.461,10.461,10.461,10.5087,10.5505,10.5505,10.5505,10.5505,10.5505,10.5505,10.5505,10.5505,10.7188,10.8976,11.0778,11.1008,11.1008,11.1008,11.1008,11.1101,11.1478,11.2214,11.3099,11.3907,11.4791,11.5599,11.6407,11.6484,11.6484,11.6484,11.6484,11.6484,11.6484,11.6484,11.6484,11.6484,11.6484,11.6484,11.6484,11.6484,11.6484,8.7171,8.7512,8.8159,9.012,8.9969,8.9495,8.9891,8.8657,8.7603,8.8344,9.0374,9.2072,9.2185,9.289,9.316,9.2209,9.2635,9.2742,9.1841,9.1664,9.1502,9.1045,9.1,9.0834,9.0444,9.0317,9.0274,9.0274,9.0231,9.0454,9.114,9.1292,9.2017,9.3389,9.3732,9.4228,9.4998,9.5151,9.5151,9.5066,9.5066,9.4887,9.463,9.5112,9.5203,9.4839,9.4741,9.4692,9.473,9.463,9.4627,9.4796,9.542,9.6196,9.7041,9.7837,9.8536,9.9027,9.8642,9.8529,9.8504,9.8061,9.8338,9.9081,10.0009,10.1098,10.2165,10.3177,10.3929,10.4259,10.4259,10.4259,10.4259,10.4259,10.4259,10.4281,10.459,10.461,10.461,10.461,10.461,10.4686,10.4989,10.661,10.8398,11.0077,11.0306,11.0306,11.0306,11.0306,11.0513,11.1093,11.1792,11.2606,11.3696,11.4464,11.5394,11.6407,11.6484,11.6484,11.6484,11.6484,11.6484,11.6484,11.6484,11.6484,11.6484,11.6484,11.6484,11.6484,11.6484,11.6484,8.7171,8.8089,8.9074,9.0297,8.9541,8.8755,8.9774,8.8657,8.7446,8.7564,8.9047,9.0549,9.1249,9.2031,9.2258,9.127,9.1171,9.0906,8.9895,9.0069,9.0247,9.007,9.0375,9.053,9.0402,9.0053,8.9773,8.9773,8.9452,8.9211,8.9324,9.0001,9.0491,9.0679,9.2109,9.3083,9.3491,9.4211,9.4668,9.4934,9.479,9.4265,9.3451,9.3819,9.4303,9.4692,9.4265,9.3973,9.3877,9.3451,9.3248,9.337,9.4105,9.4552,9.4793,9.6303,9.6899,9.7085,9.78,9.7992,9.7992,9.7892,9.7966,9.8338,9.9861,10.0415,10.0894,10.2382,10.29,10.2971,10.2971,10.2971,10.2971,10.2971,10.2971,10.3282,10.4416,10.461,10.461,10.461,10.461,10.5103,10.6505,10.698,10.7796,10.939,10.9579,10.9579,10.9579,10.9579,10.9713,10.9809,10.9885,11.0796,11.3011,11.3215,11.4219,11.6407,11.6484,11.6484,11.6484,11.6484,11.6484,11.6484,11.6484,11.6484,11.6484,11.6484,11.6484,11.6484,11.6484,11.6484,8.6701,8.7642,8.8606,8.9212,8.8937,8.8648,8.9157,8.8305,8.7407,8.7407,8.7982,8.859,8.8896,8.9612,9.0013,8.9535,8.9813,8.9954,8.9482,8.9359,8.9393,8.9491,8.9452,8.9444,8.9589,8.9452,8.9295,8.9295,8.9119,8.8992,8.8992,8.933,8.9743,9.0193,9.1242,9.2125,9.2806,9.3538,9.3914,9.3954,9.3819,9.3536,9.3082,9.3237,9.3475,9.376,9.3499,9.3389,9.3364,9.3082,9.2988,9.3025,9.3397,9.3805,9.4288,9.4994,9.5848,9.6666,9.7037,9.7483,9.7892,9.7892,9.7892,9.8115,9.9266,9.9935,10.0492,10.1718,10.2387,10.2721,10.2721,10.2721,10.2721,10.2721,10.2721,10.2938,10.341,10.3505,10.3505,10.3505,10.3505,10.4011,10.5599,10.6189,10.6868,10.8075,10.8678,10.898,10.898,10.898,10.9069,10.9477,10.9499,11.03,11.23,11.2376,11.3289,11.5321,11.5397,11.5397,11.5397,11.5715,11.5905,11.5905,11.6309,11.6484,11.6484,11.6484,11.6484,11.6484,11.6484,11.6484,8.6288,8.6839,8.7526,8.8134,8.8178,8.8149,8.8618,8.8032,8.7407,8.7407,8.7338,8.7258,8.7225,8.7682,8.8048,8.7992,8.8437,8.8783,8.8631,8.8383,8.8286,8.838,8.8319,8.8407,8.8671,8.8879,8.8992,8.8992,8.8992,8.8992,8.8992,8.8992,8.9292,8.9836,9.0547,9.1253,9.2054,9.2916,9.3312,9.3146,9.3054,9.2988,9.2988,9.2988,9.2988,9.2988,9.2988,9.2988,9.2988,9.2988,9.2988,9.2988,9.2988,9.3359,9.3917,9.4102,9.4957,9.6071,9.648,9.7037,9.7595,9.7817,9.7892,9.804,9.8858,9.9675,10.0492,10.131,10.209,10.2721,10.2721,10.2721,10.2721,10.2721,10.2721,10.2721,10.2721,10.2721,10.2721,10.2721,10.2721,10.3052,10.4428,10.5283,10.6182,10.7006,10.7792,10.8316,10.8316,10.8316,10.8487,10.9017,10.9006,10.9711,11.1299,11.1677,11.2497,11.4123,11.4426,11.4502,11.4502,11.5021,11.5304,11.5505,11.5993,11.627,11.6484,11.6484,11.6484,11.6484,11.6484,11.6484,8.6126,8.5875,8.601,8.7623,8.7131,8.6666,8.8305,8.8032,8.7407,8.7407,8.7304,8.7219,8.7212,8.7175,8.7152,8.7098,8.7057,8.6886,8.6433,8.6642,8.6619,8.6131,8.7108,8.7845,8.7865,8.8541,8.8992,8.8992,8.8992,8.8992,8.8992,8.8992,8.8973,8.8878,8.9664,9.0311,9.0889,9.2338,9.2988,9.2988,9.2988,9.2988,9.2988,9.2988,9.2988,9.2988,9.2988,9.2988,9.2988,9.2988,9.2988,9.2988,9.2988,9.3025,9.3136,9.3917,9.4251,9.4548,9.6071,9.6629,9.6814,9.7632,9.7892,9.804,9.8858,9.9675,10.0492,10.131,10.209,10.2721,10.2721,10.2721,10.2721,10.2721,10.2721,10.2721,10.2721,10.2721,10.2721,10.2721,10.2721,10.2981,10.3909,10.4727,10.5508,10.6326,10.7144,10.7701,10.7701,10.7701,10.7701,10.7664,10.774,10.8298,10.9869,11.0689,11.1788,11.3327,11.4085,11.4502,11.4502,11.4464,11.4883,11.5505,11.552,11.5893,11.6484,11.6484,11.6484,11.6484,11.6484,11.6484,8.5612,8.5536,8.5525,8.5704,8.5944,8.6119,8.6197,8.6392,8.6561,8.6513,8.6438,8.6535,8.7058,8.7089,8.7037,8.7001,8.6941,8.6747,8.625,8.5996,8.5892,8.5895,8.6077,8.6626,8.7715,8.8053,8.8428,8.8954,8.8992,8.8936,8.8917,8.886,8.8766,8.8592,8.9317,9.0218,9.1343,9.2496,9.2988,9.2988,9.2988,9.2988,9.2988,9.2988,9.2988,9.2988,9.2988,9.2988,9.2988,9.2988,9.2988,9.2988,9.2988,9.2988,9.3025,9.3322,9.3768,9.4362,9.544,9.6183,9.674,9.7632,9.7892,9.7966,9.8226,9.8895,9.9712,10.0492,10.131,10.2015,10.261,10.2721,10.2721,10.2721,10.2721,10.2721,10.2721,10.2721,10.2721,10.2721,10.2721,10.2796,10.3093,10.4319,10.5322,10.5619,10.6808,10.7625,10.7625,10.7625,10.7625,10.7625,10.7625,10.8149,10.923,11.0014,11.0872,11.1989,11.2775,11.3187,11.3187,11.3615,11.3995,11.4184,11.4588,11.5359,11.6484,11.6484,11.6484,11.6484,11.6484,11.6484,8.5217,8.4878,8.4592,8.4459,8.4824,8.5143,8.487,8.526,8.5629,8.5585,8.5491,8.5621,8.6143,8.6411,8.6671,8.6923,8.6793,8.6481,8.5998,8.5512,8.5224,8.528,8.5296,8.5762,8.6851,8.749,8.8015,8.8541,8.8786,8.8879,8.8803,8.8745,8.8592,8.8473,8.9336,9.0329,9.1279,9.2431,9.2988,9.2988,9.2988,9.2988,9.2988,9.2988,9.2988,9.2988,9.2684,9.2751,9.2988,9.2988,9.2988,9.2988,9.2988,9.2988,9.2988,9.2988,9.3322,9.3954,9.5031,9.5737,9.6406,9.752,9.7892,9.7892,9.7892,9.8449,9.9229,9.9749,10.0715,10.1607,10.2201,10.2498,10.2721,10.2721,10.2721,10.2721,10.2721,10.2721,10.2721,10.2721,10.2721,10.2721,10.2721,10.4096,10.521,10.521,10.6622,10.7625,10.7625,10.7625,10.7625,10.7625,10.7625,10.7811,10.8405,10.952,11.03,11.0894,11.1897,11.2529,11.2529,11.2925,11.3298,11.3511,11.392,11.4687,11.5766,11.5766,11.5905,11.6215,11.6215,11.6309,0.0,0.0,0.0,8.3913,8.3819,8.3738,8.4558,8.4753,8.4731,8.4686,8.4593,8.4536,8.4506,8.5127,8.5913,8.6704,8.6481,8.5998,8.5474,8.4991,8.4561,8.4125,8.4786,8.5274,8.5312,8.6814,8.779,8.779,8.841,8.8803,8.8803,8.8592,8.8473,8.8293,8.9708,9.0499,9.0499,9.2171,9.2988,9.2988,9.2988,9.2988,9.2988,9.2988,9.2988,9.2922,9.2018,9.2126,9.2922,9.2922,9.2922,9.2922,9.2922,9.2922,9.2922,9.2922,9.2922,9.3144,9.4741,9.5298,9.5595,9.7228,9.7785,9.7822,9.7822,9.8342,9.8973,9.901,10.0087,10.1386,10.1386,10.2017,10.2611,10.2611,10.2574,10.2648,10.2648,10.2721,10.2721,10.2721,10.2721,10.2721,10.2721,10.4096,10.521,10.521,10.6622,10.7625,10.7625,10.7625,10.7625,10.7625,10.7625,10.7625,10.7625,10.9111,11.0114,11.0114,11.16,11.2529,11.2529,11.2529,11.2809,11.3477,11.3477,11.3753,11.4402,11.454,11.4769,11.5505,11.549,11.5804,8.4132,0.0,0.0,0.0,0.0,0.0,8.3074,8.3426,8.3843,8.3698,8.3672,8.3809,8.4326,8.4611,8.4999,8.5768,8.6068,8.5998,8.5474,8.4991,8.4561,8.4125,8.4298,8.4673,8.5237,8.6251,8.7059,8.7548,8.8316,8.8687,8.8473,8.8293,8.8208,8.8146,8.9644,9.0499,9.0499,9.2171,9.2988,9.2988,9.2988,9.2988,9.2988,9.2336,9.2018,9.2018,9.1136,9.0871,9.1136,9.1136,9.1136,9.1136,9.1136,9.1136,9.1212,9.1875,9.151,9.1057,9.2721,9.3304,9.3383,9.4205,9.513,9.5918,9.5721,9.5984,9.6392,9.6741,9.7333,9.8035,9.9239,10.0115,10.0735,10.0735,10.123,10.1665,10.1665,10.2165,10.2721,10.2721,10.2721,10.2721,10.2721,10.4096,10.521,10.521,10.6622,10.7625,10.7625,10.7625,10.7625,10.7625,10.7625,10.7625,10.7625,10.9111,11.0114,11.0114,11.16,11.2529,11.2529,11.2529,11.2571,11.2769,11.2769,11.2923,11.3113,11.3987,11.4564,11.4785,11.4785,11.4904,0.0,0.0,8.23,8.192,0.0,0.0,8.2411,8.2645,8.2949,8.2823,8.2801,8.2903,8.3251,8.3601,8.3988,8.4343,8.4976,8.5378,8.536,8.4816,8.4356,8.4125,8.411,8.426,8.4749,8.5784,8.6592,8.6968,8.7977,8.8473,8.8232,8.8146,8.8084,8.8084,8.9644,9.0499,9.0499,9.2171,9.2818,9.2442,9.2818,9.2579,9.1946,9.1803,9.1473,9.1136,9.024,8.9832,8.9832,8.9534,8.9749,9.04,9.04,9.0284,9.0284,9.0793,9.0522,8.9996,9.1393,9.1994,9.2292,9.2999,9.3963,9.4819,9.4648,9.4734,9.4927,9.5189,9.5672,9.6408,9.7998,9.872,9.9153,9.9515,9.9941,10.0373,10.0458,10.103,10.1591,10.25,10.2721,10.2721,10.2721,10.4096,10.521,10.521,10.6622,10.7625,10.7625,10.7625,10.7625,10.7625,10.7625,10.7625,10.7625,10.9111,11.0114,11.0114,11.16,11.2529,11.2529,11.2529,11.2529,11.2529,11.2529,11.2529,11.2529,11.326,11.3822,11.4091,11.4414,11.4502,0.0,0.0,0.0,8.1961,8.2162,0.0,8.2293,8.2299,8.225,8.212,8.2092,8.2036,8.1815,8.2435,8.2937,8.2902,8.3534,8.425,8.5054,8.458,8.411,8.411,8.411,8.411,8.411,8.5337,8.6219,8.6238,8.754,8.8232,8.8084,8.8084,8.8084,8.8084,8.957,9.0424,9.0499,9.1994,9.2331,9.1693,9.2373,9.1946,9.04,9.1136,9.0984,9.024,8.9364,8.8968,8.888,8.8178,8.8739,9.0159,9.0159,8.996,8.976,8.9842,8.9641,8.9377,9.03,9.1089,9.1777,9.2458,9.3246,9.3963,9.3963,9.3963,9.4052,9.4052,9.4661,9.5593,9.6956,9.7386,9.7673,9.844,9.8713,9.8898,9.9189,9.9407,9.9992,10.2012,10.2501,10.2575,10.2721,10.4096,10.521,10.521,10.6622,10.7625,10.7625,10.7625,10.7625,10.7625,10.7625,10.7625,10.7625,10.9111,11.0114,11.0114,11.16,11.2529,11.2529,11.2529,11.2529,11.2529,11.2529,11.2529,11.2529,11.2529,11.2809,11.3368,11.4024,11.4287,8.3861,8.2793,8.1753,8.1948,8.214,0.0,8.231,8.232,8.2262,8.2065,8.2023,8.1945,8.1757,8.1868,8.2195,8.2825,8.2747,8.3,8.4175,8.4193,8.411,8.411,8.411,8.411,8.411,8.4867,8.5564,8.6124,8.7399,8.8146,8.8084,8.8084,8.8084,8.8084,8.9013,8.983,9.0499,9.079,9.125,9.1693,9.1136,9.0716,9.04,8.9832,8.9498,8.9278,8.8506,8.8086,8.8121,8.7749,8.7936,8.8361,8.8361,8.8234,8.8051,8.8721,8.8275,8.7361,8.827,8.8979,8.9605,8.9548,9.0723,9.2174,9.1975,9.2075,9.2174,9.2174,9.2635,9.3164,9.3681,9.4308,9.4974,9.5643,9.6458,9.7252,9.7892,9.8669,9.9407,10.0028,10.0912,10.1821,10.2575,10.4096,10.521,10.521,10.6622,10.7625,10.7625,10.7625,10.7625,10.7625,10.7625,10.7625,10.7625,10.9111,11.0114,11.0114,11.16,11.2529,11.2529,11.2529,11.2529,11.2529,11.2529,11.2529,11.2529,11.2529,11.2609,11.2691,11.2809,11.2886,8.4033,8.2961,8.1797,8.2093,8.2227,0.0,0.0,8.2289,8.2226,8.2046,8.2006,8.1921,8.1695,8.1646,8.1779,8.2133,8.2168,8.2304,8.2798,8.3399,8.3853,8.4087,8.411,8.4073,8.3967,8.4516,8.5357,8.6356,8.744,8.8084,8.8084,8.8084,8.7958,8.7497,8.8636,8.9284,8.9234,9.0078,9.0445,9.04,9.04,8.9996,8.9142,8.9106,8.888,8.8506,8.8121,8.7878,8.7878,8.7596,8.7596,8.769,8.7596,8.7309,8.7178,8.755,8.717,8.6593,8.6977,8.7825,8.881,8.8605,8.9812,9.1265,9.1057,9.1161,9.1265,9.1265,9.1403,9.1679,9.2304,9.2685,9.3171,9.3898,9.4739,9.5575,9.6098,9.6825,9.764,9.848,9.9134,9.9992,10.1707,10.3379,10.4565,10.4984,10.6396,10.7509,10.7509,10.7509,10.7472,10.7625,10.7625,10.7625,10.7625,10.8814,10.9706,11.0114,11.1229,11.212,11.2529,11.2529,11.2529,11.2529,11.2529,11.2529,11.2529,11.2529,11.2529,11.2529,11.2529,11.2529,8.4185,8.3065,8.187,8.2232,8.2295,8.2295,0.0,0.0,0.0,8.2031,8.1987,8.1896,8.1652,8.1577,8.1538,8.1271,8.161,8.1771,8.1384,8.2395,8.3304,8.3787,8.3945,8.3967,8.3822,8.4517,8.5446,8.6486,8.7527,8.8084,8.8084,8.7958,8.7563,8.6885,8.8022,8.8386,8.801,8.9159,8.9537,8.9106,8.9666,8.9228,8.7971,8.8561,8.8471,8.7878,8.7878,8.7878,8.7784,8.7501,8.7405,8.7275,8.7213,8.6887,8.6691,8.6691,8.6494,8.6294,8.6294,8.7329,8.8605,8.8605,8.9605,9.0812,9.0812,9.0812,9.0812,9.0812,9.0812,9.095,9.1606,9.1778,9.195,9.2709,9.3468,9.4198,9.4553,9.5176,9.6093,9.7106,9.731,9.8131,10.053,10.2385,10.3815,10.4371,10.6086,10.72,10.72,10.7316,10.7394,10.7511,10.7625,10.7625,10.7625,10.8405,10.9223,11.0003,11.0894,11.1712,11.2529,11.2529,11.2529,11.2529,11.2529,11.2529,11.2529,11.2529,11.2529,11.2529,11.2529,11.2529,8.4185,8.3065,8.1883,8.2207,8.2301,8.2301,8.2301,0.0,8.2223,8.1958,0.0,8.1827,8.1562,0.0,0.0,8.0459,8.0762,8.0888,8.0505,8.152,8.2473,8.2767,8.3372,8.3767,8.3657,8.487,8.5701,8.5706,8.7192,8.8084,8.8084,8.7394,8.6953,8.6885,8.632,8.664,8.801,8.7367,8.7777,8.9106,8.8506,8.8121,8.7878,8.7936,8.7936,8.7878,8.7878,8.7784,8.7501,8.7309,8.6985,8.6789,8.702,8.6887,8.6691,8.6691,8.6494,8.6294,8.6294,8.7329,8.8605,8.8605,8.9605,9.0812,9.0812,9.0812,9.0812,9.0812,9.0812,9.0812,9.0916,9.095,9.1157,9.195,9.2675,9.3434,9.4123,9.4957,9.5585,9.5878,9.5986,9.6729,9.8913,10.1422,10.312,10.3242,10.5413,10.7042,10.7042,10.7237,10.7279,10.7279,10.7472,10.7625,10.7625,10.8405,10.9223,11.0003,11.0894,11.1712,11.2529,11.2529,11.2529,11.2529,11.2529,11.2529,11.2529,11.2529,11.2529,11.2529,11.2529,11.2529,8.4315,8.3166,8.1909,8.2214,8.2303,8.2301,8.2304,8.2304,8.2219,8.1977,0.0,0.0,0.0,0.0,0.0,0.0,8.0916,8.0773,8.0352,8.0988,8.1792,8.2594,8.3351,8.3712,8.3489,8.4373,8.515,8.5595,8.6703,8.7628,8.8084,8.7794,8.7394,8.6885,8.6569,8.6643,8.7331,8.6954,8.735,8.8416,8.8029,8.7878,8.7878,8.7878,8.7784,8.769,8.769,8.7501,8.7213,8.6985,8.6789,8.6691,8.6593,8.6593,8.6494,8.6494,8.6394,8.6294,8.6294,8.7329,8.8743,8.9605,9.0295,9.0812,9.0812,9.0812,9.0812,9.0812,9.0812,9.0812,9.0812,9.0812,9.0881,9.1226,9.2226,9.3192,9.3537,9.4537,9.54,9.551,9.5585,9.5878,9.6798,9.9376,10.1377,10.1807,10.3656,10.5162,10.5814,10.5974,10.6276,10.7005,10.7237,10.7316,10.7357,10.7843,10.8584,11.0003,11.1303,11.212,11.2529,11.2529,11.2529,11.2529,11.2529,11.2529,11.2529,11.2529,11.2529,11.2529,11.2529,11.2529,8.4454,8.327,8.2026,8.2221,8.2304,8.2304,8.2304,8.2265,8.2168,8.1956,8.1883,0.0,0.0,0.0,8.1401,8.1053,0.0,8.0524,7.9858,8.0363,8.115,8.2167,8.3131,8.3546,8.3355,8.4003,8.47,8.5497,8.6417,8.7239,8.8084,8.7858,8.7497,8.6885,8.6427,8.6416,8.6787,8.6567,8.6949,8.7878,8.7878,8.7784,8.7784,8.769,8.7596,8.7405,8.7405,8.7213,8.702,8.6789,8.6691,8.6593,8.6394,8.6294,8.6294,8.6294,8.6294,8.6294,8.6294,8.7329,8.8846,9.0329,9.0812,9.0812,9.0812,9.0812,9.0812,9.0812,9.0812,9.0812,9.0812,9.0812,9.0812,9.0812,9.1985,9.3089,9.3089,9.4296,9.54,9.54,9.54,9.54,9.54,9.7884,9.9977,10.0543,10.2195,10.3723,10.4521,10.4926,10.5502,10.6434,10.68,10.7116,10.72,10.72,10.7983,10.9925,11.1637,11.2529,11.2529,11.2529,11.2529,11.2529,11.2529,11.2529,11.2529,11.2529,11.2529,11.2529,11.2529,11.2529,8.4637,8.3419,8.2149,8.2264,8.2304,8.2304,8.2304,8.2214,8.2078,8.1933,8.1797,8.164,8.1553,8.1504,0.0,0.0,8.003,0.0,0.0,7.9434,8.0361,8.1062,8.235,8.318,8.318,8.3923,8.474,8.5521,8.6375,8.7192,8.8047,8.7328,8.6953,8.6885,8.535,8.5228,8.6715,8.5958,8.6298,8.7878,8.769,8.7501,8.7501,8.7213,8.7117,8.7117,8.7117,8.6985,8.6691,8.6691,8.6593,8.6294,8.6294,8.6294,8.6294,8.6294,8.6294,8.6294,8.6294,8.7329,8.8846,9.0329,9.0812,9.0812,9.0812,9.0812,9.0812,9.0812,9.0812,9.0812,9.0812,9.0812,9.0812,9.0812,9.1985,9.3089,9.3089,9.4296,9.54,9.54,9.54,9.54,9.54,9.7527,9.9359,9.9359,10.1527,10.3059,10.323,10.4297,10.5072,10.5234,10.6266,10.6998,10.6962,10.6962,10.7781,10.9687,11.1521,11.2529,11.2529,11.2529,11.2529,11.2529,11.2529,11.2529,11.2529,11.2529,11.2529,11.2529,11.2529,11.2529,8.3943,8.2983,8.2137,8.2264,8.2304,8.2304,8.2304,8.2214,8.2078,8.1933,8.1781,8.1679,8.1514,8.1504,0.0,0.0,0.0,8.0048,0.0,8.0117,8.08,8.099,8.237,8.3297,8.318,8.3423,8.4136,8.5521,8.5826,8.6639,8.8047,8.7328,8.6885,8.6885,8.5273,8.4931,8.6002,8.5658,8.5925,8.6884,8.7316,8.7405,8.7213,8.7117,8.6985,8.6789,8.6789,8.6691,8.6394,8.6394,8.6394,8.6294,8.6294,8.6294,8.6294,8.6294,8.6294,8.6467,8.7467,8.8157,8.8846,9.0329,9.0812,9.0812,9.0812,9.0812,9.0812,9.0812,9.0812,9.0812,9.0812,9.0812,9.0812,9.0812,9.1985,9.3089,9.3089,9.4296,9.54,9.54,9.54,9.54,9.54,9.6941,9.8278,9.8278,9.9861,10.1174,10.1858,10.2382,10.333,10.4706,10.5162,10.5814,10.6718,10.7398,10.8372,10.9687,11.0916,11.1775,11.2529,11.2529,11.2529,11.2529,11.2529,11.2529,11.2529,11.2529,11.2529,11.2529,11.2529,11.2529,8.3682,8.2823,8.2203,8.2265,8.2265,8.2223,8.2221,8.2092,8.1945,8.1856,8.1735,8.1613,8.1528,8.1504,0.0,0.0,0.0,0.0,0.0,8.0315,8.0972,8.0861,8.2313,8.3297,8.318,8.3226,8.3841,8.5521,8.563,8.6343,8.801,8.7628,8.7194,8.6885,8.5468,8.4952,8.5442,8.5339,8.5543,8.6218,8.6891,8.7082,8.6985,8.6922,8.6691,8.6593,8.6593,8.6494,8.6294,8.6294,8.6294,8.6294,8.6294,8.6294,8.6294,8.6294,8.6294,8.6536,8.8053,8.8605,8.8846,9.0329,9.0812,9.0812,9.0812,9.0812,9.0743,9.0502,9.0605,9.0743,9.0467,9.0605,9.0812,9.0812,9.1985,9.3089,9.3089,9.4296,9.54,9.54,9.54,9.54,9.54,9.6434,9.7365,9.7641,9.8952,10.0045,10.0767,10.1318,10.2209,10.388,10.4521,10.5198,10.6544,10.7492,10.8468,10.9481,11.0376,11.1272,11.2213,11.2406,11.2338,11.2041,11.2263,11.2418,11.212,11.2418,11.2529,11.2529,11.2529,11.2529]}]]